[[{"header":{"parameterUnit":"m.s-1","parameterCategory":1,"la1":30.6,"la2":29.2853,"lo1":-89.7004,"lo2":-87.6739,"dy":0.0162,"dx":0.0183,"nx":112,"ny":82,"refTime":"2023-07-19T12:00:00:Z","depth":0,"parameterNumber":2,"parameterNumberName":"U-component_of_WINDS"},"data":[0.0,0.0,0.0,0.0,0.0,0.0,0.0,0.0,0.0,0.0,0.0,0.0,0.0,0.0,0.0,0.0,0.0,0.0,0.0,0.0,0.0,0.0,0.0,0.0,0.0,0.0,0.0,0.0,0.0,0.0,0.0,0.0,0.0,0.0,0.0,0.0,0.0,0.0,0.0,0.0,0.0,0.0,0.0,0.0,0.0,0.0,0.0,0.0,0.0,0.0,0.0,0.0,0.0,0.0,0.0,0.0,0.0,0.0,0.0,0.0,0.0,0.0,0.0,0.0,0.0,0.0,0.0,0.0,0.0,0.0,0.0,0.0,0.0,0.0,0.0,0.0,0.0,0.0,0.0,0.0,0.0,0.0,0.0,0.0,0.0,0.0,0.0,0.0,0.0,0.0,-3.8174,-3.8106,-3.7685,-3.7228,-3.6821,-3.6492,-3.6088,-3.5622,0.0,0.0,0.0,0.0,0.0,0.0,0.0,0.0,0.0,0.0,0.0,0.0,0.0,0.0,0.0,0.0,0.0,0.0,0.0,0.0,0.0,0.0,0.0,0.0,0.0,0.0,0.0,0.0,0.0,0.0,0.0,0.0,0.0,0.0,0.0,0.0,0.0,0.0,0.0,0.0,0.0,0.0,0.0,0.0,0.0,0.0,0.0,0.0,0.0,0.0,0.0,0.0,0.0,0.0,0.0,0.0,0.0,0.0,0.0,0.0,0.0,0.0,0.0,0.0,0.0,0.0,0.0,0.0,0.0,0.0,0.0,0.0,0.0,0.0,0.0,0.0,0.0,0.0,0.0,0.0,0.0,0.0,0.0,0.0,0.0,0.0,0.0,0.0,0.0,0.0,0.0,0.0,0.0,0.0,0.0,0.0,0.0,0.0,0.0,0.0,0.0,0.0,0.0,0.0,-3.8054,-3.7632,-3.7246,-3.6821,-3.6409,-3.6343,-3.6088,-3.5622,0.0,0.0,0.0,0.0,0.0,0.0,0.0,0.0,0.0,0.0,0.0,0.0,0.0,0.0,0.0,0.0,0.0,0.0,0.0,0.0,0.0,0.0,0.0,0.0,0.0,0.0,0.0,0.0,0.0,0.0,0.0,0.0,0.0,0.0,0.0,0.0,0.0,0.0,0.0,0.0,0.0,0.0,0.0,0.0,0.0,0.0,0.0,0.0,0.0,0.0,0.0,0.0,0.0,0.0,0.0,0.0,0.0,0.0,0.0,0.0,0.0,0.0,0.0,0.0,0.0,0.0,0.0,0.0,0.0,0.0,0.0,0.0,0.0,0.0,0.0,0.0,0.0,0.0,0.0,0.0,0.0,0.0,0.0,0.0,0.0,0.0,0.0,0.0,0.0,0.0,0.0,0.0,0.0,0.0,0.0,0.0,0.0,0.0,0.0,0.0,0.0,0.0,0.0,-3.7845,-3.7632,-3.7208,-3.6821,-3.6492,-3.6301,-3.6088,-3.58,-3.5549,-3.4721,0.0,0.0,0.0,0.0,0.0,0.0,0.0,0.0,0.0,0.0,0.0,0.0,0.0,0.0,0.0,0.0,0.0,0.0,0.0,0.0,0.0,0.0,0.0,0.0,0.0,0.0,0.0,0.0,0.0,0.0,0.0,0.0,0.0,0.0,0.0,0.0,0.0,0.0,0.0,0.0,0.0,0.0,0.0,0.0,0.0,0.0,0.0,0.0,0.0,0.0,0.0,0.0,0.0,0.0,0.0,0.0,0.0,0.0,0.0,0.0,0.0,0.0,0.0,0.0,0.0,0.0,0.0,0.0,0.0,0.0,0.0,0.0,0.0,0.0,0.0,0.0,0.0,0.0,0.0,0.0,0.0,0.0,0.0,0.0,0.0,0.0,0.0,0.0,0.0,0.0,0.0,0.0,0.0,0.0,0.0,0.0,0.0,0.0,0.0,0.0,0.0,0.0,-3.7266,-3.7038,-3.6741,-3.6308,-3.6045,-3.6045,-3.5756,-3.5458,-3.5274,-3.4268,0.0,0.0,0.0,0.0,0.0,0.0,0.0,0.0,0.0,0.0,0.0,0.0,0.0,0.0,0.0,0.0,0.0,0.0,0.0,0.0,0.0,0.0,0.0,0.0,0.0,0.0,0.0,0.0,0.0,0.0,0.0,0.0,0.0,0.0,0.0,0.0,0.0,0.0,0.0,0.0,0.0,0.0,0.0,0.0,0.0,0.0,0.0,0.0,0.0,0.0,0.0,0.0,0.0,0.0,0.0,0.0,0.0,0.0,0.0,0.0,0.0,0.0,0.0,0.0,0.0,0.0,0.0,0.0,0.0,0.0,0.0,0.0,0.0,0.0,0.0,0.0,0.0,0.0,0.0,0.0,0.0,0.0,0.0,0.0,0.0,0.0,0.0,0.0,0.0,0.0,0.0,0.0,0.0,0.0,0.0,0.0,0.0,0.0,0.0,0.0,0.0,0.0,-3.6626,-3.6037,-3.6139,-3.5694,-3.5383,-3.5383,-3.5337,-3.5071,-3.4529,-3.3802,0.0,0.0,0.0,0.0,0.0,0.0,0.0,0.0,0.0,0.0,0.0,0.0,0.0,0.0,0.0,0.0,0.0,0.0,0.0,0.0,0.0,0.0,0.0,0.0,0.0,0.0,0.0,0.0,0.0,0.0,0.0,0.0,0.0,0.0,0.0,0.0,0.0,0.0,0.0,0.0,0.0,0.0,0.0,0.0,0.0,0.0,0.0,0.0,0.0,0.0,0.0,0.0,0.0,0.0,0.0,0.0,0.0,0.0,0.0,0.0,0.0,0.0,0.0,0.0,0.0,0.0,0.0,0.0,0.0,0.0,0.0,0.0,0.0,0.0,0.0,0.0,0.0,0.0,0.0,0.0,0.0,0.0,0.0,0.0,0.0,0.0,0.0,0.0,0.0,0.0,0.0,0.0,0.0,0.0,0.0,0.0,0.0,0.0,0.0,0.0,0.0,0.0,-3.6274,-3.5924,0.0,-3.5412,-3.5291,-3.5291,-3.4977,-3.4791,-3.487,0.0,0.0,0.0,0.0,0.0,0.0,0.0,0.0,0.0,0.0,0.0,0.0,0.0,0.0,0.0,0.0,0.0,0.0,0.0,0.0,0.0,0.0,0.0,0.0,0.0,0.0,0.0,0.0,0.0,0.0,0.0,0.0,0.0,0.0,0.0,0.0,0.0,0.0,0.0,0.0,0.0,0.0,0.0,0.0,0.0,0.0,0.0,0.0,0.0,0.0,0.0,0.0,0.0,0.0,0.0,0.0,0.0,0.0,0.0,0.0,0.0,0.0,0.0,0.0,0.0,0.0,0.0,0.0,0.0,0.0,0.0,0.0,0.0,0.0,0.0,0.0,0.0,0.0,0.0,0.0,0.0,0.0,0.0,0.0,0.0,0.0,0.0,0.0,0.0,0.0,0.0,0.0,0.0,0.0,0.0,0.0,0.0,0.0,0.0,0.0,0.0,0.0,-3.6079,-3.5837,-3.569,0.0,-3.5549,-3.5538,-3.5545,-3.5185,-3.4945,-3.4904,0.0,0.0,0.0,0.0,0.0,0.0,0.0,0.0,0.0,0.0,0.0,0.0,0.0,0.0,0.0,0.0,0.0,0.0,0.0,0.0,0.0,0.0,0.0,0.0,0.0,0.0,0.0,0.0,0.0,0.0,0.0,0.0,0.0,0.0,0.0,0.0,0.0,0.0,0.0,0.0,0.0,0.0,0.0,0.0,0.0,0.0,0.0,0.0,0.0,0.0,0.0,0.0,0.0,0.0,0.0,0.0,0.0,0.0,0.0,0.0,0.0,0.0,0.0,0.0,0.0,0.0,0.0,0.0,0.0,0.0,0.0,0.0,0.0,0.0,0.0,0.0,0.0,0.0,0.0,0.0,0.0,0.0,0.0,0.0,0.0,0.0,0.0,0.0,0.0,0.0,0.0,0.0,0.0,0.0,0.0,0.0,0.0,0.0,0.0,0.0,0.0,0.0,-3.5924,-3.535,-3.5245,-3.6137,-3.6058,-3.6024,-3.6108,-3.6066,-3.5545,0.0,0.0,0.0,0.0,0.0,0.0,0.0,0.0,0.0,0.0,0.0,0.0,0.0,0.0,0.0,0.0,0.0,0.0,0.0,0.0,0.0,0.0,0.0,0.0,0.0,0.0,0.0,0.0,0.0,0.0,0.0,0.0,0.0,0.0,0.0,0.0,0.0,0.0,0.0,0.0,0.0,0.0,0.0,0.0,0.0,0.0,0.0,0.0,0.0,0.0,0.0,0.0,0.0,0.0,0.0,0.0,0.0,0.0,0.0,0.0,0.0,0.0,0.0,0.0,0.0,0.0,0.0,0.0,0.0,0.0,0.0,0.0,0.0,0.0,0.0,0.0,0.0,0.0,0.0,0.0,0.0,0.0,0.0,0.0,0.0,0.0,0.0,0.0,0.0,0.0,0.0,0.0,0.0,0.0,0.0,0.0,0.0,0.0,0.0,0.0,0.0,0.0,0.0,-3.6844,-3.6686,-3.6638,-3.6821,-3.6383,-3.6068,-3.6104,-3.5324,-3.4903,-3.5,0.0,0.0,0.0,0.0,0.0,0.0,0.0,0.0,0.0,0.0,0.0,0.0,0.0,0.0,0.0,0.0,0.0,0.0,0.0,0.0,0.0,0.0,0.0,0.0,0.0,0.0,0.0,0.0,0.0,0.0,0.0,0.0,0.0,0.0,0.0,0.0,0.0,0.0,0.0,0.0,0.0,0.0,0.0,0.0,0.0,0.0,0.0,0.0,0.0,0.0,0.0,0.0,0.0,0.0,0.0,0.0,0.0,0.0,0.0,0.0,0.0,0.0,0.0,0.0,0.0,0.0,0.0,0.0,0.0,0.0,0.0,0.0,0.0,0.0,0.0,0.0,0.0,0.0,0.0,0.0,0.0,0.0,0.0,0.0,0.0,0.0,0.0,0.0,0.0,0.0,0.0,0.0,0.0,0.0,0.0,0.0,0.0,0.0,0.0,0.0,0.0,0.0,-3.6816,-3.6814,-3.6809,-3.6771,-3.6393,-3.6214,-3.6204,-3.5525,-3.5186,-3.5383,0.0,0.0,0.0,0.0,0.0,0.0,0.0,0.0,0.0,0.0,0.0,0.0,0.0,0.0,0.0,0.0,0.0,0.0,0.0,0.0,0.0,0.0,0.0,0.0,0.0,0.0,0.0,0.0,0.0,0.0,0.0,0.0,0.0,0.0,0.0,0.0,0.0,0.0,0.0,0.0,0.0,0.0,0.0,0.0,0.0,0.0,0.0,0.0,0.0,0.0,0.0,0.0,0.0,0.0,0.0,0.0,0.0,0.0,0.0,0.0,0.0,0.0,0.0,0.0,0.0,0.0,0.0,0.0,0.0,0.0,0.0,0.0,0.0,0.0,0.0,0.0,0.0,0.0,0.0,0.0,0.0,0.0,0.0,0.0,0.0,0.0,0.0,0.0,0.0,0.0,0.0,0.0,0.0,0.0,0.0,0.0,0.0,0.0,0.0,0.0,0.0,0.0,-3.6367,-3.626,-3.63,-3.639,-3.6337,-3.6354,-3.6368,-3.6368,-3.6085,-3.5504,0.0,0.0,0.0,0.0,0.0,0.0,0.0,0.0,0.0,0.0,0.0,0.0,0.0,0.0,0.0,0.0,0.0,0.0,0.0,0.0,0.0,0.0,0.0,0.0,0.0,0.0,0.0,0.0,0.0,0.0,0.0,0.0,0.0,0.0,0.0,0.0,0.0,0.0,0.0,0.0,0.0,0.0,0.0,0.0,0.0,0.0,0.0,0.0,0.0,0.0,0.0,0.0,0.0,0.0,0.0,0.0,0.0,0.0,0.0,0.0,-4.4545,0.0,0.0,0.0,0.0,0.0,0.0,0.0,0.0,0.0,0.0,0.0,0.0,0.0,0.0,0.0,0.0,0.0,0.0,0.0,0.0,0.0,0.0,0.0,0.0,0.0,0.0,0.0,0.0,0.0,0.0,0.0,0.0,0.0,0.0,0.0,0.0,0.0,0.0,0.0,0.0,0.0,-3.776,-3.7431,-3.715,-3.7133,-3.6687,-3.6384,-3.6415,-3.5958,-3.5619,-3.5504,-3.5504,0.0,0.0,0.0,0.0,0.0,0.0,0.0,0.0,0.0,0.0,0.0,0.0,0.0,0.0,0.0,0.0,0.0,0.0,0.0,0.0,0.0,0.0,0.0,0.0,0.0,0.0,0.0,0.0,0.0,0.0,0.0,0.0,0.0,0.0,0.0,0.0,0.0,0.0,0.0,0.0,0.0,0.0,0.0,0.0,0.0,0.0,0.0,0.0,0.0,0.0,0.0,0.0,0.0,0.0,0.0,0.0,0.0,0.0,0.0,0.0,-4.4036,0.0,0.0,0.0,0.0,0.0,0.0,0.0,0.0,0.0,0.0,0.0,0.0,0.0,0.0,0.0,0.0,0.0,0.0,0.0,0.0,0.0,0.0,0.0,0.0,0.0,0.0,0.0,0.0,0.0,0.0,0.0,0.0,0.0,0.0,0.0,0.0,0.0,0.0,0.0,0.0,-3.7831,-3.7294,-3.6784,-3.6492,-3.6211,-3.5973,-3.5973,-3.5683,-3.5504,-3.5504,-3.5133,0.0,0.0,0.0,0.0,0.0,0.0,0.0,0.0,0.0,0.0,0.0,0.0,0.0,0.0,0.0,0.0,0.0,0.0,0.0,0.0,0.0,0.0,0.0,0.0,0.0,0.0,0.0,0.0,0.0,0.0,0.0,0.0,0.0,0.0,0.0,0.0,0.0,0.0,0.0,0.0,0.0,0.0,0.0,0.0,0.0,0.0,0.0,0.0,0.0,0.0,0.0,0.0,0.0,-4.6556,-4.672,-4.6371,-4.6052,-4.5537,-4.4837,-4.3892,-4.3497,-4.3497,0.0,0.0,0.0,0.0,0.0,0.0,0.0,0.0,0.0,0.0,0.0,0.0,0.0,0.0,0.0,0.0,0.0,0.0,0.0,0.0,0.0,0.0,0.0,0.0,0.0,-3.9884,-3.9816,0.0,0.0,0.0,0.0,0.0,0.0,0.0,0.0,0.0,0.0,0.0,0.0,-3.731,-3.6662,-3.6022,-3.5554,-3.5504,-3.5504,-3.5504,-3.5504,-3.5504,-3.5504,-3.4905,-3.4461,0.0,0.0,0.0,0.0,0.0,0.0,0.0,0.0,0.0,0.0,0.0,0.0,0.0,0.0,0.0,0.0,0.0,0.0,0.0,0.0,0.0,0.0,0.0,0.0,0.0,0.0,0.0,0.0,0.0,0.0,0.0,0.0,-4.2591,-4.3587,0.0,0.0,0.0,0.0,0.0,0.0,0.0,0.0,0.0,0.0,0.0,0.0,0.0,-4.54,-4.54,-4.5495,-4.539,-4.5043,-4.4881,-4.4655,-4.4364,-4.4029,-4.3805,-4.3713,-4.3569,0.0,-4.3497,-4.3497,0.0,0.0,0.0,0.0,0.0,0.0,0.0,0.0,0.0,0.0,0.0,0.0,0.0,0.0,0.0,0.0,0.0,0.0,0.0,0.0,0.0,0.0,-3.9901,-3.9901,-3.9781,-3.9677,0.0,-3.959,-3.9554,-3.9501,-3.9395,0.0,0.0,0.0,0.0,0.0,0.0,0.0,-3.66,-3.6022,-3.5554,-3.5504,-3.5504,-3.5504,-3.5504,-3.5504,-3.5504,-3.5504,-3.5424,-3.5052,-3.4312,-3.4312,0.0,0.0,0.0,0.0,0.0,0.0,0.0,0.0,0.0,0.0,0.0,0.0,0.0,0.0,0.0,0.0,0.0,0.0,0.0,0.0,0.0,0.0,0.0,0.0,0.0,0.0,0.0,0.0,0.0,-4.2572,-4.345,-4.4328,-4.5207,-4.5843,0.0,0.0,0.0,0.0,0.0,0.0,0.0,0.0,0.0,-4.54,-4.54,-4.538,-4.5341,-4.5339,-4.5109,-4.4624,-4.4465,-4.4143,-4.3716,-4.3548,-4.3497,-4.3497,-4.3497,-4.3497,-4.3497,-4.3497,-4.3321,-4.305,0.0,0.0,0.0,0.0,-4.1481,-4.1174,-4.0642,-4.0417,0.0,0.0,0.0,0.0,0.0,0.0,0.0,0.0,0.0,0.0,0.0,0.0,0.0,-3.9781,-3.9642,-3.9484,-3.9501,-3.9448,-3.9395,0.0,-3.9325,-3.9272,-3.9272,0.0,0.0,0.0,0.0,-3.6723,-3.643,-3.5846,-3.5504,-3.5504,-3.5504,-3.5504,-3.5504,-3.5504,-3.5504,-3.5504,-3.5067,-3.4476,-3.3699,-3.3699,-3.3478,0.0,0.0,0.0,0.0,0.0,0.0,0.0,0.0,0.0,0.0,0.0,0.0,0.0,0.0,0.0,0.0,0.0,0.0,0.0,0.0,0.0,0.0,0.0,0.0,0.0,0.0,0.0,0.0,-4.3157,-4.4016,-4.4894,-4.5722,-4.6187,0.0,0.0,0.0,0.0,0.0,0.0,-4.5419,-4.54,-4.538,-4.5359,-4.5359,-4.5338,-4.5297,-4.5297,-4.5019,-4.4383,-4.4608,-4.4401,-4.3809,-4.3809,-4.3809,-4.3791,-4.3589,-4.3497,-4.3479,-4.3375,-4.3105,-4.2711,-4.2577,-4.1997,-4.1213,-4.1013,-4.0672,-4.037,-4.0171,-4.007,-4.007,-4.007,0.0,-4.007,-4.007,0.0,0.0,0.0,0.0,-4.0037,-3.9884,-3.9781,-3.9677,-3.9642,-3.9484,-3.9325,-3.9202,-3.9131,-3.9023,0.0,-3.9023,-3.9023,-3.886,0.0,0.0,0.0,0.0,-3.6368,-3.6196,-3.5797,-3.5504,-3.5504,-3.5504,-3.5504,-3.5504,-3.5504,-3.5504,-3.5504,-3.492,-3.4192,-3.3213,-3.3213,-3.2861,-3.2074,0.0,0.0,0.0,0.0,0.0,0.0,0.0,0.0,0.0,0.0,0.0,0.0,0.0,0.0,0.0,0.0,0.0,0.0,0.0,0.0,0.0,0.0,0.0,0.0,0.0,0.0,0.0,0.0,0.0,-4.4894,-4.5604,0.0,0.0,0.0,0.0,-4.5703,-4.5509,-4.5419,-4.5399,-4.5418,-4.5359,-4.5317,-4.5297,-4.5297,-4.5297,-4.5297,-4.5019,-4.4402,-4.5162,-4.5227,-4.4654,-4.4654,-4.4654,-4.4617,-4.3828,-4.3497,-4.3479,-4.3087,-4.2844,-4.2673,-4.2203,-4.1888,-4.1604,-4.1105,-4.0844,-4.0707,-4.0271,-4.007,-4.007,-4.007,-4.007,-4.007,-4.007,-4.007,0.0,0.0,-3.9901,-3.9901,-3.9729,-3.9729,-3.9677,-3.9537,-3.9501,-3.9255,-3.8518,-3.8351,-3.8351,0.0,-3.8351,-3.8181,-3.7605,0.0,-3.7251,-3.66,-3.643,-3.6196,-3.5619,-3.5504,-3.5504,-3.5504,-3.5504,-3.5504,-3.5504,-3.5504,-3.5504,-3.5504,-3.5439,-3.4787,-3.3297,-3.3213,-3.2861,-3.2074,-3.2146,0.0,0.0,0.0,0.0,0.0,0.0,0.0,0.0,0.0,0.0,0.0,0.0,0.0,0.0,0.0,0.0,0.0,0.0,0.0,0.0,0.0,0.0,0.0,0.0,0.0,0.0,0.0,0.0,-4.5552,-4.5917,0.0,-4.5863,-4.5708,-4.5574,-4.5494,-4.54,-4.5339,-4.5338,-4.5338,-4.5547,-4.6061,-4.6061,-4.6347,-4.6901,-4.6706,-4.6398,-4.5998,-4.6078,-4.5875,-4.548,-4.548,-4.548,-4.5461,-4.5168,-4.5039,-4.5003,-4.4615,-4.3767,-4.2655,-4.208,-4.1595,-4.1122,-4.0594,-4.0385,-4.0303,-4.0171,-4.007,-4.007,-4.007,-4.007,-4.007,-4.007,-4.007,-4.007,-4.0037,-3.9952,-3.9849,-3.9729,-3.9642,-3.9415,-3.8882,-3.8717,-3.8535,-3.7879,-3.7706,-3.7589,-3.7175,-3.7413,-3.7648,-3.7429,-3.7011,-3.6662,-3.643,-3.6085,-3.5733,-3.5504,-3.5504,-3.5504,-3.5504,-3.5504,-3.5504,-3.5504,-3.5504,-3.5504,-3.5504,-3.4986,-3.4274,-3.3213,-3.272,-3.216,-3.1394,-3.1394,-3.1955,0.0,0.0,0.0,0.0,0.0,0.0,0.0,0.0,0.0,0.0,0.0,0.0,0.0,0.0,0.0,0.0,0.0,0.0,0.0,0.0,0.0,0.0,0.0,0.0,0.0,0.0,-4.4294,-4.591,-4.6041,-4.5929,-4.5713,-4.5574,-4.5475,-4.5399,-4.5338,-4.5411,-4.5679,-4.5698,-4.608,-4.692,-4.694,-4.7226,-4.7799,-4.7485,-4.7162,-4.6899,-4.6829,-4.6644,-4.6305,-4.6305,-4.6305,-4.6287,-4.6012,-4.5902,-4.5902,-4.5623,-4.4699,-4.3372,-4.2409,-4.1422,-4.0577,-4.0254,-4.007,-4.007,-4.007,-4.007,-4.007,-4.007,-4.007,-4.007,-4.007,-4.007,-4.007,-4.0037,-3.9986,-3.9849,-3.9694,-3.9415,-3.9007,-3.8463,-3.8165,-3.7822,-3.7191,-3.7071,-3.689,-3.6196,-3.66,-3.7027,-3.6784,-3.6383,-3.6085,-3.6085,-3.5733,-3.5504,-3.5504,-3.5504,-3.5504,-3.5504,-3.5504,-3.5504,-3.5504,-3.5504,-3.5504,-3.5504,-3.4758,-3.3973,-3.3213,-3.272,-3.2087,-3.1408,-3.1408,-3.1809,-3.2861,0.0,0.0,0.0,0.0,0.0,0.0,0.0,0.0,0.0,0.0,0.0,0.0,0.0,0.0,0.0,0.0,0.0,0.0,0.0,0.0,0.0,0.0,0.0,-4.3587,-4.3723,-4.4333,-4.591,-4.592,-4.577,-4.5684,-4.5457,-4.5337,-4.5436,-4.5376,-4.5679,-4.65,-4.6538,-4.694,-4.7818,-4.7857,-4.7857,-4.7895,-4.7536,-4.7238,-4.6974,-4.7406,-4.7441,-4.715,-4.715,-4.715,-4.7113,-4.6305,-4.5975,-4.5975,-4.5957,-4.5565,-4.4844,-4.3127,-4.1526,-4.0189,-4.0206,-4.0121,-4.0104,-4.0087,-4.007,-4.007,-4.007,-4.007,-4.007,-4.007,-4.007,-4.007,-3.9935,-3.9901,-3.9849,-3.9537,-3.9007,-3.8446,-3.8278,-3.7764,-3.7191,-3.6554,-3.6368,-3.6196,-3.5619,-3.5973,-3.6196,-3.5619,-3.5504,-3.5504,-3.5504,-3.5504,0.0,-3.5504,-3.5504,-3.5504,-3.5504,-3.5504,-3.5504,-3.5504,-3.5504,-3.5504,-3.5439,-3.4691,-3.3891,-3.3213,-3.3143,-3.2791,-3.2074,-3.2074,-3.2074,-3.2074,0.0,0.0,0.0,0.0,0.0,0.0,0.0,0.0,0.0,0.0,0.0,0.0,0.0,0.0,0.0,0.0,0.0,0.0,0.0,0.0,0.0,0.0,-4.2708,-4.3587,-4.4231,-4.4963,-4.5851,-4.5908,-4.5764,-4.5509,-4.5419,-4.5607,-4.6158,-4.6175,-4.6538,-4.7398,-4.7455,-4.7837,-4.8716,-4.8735,-4.9022,-4.9614,-4.9048,-4.8716,-4.8626,-4.8285,-4.8051,-4.7976,-4.7976,-4.7976,-4.7976,-4.7737,-4.7645,-4.7607,-4.7183,-4.629,-4.5098,-4.4067,-4.3109,-4.2291,-4.1869,-4.1356,-4.0815,-4.0273,-4.007,-4.007,-4.007,-4.007,-4.007,-4.007,-4.007,-4.007,-4.0037,-3.9884,-3.9609,-3.9065,-3.8613,-3.8108,-3.7115,-3.6784,-3.6492,-3.5846,-3.5733,-3.5668,-3.5504,-3.5619,-3.5668,-3.5504,-3.5504,-3.5504,-3.5504,-3.5504,0.0,-3.5504,-3.5504,-3.5504,-3.5504,-3.5504,-3.5504,-3.5504,-3.5504,-3.5279,-3.4677,-3.3919,-3.3143,-3.2434,-3.1896,-3.1542,-3.1334,-3.1809,-3.2074,0.0,0.0,0.0,0.0,0.0,0.0,0.0,0.0,0.0,0.0,0.0,0.0,0.0,0.0,0.0,0.0,0.0,0.0,0.0,0.0,0.0,0.0,-4.2142,-4.3118,-4.3626,-4.4445,-4.5226,-4.5832,-4.5906,-4.5905,-4.5899,-4.5897,-4.6219,-4.6997,-4.7054,-4.7436,-4.8296,-4.8334,-4.8735,-4.9576,-4.9595,-4.9824,-5.0302,-4.9646,-4.9283,-4.9283,-4.8604,-4.8306,-4.8306,-4.8306,-4.8306,0.0,-4.8306,-4.8306,-4.8249,-4.7656,-4.6731,0.0,0.0,0.0,0.0,0.0,-4.2016,-4.1593,-4.1153,-4.0798,-4.0544,-4.0544,-4.0341,-4.0138,-4.046,-4.0544,-4.0544,-4.0544,-4.039,-3.9993,-3.8952,-3.8374,-3.7764,-3.6662,-3.6196,-3.591,-3.5569,-3.5504,-3.5504,-3.5504,-3.5504,0.0,-3.5504,-3.5504,-3.5504,-3.5504,-3.5504,-3.5504,-3.5504,-3.5504,-3.5504,-3.5504,-3.5504,-3.5504,-3.5504,-3.5504,0.0,0.0,0.0,-3.2861,-3.2146,-3.1676,0.0,0.0,0.0,-3.1942,-3.1676,0.0,0.0,0.0,-3.2607,-3.3185,0.0,0.0,0.0,0.0,0.0,0.0,0.0,0.0,0.0,0.0,0.0,0.0,0.0,0.0,0.0,0.0,-4.2552,-4.3704,-4.3704,-4.4543,-4.5323,-4.5831,-4.5972,-4.6181,-4.6569,-4.6699,-4.7059,-4.7895,-4.7952,-4.8315,-4.9194,0.0,0.0,0.0,0.0,-5.0302,-5.0302,-4.9646,-4.9283,-4.9283,-4.8604,-4.8306,-4.8306,-4.8306,-4.8306,-4.8306,-4.8306,-4.8306,-4.8267,-4.7572,-4.6864,-4.6073,-4.4883,-4.3649,-4.254,-4.2455,-4.2422,-4.2405,-4.232,0.0,0.0,-4.1322,-4.0882,-4.0443,-4.1119,-4.1322,-4.1322,-4.1322,-4.1165,-4.0628,-3.9112,-3.8148,-3.7345,-3.6507,-3.591,-3.5504,-3.5504,-3.5504,-3.5504,-3.5504,-3.5504,-3.5504,-3.5504,-3.5504,-3.5504,-3.5504,-3.5504,-3.5504,-3.5504,-3.5504,-3.5504,-3.5504,0.0,0.0,-3.5504,-3.5504,-3.5133,-3.4245,-3.3422,-3.2648,-3.2015,-3.1942,-3.1942,-3.1942,-3.1942,-3.1676,-3.0986,-3.0986,-3.0836,-3.0698,-3.1988,-3.2904,0.0,0.0,0.0,0.0,0.0,0.0,0.0,0.0,0.0,0.0,0.0,0.0,0.0,0.0,0.0,-4.1108,-4.2552,-4.3704,-4.3704,-4.5051,-4.6011,-4.5901,-4.6426,-4.6752,-4.6685,-4.7214,-4.7914,-4.8774,-4.885,-4.9213,-5.0015,-5.0073,-5.0149,-5.0302,-5.0302,-5.0302,-5.0302,-4.9646,-4.9283,-4.9283,0.0,0.0,-4.8306,-4.8306,-4.8306,-4.8306,-4.8306,-4.8306,-4.821,-4.7088,-4.5915,-4.4944,-4.4644,-4.4415,-4.4062,-4.3436,-4.32,-4.3115,-4.2506,-4.2202,-4.2083,-4.2083,-4.1982,-4.1897,-4.2033,-4.2083,0.0,-4.2083,-4.1476,-4.0533,-3.9224,-3.8175,-3.717,-3.5982,-3.5554,-3.5504,-3.5504,-3.5504,-3.5504,-3.5504,-3.5504,-3.5504,-3.5504,-3.5504,-3.5504,-3.5504,-3.5504,-3.5504,-3.5504,-3.5504,-3.5504,-3.5504,-3.5504,-3.5504,-3.5504,-3.5504,-3.492,-3.3492,-3.2173,-3.1334,-3.1185,-3.1185,-3.1185,-3.1185,-3.1185,-3.1048,-3.0773,-3.0773,-3.0546,-3.0228,-3.0646,-3.1516,0.0,0.0,0.0,0.0,0.0,0.0,0.0,0.0,0.0,0.0,0.0,-4.1108,0.0,0.0,-4.1244,-4.1674,-4.2845,-4.384,-4.4289,-4.5851,-4.6844,-4.6551,-4.6833,-4.7303,-4.7991,-4.8292,-4.8821,-4.9729,-4.9736,-4.9882,-5.0283,-5.0302,-5.0302,-5.0302,-4.9901,-4.9882,-5.0302,-4.9249,-4.8908,-4.9283,-4.8604,-4.8306,-4.8306,-4.8306,-4.8306,-4.8306,-4.8306,-4.8306,-4.821,-4.6937,-4.5681,-4.4587,-4.4587,-4.4587,-4.4536,-4.4147,-4.3995,-4.3944,-4.3572,-4.3183,-4.2861,-4.2861,-4.2591,-4.2354,-4.2743,-4.2861,-4.2861,-4.2861,-4.2132,-4.1053,-3.9714,-3.8403,-3.7177,-3.619,-3.5744,-3.5504,-3.5504,-3.5504,-3.5504,-3.5504,-3.5504,-3.5504,-3.5504,-3.5504,-3.5504,-3.5504,-3.5504,-3.5504,-3.5504,-3.5504,-3.5504,-3.5504,-3.5504,-3.524,-3.4543,-3.3535,-3.2652,-3.182,-3.0735,-3.0137,-3.0137,-3.0411,-3.0555,-3.0555,-3.0843,-3.0911,-3.0849,-3.0773,-3.0622,-3.0394,-3.0305,-3.0722,0.0,0.0,0.0,0.0,0.0,0.0,0.0,0.0,-4.1097,-4.1091,-4.1108,-4.1108,-4.1108,-4.1108,-4.1381,-4.2259,-4.3138,-4.4055,-4.5109,-4.6612,-4.7605,-4.7639,-4.7621,-4.8067,-4.9258,-4.935,-4.965,-5.0406,-5.0221,-5.0073,-5.0073,-4.992,-4.9805,-4.9805,-4.9347,-4.9404,-5.0054,-4.89,-4.8664,-4.9283,-4.8604,-4.8306,-4.8306,-4.8306,-4.8306,-4.8306,-4.8286,-4.8132,-4.7838,-4.6801,-4.5699,-4.4587,-4.4587,-4.4587,-4.4587,-4.4587,-4.4587,-4.4587,-4.4587,-4.4181,-4.3639,-4.3639,-4.3234,-4.2844,-4.3453,-4.3639,-4.3639,-4.3639,-4.2824,-4.1666,-4.0469,-3.8889,-3.7491,-3.682,-3.6163,-3.5699,-3.5699,-3.5594,-3.5504,-3.5504,-3.5504,-3.5504,-3.5504,-3.5504,-3.5504,-3.5504,-3.5504,-3.5504,-3.5504,-3.5504,-3.5504,-3.5504,-3.5385,-3.4753,-3.3412,-3.1668,-3.0515,-3.0378,-2.9741,-2.9327,-2.9444,-2.9889,-3.0189,-3.0294,-3.0751,-3.0986,-3.0911,-3.0685,-3.0622,-3.0546,-3.0164,-3.0355,-4.1074,-4.1108,-4.1093,-4.1033,-4.1054,-4.1099,0.0,0.0,-4.1091,-4.1108,-4.1108,-4.1108,-4.1108,-4.1108,-4.1381,-4.2259,-4.3138,-4.427,-4.5929,-4.6983,-4.8084,-4.942,-4.9431,-4.9316,-4.9298,-4.9825,-5.021,-5.0306,-4.9656,-4.9232,-4.9232,-4.8506,-4.8086,-4.8086,-4.8735,-4.9137,-4.9232,-4.9192,-4.9208,-4.9283,-4.8604,-4.8306,-4.8306,-4.8306,-4.8306,-4.8306,-4.8265,-4.7591,-4.6618,-4.6371,-4.5631,-4.4587,-4.4587,-4.4587,-4.4587,-4.4587,-4.4587,-4.4587,-4.4587,-4.4519,-4.4451,-4.4451,-4.4401,-4.4333,-4.4418,-4.4451,-4.4451,-4.4451,-4.3429,-4.2042,-4.1146,-3.971,-3.8325,-3.7518,-3.6821,-3.6372,-3.6372,-3.5923,-3.5504,-3.5504,-3.5504,-3.5504,-3.5504,-3.5504,-3.5504,-3.5504,-3.5504,-3.5504,-3.5504,-3.5504,-3.5504,-3.5504,-3.4966,-3.404,-3.2713,-3.1823,-3.1054,-3.0446,-2.9741,-2.951,-3.0019,-3.0098,-3.0372,-3.0882,-3.096,-3.0823,-3.0444,-3.0444,-3.0228,-2.9869,-2.9869,-3.0292,-4.1019,-4.1019,-4.1006,0.0,-4.1087,-4.1094,-4.1094,-4.1091,-4.1108,-4.1108,-4.1108,-4.1108,-4.1108,-4.1108,-4.1557,0.0,-4.345,-4.4484,-4.6749,-4.7764,-4.8523,-4.9122,-4.9517,-4.9867,-5.0252,-4.9933,-4.9754,-4.9836,-4.8903,-4.8334,-4.8334,-4.8009,-4.8028,-4.8544,-4.843,-4.8812,-4.9786,-4.9022,-4.8852,-4.9283,-4.8604,-4.8306,-4.8306,-4.8306,-4.8306,-4.8306,-4.8226,-4.7506,-4.6383,-4.6341,-4.5631,-4.4587,-4.4587,-4.4587,-4.4587,-4.4587,-4.4587,-4.4587,-4.4587,-4.4587,-4.4587,-4.4587,-4.4587,-4.4587,-4.4587,-4.4587,-4.4587,-4.4587,-4.3486,-4.2204,-4.1693,-4.0126,-3.8557,-3.8117,-3.7494,-3.6926,-3.6567,-3.6267,-3.5968,-3.5579,-3.5504,-3.5504,-3.5504,-3.5504,-3.5504,-3.5504,-3.5504,-3.5355,-3.4966,-3.4906,-3.4756,-3.4382,-3.3054,-3.1959,-3.1354,-2.9983,-2.9026,-2.8758,-2.8763,-2.8869,-2.9104,-2.9771,-3.0168,-3.0316,-3.0667,-3.0685,-3.0368,-3.0292,-3.0152,-2.9934,-2.9869,-3.0011,-4.0964,0.0,0.0,-4.1055,-4.1084,-4.1091,-4.1094,-4.1094,-4.1108,-4.1108,-4.1108,-4.1108,-4.1108,-4.1108,-4.1674,-4.3411,-4.3899,-4.4972,-4.7569,-4.8424,-4.885,-4.9048,-4.9322,-4.9709,-5.0287,-4.95,-4.8971,-4.9083,-4.8065,-4.7455,-4.7455,-4.7455,-4.7742,-4.8353,-4.8239,-4.8735,-4.9958,-4.8938,-4.872,-4.9283,-4.8604,-4.8306,-4.8306,-4.8306,-4.8267,-4.8286,-4.8169,-4.7464,-4.6353,-4.6293,-4.558,-4.4587,-4.4587,-4.4587,-4.4587,-4.4587,-4.4587,-4.4587,-4.4587,-4.4587,-4.4587,-4.4587,-4.4587,-4.4587,-4.4587,-4.4587,-4.4587,-4.4587,-4.3545,-4.2332,-4.2062,-4.0551,-3.8973,-3.8747,-3.8153,-3.7554,-3.7105,-3.6866,-3.6552,-3.5893,-3.5774,-3.5714,-3.5534,-3.5504,-3.5504,-3.5504,-3.534,-3.504,-3.4547,-3.4322,-3.3948,-3.3305,-3.1743,-3.0616,-3.0256,-2.8698,-2.7723,-2.7523,-2.8072,-2.8451,-2.8621,-2.9601,-3.0056,-3.0051,-3.0478,-3.0533,-3.0292,-3.0152,-3.0075,-3.0011,-2.9869,-2.9792,0.0,0.0,-4.1009,-4.099,-4.1053,-4.1108,-4.1108,-4.1108,-4.1108,-4.1108,-4.1108,-4.1108,-4.1108,-4.1108,-4.1674,-4.3411,-4.4406,-4.5851,-4.8408,-4.8782,-4.9087,-4.9866,-4.9242,-4.872,0.0,-4.8298,-4.8029,-4.8048,-4.7101,-4.6538,-4.6538,-4.6538,-4.6557,-4.6577,-4.8181,-4.9079,-4.9137,-4.923,-4.9265,-4.9283,-4.8604,-4.8306,-4.8306,-4.8306,-4.8286,-4.8187,-4.8032,-4.7335,-4.631,-4.6165,-4.5494,-4.4587,-4.4587,-4.4587,-4.4587,-4.4587,-4.4587,-4.4587,-4.4587,-4.4587,-4.4587,-4.4587,-4.4587,-4.4587,-4.4587,-4.4587,-4.4587,-4.4587,-4.3604,-4.2395,-4.2062,-4.0992,-3.9824,-3.9451,-3.8856,-3.8347,-3.8332,-3.7823,-3.7195,-3.6582,-3.6462,-3.6252,-3.5609,-3.5504,-3.5504,-3.5504,-3.4936,-3.4502,-3.4472,-3.3918,-3.3275,-3.2617,-3.1865,-3.096,-2.9651,-2.8853,-2.8157,-2.7523,-2.8072,-2.8634,-2.9222,-2.9823,-3.0251,-3.0659,-3.0685,-3.0546,-3.0075,-3.0075,-3.0011,-2.9792,-2.9792,-2.9792,-4.0882,0.0,-4.0957,-4.1034,-4.108,-4.1108,-4.1108,-4.1108,-4.1108,-4.1108,-4.1108,-4.1108,-4.1108,-4.1576,-4.2533,-4.4289,-4.5285,-4.655,-4.8528,-4.8811,-4.8665,-4.8327,-4.7933,0.0,0.0,0.0,0.0,-4.7272,-4.6301,-4.5946,-4.6481,-4.65,-4.7035,-4.8181,-4.8793,-4.9347,-4.9882,-4.9495,-4.9283,-4.9283,-4.8604,-4.8306,-4.8306,-4.8306,-4.8247,-4.8187,-4.805,-4.7542,-4.6799,-4.631,-4.5716,-4.5035,-4.472,-4.4587,-4.4587,-4.4587,-4.4587,-4.4587,-4.4587,-4.4587,-4.4587,-4.4587,-4.4587,-4.4587,-4.4587,-4.4587,-4.4587,-4.4587,-4.3604,-4.2442,-4.2062,-4.1008,-3.9925,-3.9496,-3.9245,-3.8945,-3.8497,-3.8212,-3.7868,-3.7225,-3.6761,-3.6417,-3.6193,-3.5789,-3.5355,-3.4891,-3.4262,-3.3664,-3.323,-3.2211,-3.1394,-3.1188,-3.0154,-2.9315,-2.8853,-2.8222,-2.7881,-2.8072,-2.8647,-2.9164,-2.958,-3.0177,-3.0428,-3.0305,-3.0305,-3.0164,-2.9856,-2.9856,-2.9869,-2.9792,-2.9792,-2.9792,-4.0877,-4.0916,-4.0952,-4.1072,-4.1097,-4.1108,-4.1108,-4.1108,-4.1108,-4.1108,-4.1108,-4.1205,-4.1518,-4.2025,-4.3079,-4.5129,-4.5929,-4.6897,-4.8552,-4.8502,-4.808,-4.7473,-4.7028,-4.6557,0.0,0.0,0.0,-4.6471,-4.5995,-4.5946,-4.6481,-4.7092,-4.7933,-4.906,-4.9366,-4.9786,-5.0283,-4.9646,-4.9158,-4.8949,-4.8532,-4.8306,-4.8306,-4.8306,-4.8247,-4.813,-4.805,-4.7627,-4.6954,-4.6358,-4.58,-4.5267,-4.4759,-4.4587,-4.4587,-4.4587,-4.4587,-4.4536,-4.4265,-4.4164,-4.4164,-4.4164,-4.4164,-4.4215,-4.4485,-4.4587,-4.4587,-4.4587,-4.3739,-4.2691,-4.2125,-4.1194,-4.0176,-3.9553,-3.9424,-3.929,-3.8856,-3.8751,-3.8556,-3.7883,-3.724,-3.6746,-3.6522,-3.5938,-3.5265,-3.4577,-3.4113,-3.3529,-3.2632,-3.1558,-3.0771,-3.0539,-2.9282,-2.8481,-2.8481,-2.7908,-2.7771,-2.8347,-2.8877,-2.9392,-2.9779,-3.0299,-3.0457,-3.0075,-3.0075,-3.0011,-2.9792,-2.9792,-2.9792,-2.9792,-2.9792,-2.9792,-4.0882,-4.0939,-4.1019,-4.1074,-4.1107,-4.1108,-4.1108,-4.1108,-4.1108,-4.1108,-4.1108,-4.1361,0.0,0.0,-4.3372,-4.5948,-4.6436,-4.7034,-4.8571,-4.8029,-4.7428,0.0,0.0,0.0,0.0,0.0,0.0,-4.5758,0.0,-4.6538,-4.6634,-4.82,-4.9117,-4.9156,-4.9901,-5.0302,-5.0302,-4.9646,-4.8949,-4.8306,-4.8306,-4.8306,-4.8306,-4.8306,-4.819,-4.7992,-4.7992,-4.7585,-4.6863,-4.631,-4.58,-4.5267,-4.4759,-4.4587,-4.4587,-4.4587,-4.4553,-4.4401,-4.3623,-4.3386,-4.3403,-4.3369,-4.3352,-4.3504,-4.4282,-4.4519,-4.4536,-4.457,-4.4047,-4.3257,-4.2252,-4.1494,-4.0684,-3.961,-3.9424,-3.9424,-3.9424,-3.9424,-3.923,-3.8571,-3.7883,-3.721,-3.6552,-3.5923,-3.528,-3.4622,-3.4532,-3.4053,-3.2736,-3.1909,-3.1264,-3.0565,-2.9275,-2.8509,-2.8481,-2.7842,-2.7785,-2.8386,-2.8763,-2.9261,-2.9831,-3.0224,-3.0292,-3.0075,-3.0075,-3.0011,-2.9792,-2.9792,-2.9792,-2.9792,-2.9792,-2.9792,-4.0964,-4.098,-4.1019,-4.1074,-4.1103,-4.1108,-4.1108,-4.1108,-4.1108,-4.1108,-4.1108,-4.1361,0.0,0.0,0.0,-4.6944,-4.8318,0.0,-4.8756,-4.8518,0.0,-4.6513,0.0,-4.58,-4.5893,-4.614,0.0,0.0,-4.6471,-4.7073,-4.8372,-4.885,-4.9366,-4.9977,-5.0187,-5.0302,-5.0302,-4.9646,-4.8949,-4.8306,-4.8306,-4.8306,-4.8306,-4.8306,-4.819,-4.7992,-4.7992,-4.7585,-4.6863,-4.631,-4.58,-4.5267,-4.4759,-4.4587,-4.4587,-4.4587,-4.4215,-4.3606,-4.2844,-4.2946,-4.3318,-4.276,-4.2574,-4.2726,-4.3487,-4.3724,-4.3842,-4.4418,-4.3722,-4.2629,-4.2125,-4.1127,-4.0121,-3.9568,-3.9424,-3.9424,-3.9424,-3.9424,-3.9364,-3.9185,-3.8212,-3.706,-3.5953,-3.5609,-3.5444,-3.5265,-3.525,-3.4756,-3.3425,-3.2193,-3.1168,-3.058,-2.925,-2.8251,-2.7815,-2.759,-2.7968,-2.8987,-2.9067,-2.937,-3.0175,-3.0215,-3.0075,-2.9869,-2.9869,-2.9869,-2.9792,-2.9792,-2.9792,-2.9792,-2.9792,-2.9792,-4.0983,-4.1016,-4.1051,-4.1093,-4.1108,-4.1108,-4.1108,-4.1108,-4.1108,-4.1108,-4.1108,0.0,-4.2747,0.0,0.0,0.0,0.0,0.0,-4.8772,-4.8368,-4.7592,0.0,-4.5886,0.0,-4.5805,-4.6333,-4.6819,0.0,-4.7461,-4.8067,-4.9041,-4.9423,-4.9824,-5.0283,-5.0302,-5.0144,-4.9857,-4.9333,-4.8832,-4.8306,-4.8306,-4.8306,-4.8306,-4.8306,-4.819,-4.7992,0.0,-4.7585,-4.6863,-4.631,-4.58,-4.5233,-4.4385,-4.4062,-4.4028,-4.369,-4.3301,-4.2811,-4.2066,-4.21,-4.2388,-4.1948,-4.1813,-4.1948,-4.2692,-4.2913,-4.3026,-4.3518,-4.3102,-4.2332,-4.1755,-4.1008,-4.0231,-3.9553,-3.9424,-3.9424,-3.9424,-3.9424,-3.9245,-3.8646,-3.7704,-3.6686,-3.5669,-3.5504,-3.5359,-3.5052,-3.4971,-3.4574,-3.35,-3.2497,-3.1489,-3.053,-2.9187,-2.8242,-2.7928,-2.7667,-2.802,-2.9209,-2.8977,-2.9263,-3.0393,-3.0152,-2.9934,-2.9792,-2.9792,-2.9792,-2.9792,-2.9792,-2.9792,-2.9792,-2.9792,-2.9792,-4.1007,-4.1064,-4.1093,-4.1092,-4.1091,-4.1108,-4.1108,-4.1108,-4.1108,-4.1108,0.0,-4.1635,-4.3372,-4.4504,-4.598,-4.8391,0.0,-4.9023,-4.8738,-4.803,-4.7174,-4.6124,-4.5986,-4.5917,-4.5731,-4.6532,-4.726,-4.7764,-4.8716,-4.9251,-4.9251,-4.992,-5.0302,-5.0302,-5.0278,-4.9929,-4.9333,-4.8967,-4.8623,-4.8306,-4.8306,-4.8306,-4.8306,-4.8267,-4.819,-4.7992,0.0,0.0,-4.6593,-4.6046,-4.5453,-4.48,-4.3722,-4.3267,-4.32,-4.254,-4.2236,-4.2049,-4.1424,-4.1136,-4.1052,-4.1052,-4.1052,-4.1187,-4.1931,-4.2122,-4.2146,-4.2328,-4.2348,-4.2013,-4.1229,-4.094,-4.0585,-3.9505,-3.929,-3.926,-3.917,-3.9155,-3.8781,-3.7524,-3.6851,-3.6282,-3.5624,-3.5504,-3.5279,-3.4528,-3.438,-3.4027,-3.3283,-3.268,-3.1861,-3.0527,-2.9326,-2.8543,-2.8399,-2.7928,-2.8111,-2.9209,-2.8808,-2.9164,-3.0317,-3.0011,-2.9792,-2.9792,-2.9792,-2.9792,-2.9792,-2.9792,-2.9792,-2.9792,-2.9792,-2.9792,-4.1073,-4.1093,-4.1092,-4.1093,-4.1105,-4.1108,-4.1108,-4.1108,0.0,0.0,-4.1108,-4.1635,-4.3372,-4.4992,-4.6663,-4.8488,0.0,0.0,0.0,0.0,-4.7794,0.0,0.0,0.0,0.0,0.0,0.0,0.0,0.0,-5.0092,-5.0092,-5.0225,-5.0302,-5.0302,-5.0025,-4.9702,-4.9283,-4.8967,-4.8623,-4.8306,-4.8306,-4.8306,-4.8306,-4.8247,-4.813,-4.7955,-4.7256,0.0,-4.5276,-4.453,-4.364,-4.2802,-4.2594,-4.2489,-4.2472,-4.2337,-4.1914,-4.1373,-4.1238,-4.0798,-4.0273,-4.0273,-4.0273,-4.0409,-4.117,-4.107,-4.0895,-4.2047,-4.1671,-4.0863,-4.0986,-4.0562,-3.9899,-3.8847,-3.8571,-3.8422,-3.7883,-3.7764,-3.7539,-3.6791,-3.6552,-3.6282,-3.5624,-3.5504,-3.5424,-3.5279,-3.4758,-3.4027,-3.3283,-3.2566,-3.1837,-3.111,-3.0294,-2.9431,-2.8464,-2.8281,-2.8473,-2.9035,-2.8749,-2.9103,-3.0101,-2.9934,-2.9792,-2.9792,-2.9792,-2.9792,-2.9792,-2.9792,-2.9792,-2.9792,-2.9792,-2.9792,-4.1092,-4.1108,-4.1105,-4.1091,-4.1103,-4.1108,-4.1108,0.0,0.0,0.0,-4.1108,-4.1635,-4.3372,-4.5102,0.0,-4.8527,0.0,0.0,0.0,0.0,0.0,0.0,0.0,0.0,0.0,0.0,0.0,0.0,0.0,-4.9862,-5.0283,-5.0302,-5.0302,-5.0302,-4.9803,-4.9453,-4.9283,-4.8797,-4.8458,-4.8306,-4.7846,-4.7606,-4.7606,-4.7069,-4.6809,-4.6673,-4.627,0.0,-4.4343,-4.3974,-4.3192,-4.2252,-4.188,-4.1728,-4.1677,-4.1288,-4.0916,-4.0629,-4.0629,-4.0392,-4.007,-4.007,-4.007,-4.0155,-4.051,-4.0254,-3.9951,-4.0582,-4.0158,-3.9492,-3.9437,-3.9207,-3.8804,-3.8027,-3.7883,-3.7793,-3.7479,-3.715,-3.6851,-3.6552,-3.6207,-3.5717,-3.503,-3.4905,-3.4624,-3.3865,-3.3422,-3.2918,-3.2173,-3.175,-3.1422,-3.1143,-3.0513,-2.9784,-2.8922,-2.8499,-2.8438,-2.8977,-2.869,-2.8969,-3.0037,-2.9934,-2.9792,-2.9792,-2.9792,-2.9792,-2.9792,-2.9792,-2.9792,-2.9792,-2.9792,-2.9792,-4.1107,-4.1101,-4.1094,-4.1107,-4.1101,-4.1108,-4.1108,-4.1108,0.0,0.0,-4.1108,-4.1693,-4.3599,-4.5182,-4.6825,0.0,-5.0244,0.0,0.0,0.0,0.0,0.0,0.0,0.0,0.0,0.0,0.0,0.0,0.0,0.0,-5.0245,-5.0302,-5.0302,-5.0302,-4.9476,-4.902,-4.902,-4.8214,-4.7792,-4.7792,-4.7093,-4.6762,-4.6705,-4.5933,-4.5488,-4.533,-4.5128,0.0,0.0,-4.3255,-4.261,-4.1762,-4.1187,-4.0967,-4.0882,-4.029,-4.007,-4.007,-4.007,-4.007,-4.007,-4.007,-4.007,-4.0087,-3.9969,-3.9516,-3.9095,-3.9065,-3.87,-3.8258,-3.8044,-3.8007,-3.791,-3.7323,-3.7105,-3.7,-3.7,-3.6626,-3.6282,-3.6282,-3.5863,-3.5279,-3.4677,-3.438,-3.3891,-3.2777,-3.229,-3.1869,-3.1334,-3.1123,-3.0986,-3.0986,-3.0594,-3.0085,-2.951,-2.8898,-2.8692,-2.9086,-2.8809,-2.9048,-2.996,-2.9869,-2.9792,-2.9792,-2.9792,-2.9792,-2.9792,-2.9792,-2.9792,-2.9792,-2.9792,-2.9792,-4.1091,-4.1091,-4.1111,-4.1091,-4.1091,-4.1108,-4.1108,0.0,0.0,-4.1108,-4.1108,-4.1862,-4.4334,-4.5557,-4.6982,0.0,0.0,-5.0588,0.0,0.0,0.0,0.0,0.0,0.0,0.0,0.0,0.0,0.0,0.0,0.0,-5.0206,-5.0302,-5.0302,-5.0302,-4.8937,-4.8224,-4.8224,-4.6808,-4.6122,-4.6122,-4.5956,-4.59,-4.59,-4.5638,-4.5291,-4.4833,-4.3972,0.0,0.0,-4.1397,-4.0786,-4.0273,-4.0206,-4.0172,-4.0172,-4.0104,-4.007,-4.007,-4.007,-4.007,-4.007,-4.007,-4.007,-4.002,-3.947,-3.8843,-3.8407,-3.8495,-3.8075,-3.7674,-3.7922,-3.8007,-3.7788,-3.6783,-3.6118,-3.5684,-3.5684,-3.5639,-3.5594,-3.5594,-3.5549,-3.5504,-3.5424,-3.4758,-3.4245,-3.4095,-3.2989,-3.2087,-3.2015,-3.1394,-3.0986,-3.0986,-3.0934,-3.0673,-3.0111,-2.9933,-2.9775,-2.9459,-2.9385,-2.9516,-2.9844,-2.9792,-2.9792,-2.9792,-2.9792,-2.9792,-2.9792,-2.9792,-2.9792,-2.9792,-2.9792,-2.9792,-4.1108,-4.1108,-4.1108,-4.1108,-4.1108,-4.1108,-4.1108,0.0,-4.1108,-4.1108,-4.1101,-4.171,-4.3748,-4.5235,-4.6816,0.0,0.0,0.0,0.0,0.0,0.0,0.0,0.0,0.0,0.0,0.0,0.0,0.0,0.0,0.0,-4.8774,-4.8812,-4.8812,-4.8812,-4.7878,-4.7398,-4.7398,-4.64,-4.5902,-4.5883,-4.526,-4.4967,-4.493,-4.4231,-4.3668,-4.3209,-4.2846,0.0,0.0,-4.0922,-4.0531,-4.007,-4.007,-4.007,-4.007,-4.007,-4.007,-4.007,-4.007,-4.007,-4.007,-4.007,-3.985,-3.9523,-3.9259,-3.8518,-3.7743,-3.7793,-3.7358,-3.689,-3.6782,-3.6678,-3.6421,-3.6019,-3.5699,-3.5504,-3.5504,-3.5504,-3.5504,-3.5504,-3.5133,-3.4624,-3.4206,-3.3492,-3.2847,-3.2376,-3.1809,-3.1468,-3.1468,-3.1198,-3.0986,-3.0986,-3.0986,-3.0764,-3.0176,-2.9978,-2.9818,-2.9535,-2.9374,-2.9479,-2.9767,-2.9792,-2.9792,-2.9792,-2.9792,-2.9792,-2.9792,-2.9792,-2.9792,-2.9792,-2.9792,-2.9792,-4.1091,-4.1108,-4.1108,-4.1108,-4.1108,-4.1108,0.0,0.0,-4.1108,-4.1108,-4.1094,-4.1696,-4.3635,-4.5141,-4.6755,0.0,0.0,-4.9612,-4.8798,0.0,0.0,0.0,0.0,0.0,0.0,0.0,0.0,0.0,0.0,0.0,-4.7054,-4.7054,-4.7302,-4.778,-4.6989,-4.6552,-4.6552,-4.5642,-4.5186,-4.5186,-4.4419,-4.4035,-4.4017,-4.3267,-4.2577,-4.1973,0.0,0.0,0.0,-4.058,-4.0402,-4.007,-4.007,-4.007,-4.007,-4.007,-4.007,-4.007,-4.007,-3.9969,-3.985,-3.985,-3.9295,-3.8645,-3.8645,-3.8084,-3.7358,-3.7178,-3.6769,-3.6304,-3.6037,-3.5733,-3.5504,-3.5504,-3.5504,-3.5504,-3.5504,-3.5504,-3.5504,-3.5504,-3.4839,-3.4109,-3.363,-3.2706,-3.1942,-3.1394,-3.1123,-3.0986,-3.0986,-3.0986,-3.0986,-3.0986,-3.0986,-3.083,-3.0424,-3.0069,-2.9822,-2.9766,-2.9463,-2.9403,-2.9767,-2.9792,-2.9792,-2.9792,-2.9792,-2.9792,-2.9792,-2.9792,-2.9792,-2.9792,-2.9546,-2.9287,-4.1094,-4.1108,-4.1108,-4.1108,-4.1108,-4.1108,0.0,0.0,-4.1108,-4.1108,-4.1094,-4.1886,-4.4416,-4.5554,-4.6931,-4.9465,0.0,0.0,-4.8716,0.0,0.0,0.0,0.0,0.0,0.0,0.0,0.0,0.0,0.0,0.0,-4.5316,-4.5316,-4.608,-4.7761,-4.6441,-4.5707,-4.5707,-4.4253,-4.3516,-4.3516,-4.3322,-4.3214,-4.3214,-4.3013,-4.24,0.0,0.0,0.0,0.0,-4.0138,-4.0121,-4.007,-4.007,-4.007,-4.007,-4.007,-4.007,-4.007,-4.007,-3.9696,-3.9206,-3.9206,-3.8423,-3.7417,-3.7417,-3.7417,-3.7298,-3.6662,-3.6304,-3.5973,-3.5973,-3.5733,-3.5504,-3.5504,-3.5504,-3.5504,-3.5504,-3.5504,-3.5504,-3.5504,-3.4839,-3.4312,-3.4312,-3.3059,-3.2074,-3.2074,-3.1468,-3.0986,-3.0986,-3.0986,-3.0986,-3.0986,-3.0986,-3.0986,-3.0973,-3.0451,-3.0151,-3.0393,-2.9843,-2.9567,-2.9767,-2.9792,-2.9792,-2.9792,-2.9792,-2.9792,-2.9792,-2.9792,-2.9792,-2.9792,-2.8961,-2.8051,-4.1091,-4.1108,-4.1108,-4.1108,-4.1097,-4.109,-4.1104,0.0,-4.1261,-4.1866,-4.1944,-4.2513,-4.4476,-4.5492,-4.6697,-4.8677,-4.8502,0.0,0.0,0.0,0.0,0.0,0.0,0.0,0.0,0.0,0.0,0.0,0.0,0.0,-4.5297,-4.5087,-4.5293,-4.608,-4.5268,-4.4824,-4.4824,-4.3939,-4.3497,-4.3497,-4.3411,-4.3305,-4.3214,-4.3086,0.0,0.0,0.0,0.0,0.0,-4.0221,-4.007,-4.007,-4.007,-4.007,-4.007,-4.007,-4.007,-4.007,-4.007,-3.9696,-3.9206,-3.9206,-3.8351,-3.7417,-3.7417,-3.7134,-3.6723,-3.6554,-3.6241,-3.5973,-3.5973,-3.5733,-3.5504,-3.5504,-3.5504,-3.5504,-3.5504,-3.5504,-3.5359,-3.4758,-3.4056,-3.3422,-3.2847,-3.2015,-3.1334,-3.1334,-3.1123,-3.0986,-3.0986,-3.0986,-3.0986,-3.0986,-3.0986,-3.0986,-3.0986,-3.0464,-3.0151,-3.0406,-2.9843,-2.9567,-2.9767,-2.9792,-2.9792,-2.9792,-2.9792,-2.9792,-2.9792,-2.9792,-2.9456,-2.8882,-2.7971,-2.7058,0.0,-4.1108,-4.1108,-4.1101,-4.1105,0.0,0.0,0.0,-4.1797,-4.2674,-4.2806,-4.316,-4.4556,-4.5464,-4.6463,-4.7881,-4.7648,0.0,0.0,0.0,0.0,0.0,0.0,0.0,0.0,0.0,0.0,0.0,0.0,0.0,-4.5297,-4.4981,-4.491,-4.5109,-4.4538,-4.425,-4.425,-4.3744,-4.3497,-4.3497,-4.3358,-4.3286,-4.3214,-4.3068,0.0,0.0,0.0,0.0,0.0,-4.0303,-4.007,-4.007,-4.007,-4.007,-4.007,-4.007,-4.007,-4.007,-4.007,-3.9575,-3.8865,-3.8865,-3.801,-3.7074,-3.7074,-3.6785,-3.6492,-3.6414,-3.6226,-3.5973,-3.5894,-3.5668,-3.5504,-3.5504,-3.5504,-3.5439,-3.5118,-3.5052,-3.4839,-3.4041,-3.3283,-3.2648,-3.2146,-3.1468,-3.0986,-3.0986,-3.0986,-3.0986,-3.0986,-3.0986,-3.0986,-3.0986,-3.0986,-3.0986,-3.0986,-3.0181,-2.9826,-3.001,-2.9461,-2.9187,-2.944,-2.9679,-2.9792,-2.9792,-2.9792,-2.9792,-2.9792,-2.9456,-2.887,-2.7971,-2.7058,-2.6163,0.0,-4.1147,0.0,0.0,0.0,0.0,0.0,0.0,0.0,-4.352,-4.3646,-4.3867,-4.4723,-4.5502,-4.6288,-4.7162,-4.7259,0.0,0.0,0.0,0.0,0.0,0.0,0.0,0.0,0.0,0.0,0.0,0.0,0.0,-4.5275,-4.4957,-4.4751,-4.4726,-4.425,-4.3974,-4.4005,-4.3649,-4.3497,-4.3497,-4.3268,-4.316,-4.3123,-4.2957,0.0,0.0,0.0,0.0,0.0,-4.0303,-4.007,-4.007,-4.007,-4.007,-4.007,-4.007,-4.007,-4.007,-4.007,-3.9295,-3.8294,-3.8165,-3.7385,-3.6492,-3.6492,-3.6492,-3.6492,-3.6274,-3.6085,-3.5973,-3.5752,-3.5604,-3.5504,-3.5504,-3.5504,-3.5279,-3.4461,-3.4312,-3.4109,-3.3283,-3.2577,-3.2074,-3.2015,-3.1468,-3.0986,-3.0986,-3.0986,-3.0986,-3.0986,-3.0986,-3.0986,-3.0986,-3.0986,-3.096,-3.0934,-2.9744,-2.9137,-2.9497,-2.8753,-2.8482,-2.89,-2.9453,-2.9754,-2.9792,-2.9714,-2.9702,-2.9624,-2.8712,-2.7891,-2.6987,-2.6069,-2.5253,-4.1909,0.0,-4.1257,-4.1935,-4.2052,-4.2233,0.0,0.0,0.0,0.0,0.0,-4.4753,-4.558,-4.5871,-4.6288,-4.7162,-4.6735,-4.6488,-4.7029,0.0,0.0,0.0,0.0,0.0,0.0,0.0,0.0,0.0,0.0,-4.5194,-4.4934,-4.465,-4.4402,-4.421,-4.3828,-4.3749,-4.4005,-4.3634,-4.3411,-4.3411,-4.3286,-4.2995,-4.2595,-4.2555,0.0,0.0,0.0,0.0,-4.0754,-4.0303,-4.007,-4.007,-4.007,-4.007,-4.007,-4.007,-4.007,-4.007,-4.007,-3.9295,-3.8181,-3.7222,-3.6708,-3.6492,-3.6492,-3.6492,-3.6492,-3.6414,-3.6226,-3.5973,-3.5973,-3.5733,-3.5504,-3.5504,-3.5504,-3.5279,-3.4461,-3.4312,-3.3891,-3.2648,-3.2218,-3.1942,-3.1334,-3.1123,-3.0986,-3.0986,-3.0986,-3.0986,-3.0986,-3.0986,-3.0986,-3.0986,-3.0986,-3.0803,-3.0372,-2.9522,-2.9137,-2.9497,-2.8397,-2.8151,-2.8888,-2.9063,-2.934,-2.9779,-2.9131,-2.8462,-2.7718,-2.6894,-2.6318,-2.6069,-2.5179,-2.47,-4.2719,-4.2329,-4.1886,-4.2695,-4.2875,-4.3078,-4.3953,0.0,0.0,0.0,0.0,-4.5483,-4.5929,-4.5964,-4.6127,-4.6607,-4.622,0.0,0.0,0.0,0.0,0.0,0.0,0.0,0.0,0.0,0.0,0.0,0.0,-4.5132,-4.4819,-4.4546,-4.4279,-4.4005,-4.3682,-4.3582,-4.3781,-4.3497,-4.3394,-4.3394,-4.3233,-4.29,-4.2378,-4.2338,-4.2015,0.0,0.0,0.0,-4.0754,-4.0303,-4.007,-4.007,-4.007,-4.007,-4.007,-4.007,-3.9901,-3.9696,-3.9696,-3.892,-3.7738,-3.6769,-3.6492,-3.6492,-3.6492,-3.6414,-3.6352,-3.6289,-3.6163,-3.5973,-3.5797,-3.5619,-3.5504,-3.5504,-3.5504,-3.5213,-3.4056,-3.3837,-3.3353,-3.1882,-3.1603,-3.1468,-3.1048,-3.0986,-3.0986,-3.0986,-3.0986,-3.0986,-3.0986,-3.0986,-3.0882,-3.062,-3.0594,-3.0285,-2.9626,-2.8912,-2.8576,-2.8741,-2.799,-2.77,-2.8147,-2.8411,-2.8812,-2.939,-2.8827,-2.8211,-2.7718,-2.64,-2.5819,-2.5746,-2.4946,-2.454,-4.3799,-4.3475,-4.3072,-4.3572,-4.3703,-4.3927,-4.4783,0.0,0.0,0.0,0.0,0.0,0.0,-4.5949,0.0,0.0,0.0,0.0,0.0,0.0,0.0,0.0,0.0,0.0,0.0,0.0,0.0,0.0,0.0,-4.5045,-4.472,-4.4465,-4.4221,-4.3942,-4.3649,-4.3497,-4.3497,-4.3411,-4.3376,-4.3359,-4.3178,-4.2786,-4.2257,-4.2157,-4.1803,0.0,0.0,0.0,-4.0676,-4.0254,-4.007,-4.007,-4.007,-4.007,-4.007,-4.007,-3.9696,-3.9152,-3.8974,-3.8254,-3.7298,-3.6723,-3.6492,-3.6492,-3.6492,-3.6352,-3.6148,-3.6037,-3.5973,-3.591,-3.5619,-3.5424,-3.5294,-3.5294,-3.5213,-3.4787,-3.3367,-3.3003,-3.2662,-3.1259,-3.0986,-3.0986,-3.0986,-3.0986,-3.0986,-3.0986,-3.0908,-3.0856,-3.0856,-3.0777,-3.0542,-3.0059,-3.0006,-2.9686,-2.8957,-2.8267,-2.7818,-2.7729,-2.7366,-2.7193,-2.7126,-2.7651,-2.8015,-2.8235,-2.8065,-2.7933,-2.7773,-2.6284,-2.5579,-2.5579,-2.4861,-2.454,-4.5682,-4.5635,-4.5382,-4.477,-4.4598,-4.4802,-4.5627,0.0,0.0,0.0,0.0,0.0,0.0,-4.596,-4.5964,0.0,0.0,0.0,0.0,0.0,0.0,0.0,0.0,0.0,0.0,0.0,0.0,0.0,0.0,-4.4669,-4.4151,-4.4079,-4.3923,-4.3582,-4.3532,-4.3497,-4.3497,-4.3322,-4.3251,-4.3251,-4.3013,-4.2498,-4.163,-4.163,-4.1139,0.0,0.0,-4.0221,-4.0221,-4.0121,-4.007,-4.007,-4.007,-4.007,-4.007,-4.007,-3.9696,-3.9028,-3.8026,-3.7578,-3.7298,-3.6723,-3.6492,-3.6492,-3.6492,-3.6352,-3.6148,-3.6037,-3.5894,-3.5752,-3.5688,-3.5073,-3.4461,-3.4461,-3.3988,-3.3297,-3.2434,-3.229,-3.2015,-3.1198,-3.0986,-3.0986,-3.0986,-3.0986,-3.0986,-3.0986,-3.0581,-3.0268,-3.0268,-2.9836,-2.951,-2.9418,-2.9405,-2.9099,-2.8304,-2.8035,-2.7639,-2.6947,-2.6716,-2.6499,-2.6299,-2.6809,-2.6498,-2.5206,-2.5541,-2.5322,-2.4626,-2.4682,-2.47,-2.47,-2.454,-2.454,-4.733,-4.7446,-4.7232,-4.6377,-4.5803,-4.555,-4.5919,0.0,0.0,0.0,0.0,0.0,0.0,0.0,-4.5766,-4.5599,0.0,0.0,0.0,0.0,0.0,0.0,0.0,0.0,0.0,0.0,0.0,0.0,0.0,0.0,-4.4036,-4.4005,-4.3814,-4.3446,-4.3446,-4.3393,-4.3339,-4.3214,-4.3142,-4.3196,-4.275,-4.2139,-4.1481,-4.123,-4.0737,-4.007,0.0,-4.007,-4.007,-4.007,-4.007,-4.007,-4.007,-3.9918,-3.9523,-3.8849,-3.8479,-3.8084,-3.7238,-3.6892,-3.6892,-3.6616,-3.6492,-3.6492,-3.6492,-3.6289,-3.6085,-3.6037,-3.5831,-3.5688,-3.5589,-3.5249,-3.4839,-3.438,-3.4027,-3.3478,-3.2362,-3.2074,-3.1882,-3.1123,-3.0986,-3.0986,-3.0986,-3.0725,-3.0516,-3.0516,-3.0045,-2.968,-2.968,-2.9444,-2.9157,-2.883,-2.8734,-2.8125,-2.6968,-2.6721,-2.6634,-2.6602,-2.6094,-2.5786,-2.5661,-2.5787,-2.5535,-2.4777,-2.4802,-2.4577,-2.4196,-2.3949,-2.3939,-2.4188,-2.4188,-2.4312,-4.8785,-4.8891,-4.8658,-4.757,0.0,-4.6249,-4.6055,0.0,0.0,0.0,0.0,0.0,0.0,-4.5776,0.0,0.0,0.0,0.0,0.0,0.0,0.0,0.0,0.0,0.0,0.0,0.0,0.0,0.0,0.0,0.0,-4.3929,-4.3878,-4.3749,-4.3411,-4.3429,-4.334,-4.3251,-4.316,-4.3086,-4.3013,-4.2458,-4.1888,-4.1303,-4.0972,-4.0531,-4.007,-4.007,-4.007,-4.007,-4.007,-4.007,-4.007,-4.007,-3.9747,-3.9028,-3.787,-3.7417,-3.7298,-3.6723,-3.6492,-3.6492,-3.6492,-3.6492,-3.6492,-3.6414,-3.6226,-3.5973,-3.5703,-3.5559,-3.535,-3.5264,-3.5067,-3.4773,-3.3973,-3.3685,-3.3199,-3.2087,-3.1809,-3.1676,-3.1123,-3.0882,-3.079,-3.079,-3.032,-2.9941,-2.9941,-2.9444,-2.9065,-2.9065,-2.8948,-2.8699,-2.816,-2.7984,-2.7309,-2.5861,-2.5405,-2.5429,-2.5943,-2.537,-2.4945,-2.4802,-2.4595,-2.443,-2.4269,-2.415,-2.401,-2.401,-2.3433,-2.337,-2.3712,-2.3712,-2.3898,-4.9998,-4.9804,-4.9396,-4.7725,-4.7259,0.0,-4.6171,-4.596,0.0,-4.5906,0.0,0.0,0.0,-4.5715,0.0,0.0,0.0,0.0,0.0,0.0,0.0,0.0,0.0,0.0,0.0,0.0,0.0,0.0,0.0,0.0,-4.3548,-4.3532,-4.3513,-4.3497,-4.3446,-4.3394,-4.3394,-4.3215,-4.288,-4.2476,-4.2297,-4.1717,-4.0849,-4.0802,-4.0531,-4.007,-4.007,-4.007,-4.007,-4.007,-4.007,-4.007,-4.007,-3.9747,-3.9028,-3.787,-3.7417,-3.7298,-3.6723,-3.6492,-3.6492,-3.6492,-3.6492,-3.6492,-3.6274,-3.6085,-3.5831,-3.4942,-3.4595,-3.438,-3.438,-3.3905,-3.3143,-3.2434,-3.175,-3.1198,-3.1123,-3.1048,-3.1048,-3.0986,-3.0555,-3.0189,-3.0189,-2.9719,-2.934,-2.934,-2.883,-2.8438,-2.8438,-2.7981,-2.7574,-2.74,-2.74,-2.6888,-2.5697,-2.4767,-2.4264,-2.4264,-2.4192,-2.3913,-2.3213,-2.3183,-2.2821,-2.2077,-2.246,-2.2621,-2.2621,-2.3057,-2.3205,-2.3236,-2.3236,-2.3256,-5.0794,-5.0717,-5.0425,-4.9221,-4.8502,0.0,0.0,-4.5949,-4.5919,0.0,0.0,0.0,0.0,0.0,0.0,0.0,0.0,0.0,0.0,0.0,0.0,0.0,0.0,0.0,0.0,0.0,0.0,0.0,0.0,0.0,0.0,-4.3497,-4.3463,-4.3446,-4.3411,-4.3359,-4.3215,-4.3141,-4.267,-4.1846,-4.1803,-4.141,-4.0802,-4.0483,-4.0254,-4.007,-4.007,-4.007,-4.007,-4.007,-4.007,-4.002,-3.9295,-3.8849,-3.8518,-3.7282,-3.6831,-3.6785,-3.6554,-3.6492,-3.6492,-3.6492,-3.6492,-3.6492,-3.6274,-3.5816,-3.5219,-3.4743,-3.4109,-3.363,-3.363,-3.3422,-3.3003,-3.229,-3.1869,-3.1529,-3.1123,-3.0712,-3.0451,-3.0451,-2.9993,-2.9601,-2.9601,-2.9104,-2.8726,-2.8726,-2.8229,-2.785,-2.785,-2.76,-2.7188,-2.662,-2.5463,-2.4529,-2.3998,-2.3191,-2.267,-2.267,-2.3117,-2.3276,-2.3001,-2.2553,-2.2101,-2.1807,-2.1973,-2.2066,-2.2066,-2.2242,-2.248,-2.276,-2.276,-2.2915,-5.1202,-5.1202,-5.0989,-5.0114,0.0,0.0,-4.6754,-4.6099,0.0,0.0,0.0,0.0,0.0,0.0,0.0,0.0,0.0,0.0,0.0,0.0,0.0,0.0,0.0,0.0,0.0,0.0,0.0,0.0,0.0,0.0,0.0,-4.3463,-4.3481,-4.3446,-4.3376,-4.3269,-4.3123,-4.2956,-4.2418,-4.1481,-4.1348,-4.1001,-4.058,-4.0271,-4.007,-4.007,-4.007,-4.007,-4.007,-4.007,-3.9969,-3.9696,-3.8463,-3.801,-3.7895,-3.6892,-3.6492,-3.6492,-3.6492,-3.6492,-3.6492,-3.6492,-3.6492,-3.6414,-3.6022,-3.5415,-3.4743,-3.4124,-3.3281,-3.2499,-3.2315,-3.251,-3.2607,-3.1712,-3.1455,-3.1282,-3.0624,-3.0137,-2.9862,-2.9862,-2.9392,-2.9,-2.9,-2.8503,-2.8111,-2.8111,-2.7771,-2.7523,-2.7523,-2.7188,-2.6552,-2.5697,-2.4108,-2.3106,-2.3001,-2.2252,-2.1807,-2.1807,-2.2327,-2.2628,-2.2628,-2.2111,-2.1807,-2.1807,-2.1807,-2.1807,-2.1807,-2.1807,-2.1973,-2.2273,-2.2273,-2.2449,-5.1202,-5.1202,-5.0989,0.0,0.0,0.0,-4.7512,-4.6474,0.0,0.0,0.0,0.0,0.0,0.0,0.0,0.0,0.0,0.0,0.0,0.0,0.0,0.0,0.0,0.0,0.0,0.0,0.0,0.0,0.0,0.0,0.0,-4.3428,-4.3393,-4.3461,-4.3286,-4.3178,-4.3178,-4.2655,-4.208,-4.1464,-4.0984,-4.0563,-4.007,-4.007,-4.007,-4.007,-4.007,-4.007,-4.007,-4.007,-3.9747,-3.9082,-3.787,-3.7417,-3.7298,-3.6723,-3.6492,-3.6492,-3.6492,-3.6492,-3.6492,-3.6492,-3.6492,-3.6352,-3.5429,-3.5023,-3.4528,-3.2889,-3.1809,-3.0993,-3.0256,-3.1089,-3.1707,-3.0388,-3.0124,-2.9967,-2.9392,-2.9274,-2.9274,-2.9274,-2.8778,-2.8373,-2.8373,-2.7902,-2.7523,-2.7523,-2.7523,-2.7523,-2.7456,-2.6688,-2.5627,-2.448,-2.357,-2.3001,-2.3001,-2.2252,-2.1807,-2.1807,-2.1807,-2.1807,-2.1807,-2.1807,-2.1807,-2.1807,-2.1807,-2.1807,-2.1807,-2.1807,-2.1807,-2.1807,-2.1807,-2.1807,-5.1202,-5.1202,0.0,-5.0872,0.0,0.0,0.0,0.0,0.0,0.0,0.0,0.0,0.0,0.0,0.0,0.0,0.0,0.0,0.0,0.0,0.0,0.0,0.0,0.0,0.0,0.0,0.0,0.0,0.0,0.0,0.0,-4.1727,-4.1693,-4.1604,-4.1535,-4.1342,-4.1014,-4.0863,-4.0357,-3.9467,-3.9306,-3.9551,-4.007,-4.007,-4.007,-4.007,-4.007,-4.007,-4.007,-3.9644,-3.9135,-3.8518,-3.7695,-3.7417,-3.7298,-3.6723,-3.6492,-3.6492,-3.6492,-3.6492,-3.6492,-3.6492,-3.6148,-3.5672,-3.5299,-3.4022,-3.2567,-3.1957,-3.0845,-2.9795,-2.9594,-2.9855,-3.0006,-2.9633,-2.9536,-2.9483,-2.9314,-2.8948,-2.8647,-2.8647,-2.8177,-2.7785,-2.7785,-2.7641,-2.7523,-2.7523,-2.7523,-2.7242,-2.6389,-2.5475,-2.4552,-2.3497,-2.2692,-2.2176,-2.2176,-2.1959,-2.1807,-2.1807,-2.1807,-2.1807,-2.1807,-2.1807,-2.1807,-2.1807,-2.1807,-2.1807,-2.1807,-2.1807,-2.1807,-2.1807,-2.1807,-2.1807,-5.1202,-5.1171,0.0,-5.1159,-5.0499,-4.9523,-4.829,0.0,0.0,0.0,0.0,0.0,0.0,0.0,0.0,0.0,0.0,0.0,0.0,0.0,0.0,0.0,0.0,0.0,0.0,0.0,0.0,0.0,0.0,0.0,0.0,-4.0946,-4.0876,-4.0805,-4.0789,-4.0545,-4.0088,-3.9917,-3.9423,-3.8587,-3.8425,-3.8662,-3.9225,-3.9225,-3.9225,-3.9225,-3.9225,-3.9109,-3.8875,-3.8292,-3.7688,-3.7078,-3.6463,-3.626,-3.6185,-3.5858,-3.5691,-3.5691,-3.5691,-3.5691,-3.5691,-3.5416,-3.5029,-3.4558,-3.3929,-3.2649,-3.1323,-3.0936,-2.9904,-2.8922,-2.8922,-2.8752,-2.8647,-2.8869,-2.8922,-2.8869,-2.8634,-2.8294,-2.8033,-2.8033,-2.7771,-2.7523,-2.7523,-2.7523,-2.7523,-2.7523,-2.7175,-2.6458,-2.5028,-2.4313,-2.3537,-2.2617,-2.2111,-2.1807,-2.1807,-2.1807,-2.1807,-2.1807,-2.1807,-2.1807,-2.1807,-2.1807,-2.1807,-2.1807,-2.1807,-2.1807,-2.1807,-2.1807,-2.1807,-2.1807,-2.1994,-2.2087,-5.1202,0.0,0.0,-5.1082,-5.0344,0.0,-4.7511,0.0,0.0,0.0,0.0,0.0,0.0,0.0,0.0,0.0,0.0,0.0,0.0,0.0,0.0,0.0,0.0,0.0,0.0,0.0,0.0,0.0,0.0,0.0,0.0,-4.0641,-4.0555,-4.0571,-4.0486,-4.0275,-3.9817,-3.9412,-3.8881,-3.8291,-3.7887,-3.7702,-3.7702,-3.7838,-3.7905,-3.7905,-3.7858,-3.7533,-3.6951,-3.6348,-3.5828,-3.5235,-3.4694,-3.4475,-3.4475,-3.4475,-3.4475,-3.4475,-3.4475,-3.4475,-3.4283,-3.3698,-3.3378,-3.3055,-3.1809,-3.1107,-3.0582,-2.987,-2.9029,-2.8307,-2.8307,-2.7915,-2.7667,-2.8177,-2.8307,-2.8164,-2.7641,-2.7523,-2.7523,-2.7523,-2.7523,-2.7523,-2.7523,-2.7523,-2.7469,-2.739,-2.662,-2.5392,-2.3734,-2.3294,-2.2798,-2.1873,-2.1807,-2.1807,-2.1807,-2.1807,-2.1807,-2.1807,-2.1807,-2.1807,-2.1807,-2.1807,-2.1807,-2.1807,-2.1807,-2.1807,-2.1807,-2.1807,-2.1828,-2.188,-2.2304,-2.2522,-5.1127,-5.1102,0.0,0.0,-4.9541,-4.8145,-4.7477,-4.6167,0.0,0.0,0.0,0.0,0.0,0.0,0.0,0.0,0.0,0.0,0.0,0.0,0.0,0.0,0.0,0.0,0.0,0.0,0.0,0.0,0.0,0.0,-3.8882,-3.8849,-3.8816,-3.8749,-3.8767,-3.8366,-3.7606,-3.747,-3.7026,0.0,-3.6141,-3.6113,-3.6163,-3.7364,-3.7905,-3.7858,-3.7435,-3.6951,-3.6348,-3.5828,-3.5235,-3.4694,-3.4534,-3.4475,-3.4475,-3.4475,-3.4475,-3.4475,-3.4475,-3.4149,-3.3698,-3.3577,-3.2664,-3.1636,-3.1321,-3.0281,-2.9131,-2.9008,-2.8368,-2.7706,-2.7706,-2.7628,-2.7562,-2.768,-2.7706,-2.768,-2.7562,-2.7523,-2.7523,-2.7523,-2.7523,-2.7523,-2.7523,-2.7523,-2.7323,-2.6701,-2.5697,-2.4624,-2.3661,-2.3254,-2.2692,-2.1883,-2.1807,-2.1807,-2.1807,-2.1807,-2.1807,-2.1807,-2.1807,-2.1807,-2.1807,-2.1807,-2.1807,-2.1807,-2.1807,-2.1807,-2.1807,-2.1807,-2.1994,-2.2356,-2.2449,-2.2687,-5.0947,0.0,0.0,-5.0529,0.0,-4.764,-4.7481,0.0,0.0,0.0,0.0,0.0,0.0,0.0,0.0,0.0,0.0,0.0,0.0,0.0,0.0,0.0,0.0,0.0,0.0,0.0,0.0,0.0,0.0,-3.8368,-3.8307,-3.8307,-3.8274,-3.8192,-3.7967,-3.7559,-3.69,-3.6719,-3.6266,-3.5622,-3.5622,-3.5622,-3.5656,-3.6451,-3.6666,-3.6396,-3.609,-3.5511,-3.4718,-3.4467,-3.4006,-3.3475,-3.3475,-3.3475,-3.3475,-3.3475,-3.3475,-3.3475,-3.3188,-3.2808,-3.2437,-3.1804,-3.0997,-3.0257,-2.9931,-2.9066,-2.8251,-2.8251,-2.7893,-2.7523,-2.7523,-2.7523,-2.7523,-2.7523,-2.7523,-2.7523,-2.7523,-2.7523,-2.7523,-2.7523,-2.7523,-2.739,-2.704,-2.6701,-2.6126,-2.5264,-2.4541,-2.3829,-2.2957,-2.2617,-2.2252,-2.1807,-2.1807,-2.1807,-2.1807,-2.1807,-2.1807,-2.1807,-2.1807,-2.1807,-2.1807,-2.1807,-2.1807,-2.1807,-2.1807,-2.1911,-2.2139,-2.2139,-2.2377,-2.2832,-2.306,-2.3287,-5.0715,0.0,-5.0449,-5.0187,-4.8726,0.0,-4.7422,0.0,0.0,0.0,0.0,0.0,0.0,0.0,0.0,0.0,0.0,0.0,0.0,0.0,0.0,0.0,0.0,0.0,0.0,0.0,0.0,0.0,0.0,-3.8336,-3.8274,-3.8274,-3.8241,-3.8192,-3.7756,-3.7321,-3.69,-3.6492,-3.6045,-3.5622,-3.5622,-3.556,-3.547,-3.547,-3.5224,-3.4769,-3.4625,-3.4003,-3.3182,-3.3093,-3.2788,-3.2398,-3.2398,-3.2398,-3.2398,-3.2398,-3.2327,-3.216,-3.1652,-3.1364,-3.0984,-2.9813,-2.9282,-2.8994,-2.8417,-2.7973,-2.7789,-2.7789,-2.7656,-2.7523,-2.7523,-2.7523,-2.7523,-2.7523,-2.7523,-2.7523,-2.7523,-2.7523,-2.7456,-2.7323,-2.7188,-2.6905,-2.6346,-2.5581,-2.4791,-2.3963,-2.3526,-2.3021,-2.2176,-2.1959,-2.1807,-2.1807,-2.1807,-2.1807,-2.1807,-2.1807,-2.1807,-2.1807,-2.1807,-2.1849,-2.1921,-2.1921,-2.1963,-2.2045,-2.1809,-2.1916,-2.2357,-2.2198,-2.2432,-2.3053,-2.3266,-2.3563,0.0,0.0,-5.0043,0.0,-4.8537,-4.7202,0.0,0.0,0.0,0.0,0.0,0.0,0.0,0.0,0.0,0.0,0.0,0.0,0.0,0.0,0.0,0.0,0.0,0.0,0.0,0.0,0.0,0.0,-3.8354,-3.8207,-3.8225,-3.8225,-3.8225,-3.8192,-3.7756,-3.7321,-3.69,-3.6492,-3.6045,-3.5622,-3.5622,-3.5379,-3.4927,-3.4927,-3.488,-3.4769,-3.3802,-3.3339,-3.313,-3.2695,-3.2437,-3.2398,-3.2398,-3.2398,-3.2398,-3.2398,-3.2048,-3.1595,-3.1552,-3.0748,-2.969,-2.9407,-2.8817,-2.8197,-2.7987,-2.7723,-2.7523,-2.7523,-2.7523,-2.7523,-2.7523,-2.7523,-2.7523,-2.7523,-2.7523,-2.7523,-2.7523,-2.7523,-2.7323,-2.6701,-2.6,-2.5594,-2.5453,-2.4779,-2.4192,-2.3818,-2.3106,-2.2467,-2.2101,-2.1959,-2.1807,-2.1807,-2.1807,-2.1807,-2.1807,-2.1807,-2.1807,-2.1807,-2.1807,-2.1983,-2.2387,-2.2408,-2.2594,-2.2998,-2.18,-2.1399,-2.1801,-2.0976,-2.1277,-2.2448,-2.175,-2.2054,-5.0116,-4.9903,-4.9712,0.0,-4.8342,-4.708,0.0,0.0,0.0,0.0,0.0,0.0,0.0,0.0,0.0,0.0,0.0,0.0,0.0,0.0,0.0,0.0,0.0,0.0,0.0,0.0,0.0,0.0,-3.8241,-3.8192,-3.8192,-3.8192,-3.8088,-3.781,-3.7395,-3.6978,-3.6557,-3.6114,-3.5783,-3.5622,-3.5622,-3.5316,-3.4785,-3.448,-3.4169,-3.3853,-3.3391,-3.3039,-3.2749,-3.2492,-3.2398,-3.2398,-3.2398,-3.2398,-3.2342,-3.1992,-3.1709,-3.1422,-3.0615,-2.995,-2.9345,-2.8853,-2.8365,-2.7934,-2.7855,-2.7656,-2.7523,-2.7523,-2.7523,-2.7523,-2.7523,-2.7523,-2.739,-2.6973,-2.6905,-2.6769,-2.6358,-2.6552,-2.6701,-2.5931,-2.5146,-2.4636,-2.4636,-2.3913,-2.3265,-2.3043,-2.2542,-2.2176,-2.1949,-2.1873,-2.1807,-2.1807,-2.1807,-2.1807,-2.1807,-2.2045,-2.219,-2.219,-2.2439,-2.2677,-2.2873,-2.2884,-2.3101,-2.3567,-2.2187,-2.1656,-2.2074,-2.1146,-2.1112,-2.2032,-2.1604,-2.1697,0.0,0.0,-4.9495,-4.9227,-4.8082,-4.6936,0.0,0.0,0.0,0.0,0.0,0.0,0.0,0.0,0.0,0.0,0.0,0.0,0.0,0.0,0.0,0.0,0.0,0.0,0.0,0.0,0.0,0.0,-3.8192,-3.8192,-3.8192,-3.8106,-3.7845,-3.7505,-3.7017,-3.6597,-3.6301,-3.5827,-3.5622,-3.5622,-3.5622,-3.5224,-3.4577,-3.4185,-3.3614,-3.2986,-3.2986,-3.2803,-3.2398,-3.2398,-3.2398,-3.2398,-3.2398,-3.2398,-3.2342,-3.1709,-3.1349,-3.0984,-2.9827,-2.9219,-2.8867,-2.8352,-2.7973,-2.7776,-2.7723,-2.759,-2.7523,-2.7523,-2.7523,-2.7523,-2.7523,-2.739,-2.7108,-2.6552,-2.6277,-2.6,-2.5441,-2.5569,-2.5639,-2.5075,-2.4348,-2.3756,-2.3756,-2.3117,-2.2553,-2.2327,-2.2187,-2.2035,-2.1807,-2.1807,-2.1849,-2.1973,-2.1983,-2.2035,-2.2149,-2.247,-2.2677,-2.2677,-2.2998,-2.3236,-2.336,-2.336,-2.3577,-2.4043,-2.2473,-2.1863,-2.2179,-2.1053,-2.0775,-2.1338,-2.1069,-2.1069,0.0,-4.9593,0.0,-4.8487,0.0,0.0,0.0,0.0,0.0,0.0,0.0,0.0,0.0,0.0,0.0,0.0,0.0,0.0,0.0,0.0,0.0,0.0,0.0,0.0,0.0,0.0,0.0,0.0,-3.8192,-3.8192,-3.8192,-3.7792,-3.7542,-3.7505,-3.6759,-3.6343,-3.6301,-3.5827,-3.5622,-3.5622,-3.5622,-3.5068,-3.4036,-3.4036,-3.3423,-3.2437,-3.2437,-3.2453,-3.2398,-3.2398,-3.2398,-3.2398,-3.2398,-3.2398,-3.2342,-3.1709,-3.097,-3.0165,-2.9532,-2.8817,-2.8145,-2.7921,-2.7776,-2.7789,-2.759,-2.7523,-2.7523,-2.7523,-2.7523,-2.7523,-2.7523,-2.6973,-2.6414,-2.6414,-2.5861,-2.5382,-2.5312,-2.4707,-2.4181,-2.4192,-2.3412,-2.2767,-2.2767,-2.2553,-2.2327,-2.2176,-2.2111,-2.2035,-2.1807,-2.1807,-2.1973,-2.2418,-2.2459,-2.2635,-2.308,-2.3143,-2.3153,-2.3153,-2.3174,-2.3381,-2.3826,-2.3836,-2.4053,-2.4498,-2.262,-2.1728,-2.1747,-1.9877,-1.943,-2.0348,-1.9363,-1.9455,0.0,0.0,0.0,-4.9114,-4.7866,0.0,0.0,0.0,0.0,0.0,0.0,0.0,0.0,0.0,0.0,0.0,0.0,0.0,0.0,0.0,0.0,0.0,0.0,0.0,0.0,0.0,0.0,0.0,0.0,-3.788,-3.8174,-3.7504,-3.7114,-3.7114,-3.6597,-3.6174,-3.5827,-3.5694,-3.5622,-3.5577,-3.527,-3.4721,-3.3986,-3.3665,-3.3108,-3.2398,-3.2398,-3.2398,-3.2398,-3.2398,-3.2398,-3.2398,-3.2398,-3.2342,-3.212,-3.1072,-3.0421,-2.9936,-2.8867,-2.8249,-2.7934,-2.7842,-2.7723,-2.759,-2.7523,-2.7523,-2.7523,-2.7523,-2.7523,-2.739,-2.6905,-2.6633,-2.6126,-2.5193,-2.4348,-2.379,-2.379,-2.3497,-2.3202,-2.3202,-2.2841,-2.2478,-2.2478,-2.2327,-2.2176,-2.2101,-2.1949,-2.1987,-2.2211,-2.2252,-2.2428,-2.2894,-2.2946,-2.3008,-2.3174,-2.3463,-2.3629,-2.3629,-2.3898,-2.4126,-2.4302,-2.4312,-2.4108,-2.3637,-2.2315,-2.1695,-2.1695,-1.972,-1.9004,-1.9363,-1.9004,-1.892,-4.9131,0.0,0.0,0.0,0.0,0.0,0.0,0.0,0.0,0.0,0.0,0.0,0.0,0.0,0.0,0.0,0.0,0.0,0.0,0.0,0.0,0.0,0.0,0.0,0.0,0.0,0.0,0.0,0.0,0.0,-3.7739,-3.7073,-3.6638,-3.6457,-3.6199,-3.5915,-3.5622,-3.5622,-3.5622,-3.5577,-3.5085,-3.4529,-3.3986,-3.3443,-3.2895,-3.2398,-3.2398,-3.2398,-3.2398,-3.2398,-3.2398,-3.2398,-3.2398,-3.216,-3.1751,-3.0645,-2.9922,-2.9456,-2.8365,-2.7868,-2.7723,-2.7723,-2.759,-2.7523,-2.7523,-2.7523,-2.7523,-2.7523,-2.7523,-2.7323,-2.6552,-2.5988,-2.5334,-2.4047,-2.335,-2.3001,-2.2927,-2.2777,-2.2703,-2.2703,-2.2478,-2.2327,-2.2327,-2.2101,-2.2035,-2.2035,-2.2008,-2.2149,-2.2459,-2.2635,-2.2904,-2.337,-2.3422,-2.3484,-2.3629,-2.3929,-2.4011,-2.3652,-2.3841,-2.3917,-2.356,-2.356,-2.329,-2.2658,-2.1686,-2.1239,-2.1248,-1.9637,-1.8735,-1.8743,-1.8743,-1.8558,0.0,0.0,0.0,0.0,0.0,0.0,0.0,0.0,0.0,0.0,0.0,0.0,0.0,0.0,0.0,0.0,0.0,0.0,0.0,0.0,0.0,0.0,0.0,0.0,0.0,0.0,0.0,0.0,-3.7469,-3.7321,-3.69,-3.6533,-3.6088,-3.5622,-3.5622,-3.5622,-3.5622,-3.5622,-3.5577,-3.5577,-3.5021,-3.448,-3.3986,-3.3407,-3.2895,-3.2398,-3.2398,-3.2398,-3.2398,-3.2398,-3.2398,-3.2398,-3.2382,-3.1905,-3.1115,-3.0392,-2.9566,-2.8675,-2.8039,-2.7656,-2.7523,-2.7523,-2.7523,-2.7523,-2.7523,-2.7523,-2.7523,-2.7523,-2.7456,-2.7323,-2.6552,-2.5193,-2.3902,-2.3139,-2.3001,-2.2927,-2.2777,-2.2703,-2.2703,-2.2703,-2.2327,-2.2111,-2.2111,-2.1949,-2.1807,-2.1807,-2.2201,-2.2501,-2.2511,-2.2925,-2.3381,-2.3846,-2.3898,-2.4074,-2.4509,-2.4454,-2.409,-2.3183,-2.3096,-2.2658,-2.1695,-2.1695,-2.1695,-2.1695,-2.0791,-2.0249,-2.0249,-1.9271,-1.8651,-1.8481,-1.8481,-1.8195,-4.855,0.0,0.0,0.0,0.0,0.0,0.0,0.0,0.0,0.0,0.0,0.0,0.0,0.0,0.0,0.0,0.0,0.0,0.0,0.0,0.0,0.0,0.0,0.0,0.0,0.0,0.0,0.0,-3.6978,-3.6719,-3.69,-3.6533,-3.6088,-3.5622,-3.5622,-3.5622,-3.5622,-3.5622,-3.5424,-3.5021,-3.448,-3.3919,-3.3391,-3.2841,-3.2547,-3.2398,-3.2398,-3.2398,-3.2398,-3.2398,-3.2398,-3.2327,-3.1777,-3.1319,-3.0896,-2.9628,-2.8903,-2.8481,-2.7842,-2.7523,-2.7523,-2.7523,-2.7523,-2.7523,-2.7523,-2.7523,-2.7523,-2.7523,-2.7108,-2.6414,-2.5052,-2.3986,-2.3276,-2.3075,-2.2927,-2.2777,-2.2703,-2.2478,-2.2252,-2.2252,-2.2035,-2.1873,-2.1873,-2.1807,-2.1807,-2.1807,-2.2201,-2.2615,-2.2956,-2.3401,-2.3857,-2.4312,-2.4364,-2.4405,-2.4529,-2.3907,-2.3367,-2.3096,-2.2482,-2.1961,-2.1695,-2.1695,-2.1427,-2.0701,-2.0249,-1.972,-1.9012,-1.8751,-1.8566,-1.8481,-1.8102,-1.7822,0.0,0.0,0.0,0.0,0.0,0.0,-4.2576,-4.0456,0.0,0.0,0.0,0.0,0.0,0.0,0.0,0.0,0.0,0.0,0.0,0.0,0.0,0.0,0.0,0.0,0.0,-3.7303,-3.7114,-3.6921,-3.6516,-3.6326,-3.635,-3.6156,-3.5871,-3.5622,-3.5622,-3.5622,-3.5622,-3.5379,-3.5131,-3.4769,-3.402,-3.3495,-3.3198,-3.2641,-3.2398,-3.2398,-3.2398,-3.2398,-3.2382,-3.2033,-3.1905,-3.1849,-3.1362,-3.0763,-3.0011,-2.9093,-2.8481,-2.8039,-2.7656,-2.7523,-2.7523,-2.7523,-2.7523,-2.7523,-2.7523,-2.7523,-2.7456,-2.7108,-2.6264,-2.5264,-2.4325,-2.3486,-2.2852,-2.2852,-2.2703,-2.2553,-2.2478,-2.2252,-2.2101,-2.2101,-2.1959,-2.1807,-2.1807,-2.1807,-2.1807,-2.1807,-2.2201,-2.2666,-2.3132,-2.3588,-2.4043,-2.4498,-2.454,-2.4358,-2.3917,-2.3454,-2.2746,-2.1943,-2.1418,-2.0889,-2.0529,-2.0529,-2.0175,-1.9546,-1.9363,-1.892,-1.8202,-1.8288,-1.8288,-1.8195,-1.7721,-1.7527,0.0,0.0,0.0,0.0,0.0,0.0,-4.1096,-3.918,-3.7414,0.0,0.0,0.0,0.0,0.0,0.0,0.0,0.0,0.0,0.0,0.0,0.0,0.0,0.0,0.0,-3.651,-3.6568,-3.6464,-3.6097,-3.6156,-3.6045,-3.5622,-3.5622,-3.5622,-3.5622,-3.5622,-3.5622,-3.5622,-3.5068,-3.4769,-3.4673,-3.37,-3.3198,-3.3093,-3.2641,-3.2398,-3.2398,-3.2398,-3.2327,-3.2201,-3.1477,-3.1174,-3.1174,-3.0999,-3.0043,-2.8803,-2.8675,-2.8157,-2.7523,-2.7523,-2.7523,-2.7523,-2.7523,-2.7523,-2.7523,-2.7523,-2.7456,-2.7188,-2.6414,-2.5193,-2.4047,-2.3975,-2.3338,-2.2703,-2.2703,-2.2478,-2.2327,-2.2101,-2.2101,-2.2101,-2.2101,-2.1959,-2.1807,-2.1807,-2.1807,-2.1807,-2.1807,-2.2201,-2.2646,-2.306,-2.3557,-2.4033,-2.4426,-2.4509,-2.409,-2.3183,-2.3008,-2.2208,-2.043,-2.0167,-1.972,-1.8827,-1.8735,-1.8651,-1.8481,-1.8481,-1.8195,-1.7628,-1.79,-1.79,-1.7628,-1.7426,-1.7326,0.0,0.0,0.0,0.0,0.0,0.0,-4.0528,-3.873,-3.7017,0.0,0.0,0.0,0.0,0.0,0.0,0.0,0.0,0.0,0.0,0.0,0.0,0.0,0.0,0.0,-3.6452,-3.6239,-3.602,-3.595,-3.5756,-3.5639,-3.5622,-3.5622,-3.5622,-3.5622,-3.5622,-3.5622,-3.5622,-3.5068,-3.4577,-3.4136,-3.3511,-3.2986,-3.2547,-3.2453,-3.2398,-3.2398,-3.2398,-3.2033,-3.142,-3.1232,-3.1174,-3.1057,-2.9752,-2.9093,-2.8739,-2.8039,-2.7656,-2.7523,-2.7523,-2.7523,-2.7523,-2.7523,-2.7523,-2.7523,-2.7523,-2.7121,-2.6346,-2.4909,-2.4325,-2.3902,-2.3202,-2.2841,-2.2628,-2.2478,-2.2327,-2.2176,-2.2101,-2.1949,-2.1883,-2.1883,-2.1807,-2.1807,-2.1807,-2.1807,-2.1807,-2.1807,-2.2201,-2.2532,-2.2625,-2.336,-2.3919,-2.4002,-2.4333,-2.409,-2.3183,-2.2394,-2.1507,-2.0339,-1.9546,-1.9004,-1.8827,-1.8651,-1.8574,-1.8481,-1.8102,-1.7721,-1.7426,-1.7621,-1.7621,-1.7426,-1.7326,-1.7326,0.0,0.0,0.0,-4.2703,0.0,0.0,0.0,-3.8014,-3.6597,-3.6597,0.0,0.0,0.0,0.0,0.0,0.0,0.0,0.0,0.0,0.0,0.0,0.0,0.0,0.0,-3.5698,-3.5554,-3.5543,-3.5605,-3.5458,-3.5429,-3.5458,-3.5503,-3.5566,-3.5566,-3.5577,-3.547,-3.5224,-3.4673,-3.4119,-3.3614,-3.3055,-3.2641,-3.2398,-3.2398,-3.2398,-3.2398,-3.2342,-3.1864,-3.1174,-3.0704,-3.0286,-2.9922,-2.9093,-2.8546,-2.8105,-2.7656,-2.7523,-2.7523,-2.7523,-2.7523,-2.7523,-2.7523,-2.7523,-2.7523,-2.7523,-2.6701,-2.5639,-2.4409,-2.3841,-2.3412,-2.2841,-2.2628,-2.2478,-2.2327,-2.2101,-2.1959,-2.1959,-2.1883,-2.1807,-2.1807,-2.1807,-2.1807,-2.1807,-2.1807,-2.1807,-2.1807,-2.2004,-2.2232,-2.247,-2.2904,-2.336,-2.3826,-2.3622,-2.313,-2.2463,-2.1507,-2.0619,-1.9629,-1.9096,-1.8743,-1.8658,-1.8566,-1.8388,-1.8102,-1.7721,-1.7426,-1.7326,-1.7426,-1.7426,-1.7326,-1.7326,-1.7326,0.0,0.0,0.0,0.0,0.0,-3.886,0.0,0.0,0.0,-3.6174,0.0,0.0,0.0,0.0,0.0,0.0,0.0,0.0,0.0,0.0,0.0,0.0,0.0,0.0,0.0,-3.4994,-3.5105,-3.5245,-3.5245,-3.5291,-3.5291,-3.5446,-3.5492,-3.5492,-3.5549,-3.5316,-3.4833,-3.4284,-3.3716,-3.3182,-3.2641,-3.2398,-3.2398,-3.2398,-3.2398,-3.2342,-3.2247,-3.1807,-3.1072,-3.0179,-2.9393,-2.8739,-2.861,-2.8105,-2.7523,-2.7523,-2.7523,-2.7523,-2.7523,-2.7523,-2.7523,-2.7523,-2.739,-2.7255,-2.7108,-2.6139,-2.4933,-2.4047,-2.3412,-2.2852,-2.2628,-2.2478,-2.2327,-2.2111,-2.1959,-2.1807,-2.1807,-2.1807,-2.1807,-2.1807,-2.1807,-2.1807,-2.1807,-2.1807,-2.1807,-2.1807,-2.1807,-2.1942,-2.2315,-2.2439,-2.2701,-2.3361,-2.2725,-2.2074,-2.1371,-2.0596,-1.9736,-1.8827,-1.8743,-1.8651,-1.8473,-1.8381,-1.8102,-1.7628,-1.7426,-1.7326,-1.7326,-1.7326,-1.7326,-1.7326,-1.7326,-1.7326,0.0,0.0,0.0,0.0,-3.9149,0.0,0.0,0.0,-3.5667,-3.5667,0.0,0.0,0.0,0.0,0.0,0.0,0.0,0.0,0.0,0.0,0.0,0.0,0.0,0.0,0.0,-3.4899,-3.4994,-3.5088,-3.5105,-3.5198,-3.5291,-3.5446,-3.5492,-3.5492,-3.5549,-3.5316,-3.4833,-3.4284,-3.3716,-3.3182,-3.2641,-3.2398,-3.2398,-3.2398,-3.2342,-3.2247,-3.2191,-3.1652,-3.0763,-3.0072,-2.9268,-2.8481,-2.7908,-2.759,-2.7523,-2.7523,-2.7523,-2.7523,-2.7523,-2.7523,-2.7523,-2.7523,-2.704,-2.6414,-2.5721,-2.4921,-2.4047,-2.3128,-2.2767,-2.2628,-2.2252,-2.2176,-2.2101,-2.1883,-2.1807,-2.1807,-2.1807,-2.1807,-2.1807,-2.1807,-2.1807,-2.1807,-2.1807,-2.1807,-2.1807,-2.1807,-2.1807,-2.1828,-2.188,-2.2242,-2.2206,-2.1579,-2.1762,-2.14,-2.0079,-1.9849,-1.9379,-1.855,-1.8574,-1.8381,-1.8187,-1.7908,-1.7621,-1.7333,-1.7333,-1.7326,-1.7326,-1.7326,-1.7326,-1.7326,-1.7326,-1.7326,0.0,0.0,0.0,0.0,0.0,0.0,-3.7793,0.0,-3.5566,0.0,0.0,0.0,0.0,0.0,0.0,0.0,-3.4448,0.0,0.0,0.0,0.0,0.0,0.0,0.0,0.0,0.0,0.0,0.0,-3.4994,-3.4994,-3.5041,-3.5198,-3.5291,-3.54,-3.5165,-3.4849,-3.4333,-3.3818,-3.3251,-3.2749,-3.2492,-3.2398,-3.2398,-3.2342,-3.2247,-3.2191,-3.2053,-3.1321,-3.0208,-2.9766,-2.8953,-2.7908,-2.759,-2.7523,-2.7523,-2.7523,-2.7523,-2.7523,-2.7523,-2.7523,-2.7523,-2.7523,-2.6973,-2.6277,-2.5511,-2.4707,-2.3902,-2.2979,-2.2703,-2.2628,-2.2176,-2.2101,-2.2025,-2.1883,-2.1807,-2.1807,-2.1807,-2.1807,-2.1807,-2.1807,-2.1807,-2.1807,-2.1807,-2.1807,-2.1807,-2.1807,-2.1807,-2.1645,-2.1098,-2.1181,-2.1145,-2.0581,-2.019,-1.9799,-1.9428,-1.9054,-1.8718,-1.8162,-1.8087,-1.8009,-1.79,-1.7442,-1.7147,-1.7055,-1.6872,-1.6865,-1.7055,-1.7055,-1.715,-1.7326,-1.7326,-1.7326,-3.9731,0.0,0.0,0.0,0.0,0.0,0.0,0.0,0.0,0.0,0.0,0.0,0.0,0.0,0.0,0.0,0.0,0.0,0.0,0.0,0.0,0.0,0.0,0.0,0.0,0.0,0.0,-3.4464,-3.4578,-3.4594,-3.4415,-3.4561,-3.4658,-3.4771,-3.4513,-3.4152,-3.3681,-3.3303,-3.2895,-3.2342,-3.2342,-3.2342,-3.2342,-3.2191,-3.2023,-3.1781,-3.1582,-3.0837,-2.969,-2.9393,-2.8648,-2.7789,-2.759,-2.7523,-2.7523,-2.7523,-2.7523,-2.7523,-2.7523,-2.7523,-2.7523,-2.7523,-2.6837,-2.6,-2.5429,-2.4492,-2.3548,-2.2767,-2.2553,-2.2478,-2.2101,-2.2025,-2.1959,-2.1807,-2.1807,-2.1807,-2.1807,-2.1807,-2.1807,-2.1807,-2.1807,-2.1807,-2.1807,-2.1807,-2.1721,-2.1492,-2.1405,-2.1165,-2.0304,-2.0138,-2.0017,-1.9507,-1.8819,-1.8488,-1.8625,-1.8208,-1.783,-1.7756,-1.7544,-1.7494,-1.7494,-1.6985,-1.6718,-1.6718,-1.6491,-1.6484,-1.6718,-1.6904,-1.6974,-1.7201,-1.7289,-1.7326,0.0,0.0,0.0,-3.9713,0.0,0.0,0.0,0.0,-3.6002,0.0,0.0,0.0,0.0,0.0,0.0,0.0,0.0,0.0,0.0,0.0,0.0,0.0,0.0,0.0,0.0,0.0,0.0,-3.3303,-3.3815,-3.3866,-3.3303,-3.3391,-3.3443,-3.3443,-3.3598,-3.3391,-3.2841,-3.2949,-3.2749,-3.2191,-3.2191,-3.2191,-3.2191,-3.2038,-3.1567,-3.0837,-3.0837,-3.0329,-2.9442,-2.8776,-2.8481,-2.8417,-2.7789,-2.7523,-2.7523,-2.7523,-2.7523,-2.7523,-2.7523,-2.7523,-2.7523,-2.7523,-2.6483,-2.53,-2.5052,-2.3975,-2.2628,-2.2252,-2.2101,-2.2101,-2.1883,-2.1807,-2.1807,-2.1807,-2.1807,-2.1807,-2.1807,-2.1807,-2.1807,-2.1807,-2.1807,-2.1807,-2.1807,-2.1807,-2.1492,-2.0702,-2.0537,-2.0216,-1.9423,-1.9335,-1.9027,-1.8175,-1.8014,-1.7859,-1.7431,-1.7117,-1.7062,-1.7183,-1.7047,-1.6963,-1.6963,-1.6557,-1.6382,-1.6382,-1.6374,-1.6374,-1.6382,-1.6704,-1.6857,-1.6879,-1.7186,-1.7326,0.0,0.0,-3.7541,-3.8334,0.0,0.0,0.0,0.0,0.0,0.0,0.0,0.0,0.0,0.0,0.0,0.0,0.0,0.0,0.0,0.0,0.0,0.0,0.0,0.0,0.0,0.0,0.0,-3.3251,-3.3407,-3.3423,-3.3198,-3.3235,-3.3287,-3.3391,-3.3093,-3.2895,-3.2788,-3.2492,-3.2247,-3.2038,-3.2038,-3.2038,-3.2038,-3.1955,-3.1712,-3.1409,-3.0837,-3.0208,-2.9442,-2.8789,-2.8222,-2.7842,-2.759,-2.7523,-2.7523,-2.7523,-2.7523,-2.7523,-2.7523,-2.7175,-2.6769,-2.6769,-2.5767,-2.448,-2.4253,-2.3475,-2.2628,-2.2176,-2.2101,-2.2025,-2.1883,-2.1807,-2.1807,-2.1807,-2.1807,-2.1807,-2.1807,-2.1807,-2.1807,-2.1807,-2.1807,-2.1807,-2.1807,-2.1807,-2.1492,-2.0624,-2.0459,-1.9982,-1.863,-1.847,-1.8078,-1.7204,-1.7131,-1.7016,-1.6731,-1.653,-1.6601,-1.6877,-1.6714,-1.6535,-1.6535,-1.6235,-1.6067,-1.6067,-1.5855,-1.5855,-1.6067,-1.6184,-1.6448,-1.6857,-1.6967,-1.7128,-3.7279,-3.6964,0.0,-3.7515,-3.6947,0.0,-3.5641,0.0,0.0,0.0,0.0,0.0,0.0,0.0,0.0,0.0,0.0,0.0,0.0,-3.1278,0.0,0.0,0.0,0.0,0.0,0.0,-3.2772,-3.2625,-3.2718,-3.2772,0.0,0.0,-3.2625,-3.2718,-3.2367,-3.2272,-3.2327,-3.2094,-3.1955,-3.1955,-3.1955,-3.1955,-3.194,-3.1524,-3.1219,-3.097,-3.0147,-2.9393,-2.8762,-2.8338,-2.7908,-2.7523,-2.7523,-2.7523,-2.7523,-2.7523,-2.7523,-2.7523,-2.7523,-2.704,-2.6414,-2.6414,-2.5334,-2.3963,-2.3745,-2.3106,-2.2402,-2.2111,-2.1949,-2.1949,-2.1807,-2.1807,-2.1807,-2.1807,-2.1807,-2.1807,-2.1807,-2.1807,-2.1807,-2.1807,-2.1807,-2.1807,-2.1807,-2.1568,-2.1011,-2.0216,-2.006,-1.9432,-1.7764,-1.7521,-1.7286,-1.6648,-1.6566,-1.6476,-1.6147,-1.6209,-1.6245,-1.6468,-1.6301,-1.6206,-1.6206,-1.5906,-1.5796,-1.5913,-1.5599,-1.5592,-1.5913,-1.5913,-1.6184,-1.6689,-1.6799,-1.7026]},{"header":{"parameterUnit":"m.s-1","parameterCategory":1,"la1":30.6,"la2":29.2853,"lo1":-89.7004,"lo2":-87.6739,"dy":0.0162,"dx":0.0183,"nx":112,"ny":82,"refTime":"2023-07-19T12:00:00:Z","depth":0,"parameterNumber":3,"parameterNumberName":"V-component_of_WINDS"},"data":[0.0,0.0,0.0,0.0,0.0,0.0,0.0,0.0,0.0,0.0,0.0,0.0,0.0,0.0,0.0,0.0,0.0,0.0,0.0,0.0,0.0,0.0,0.0,0.0,0.0,0.0,0.0,0.0,0.0,0.0,0.0,0.0,0.0,0.0,0.0,0.0,0.0,0.0,0.0,0.0,0.0,0.0,0.0,0.0,0.0,0.0,0.0,0.0,0.0,0.0,0.0,0.0,0.0,0.0,0.0,0.0,0.0,0.0,0.0,0.0,0.0,0.0,0.0,0.0,0.0,0.0,0.0,0.0,0.0,0.0,0.0,0.0,0.0,0.0,0.0,0.0,0.0,0.0,0.0,0.0,0.0,0.0,0.0,0.0,0.0,0.0,0.0,0.0,0.0,0.0,-1.5423,-1.559,-1.6386,-1.7261,-1.8158,-1.8895,-1.9696,-2.0566,0.0,0.0,0.0,0.0,0.0,0.0,0.0,0.0,0.0,0.0,0.0,0.0,0.0,0.0,0.0,0.0,0.0,0.0,0.0,0.0,0.0,0.0,0.0,0.0,0.0,0.0,0.0,0.0,0.0,0.0,0.0,0.0,0.0,0.0,0.0,0.0,0.0,0.0,0.0,0.0,0.0,0.0,0.0,0.0,0.0,0.0,0.0,0.0,0.0,0.0,0.0,0.0,0.0,0.0,0.0,0.0,0.0,0.0,0.0,0.0,0.0,0.0,0.0,0.0,0.0,0.0,0.0,0.0,0.0,0.0,0.0,0.0,0.0,0.0,0.0,0.0,0.0,0.0,0.0,0.0,0.0,0.0,0.0,0.0,0.0,0.0,0.0,0.0,0.0,0.0,0.0,0.0,0.0,0.0,0.0,0.0,0.0,0.0,0.0,0.0,0.0,0.0,0.0,0.0,-1.5665,-1.646,-1.7269,-1.8158,-1.9054,-1.9222,-1.9696,-2.0566,0.0,0.0,0.0,0.0,0.0,0.0,0.0,0.0,0.0,0.0,0.0,0.0,0.0,0.0,0.0,0.0,0.0,0.0,0.0,0.0,0.0,0.0,0.0,0.0,0.0,0.0,0.0,0.0,0.0,0.0,0.0,0.0,0.0,0.0,0.0,0.0,0.0,0.0,0.0,0.0,0.0,0.0,0.0,0.0,0.0,0.0,0.0,0.0,0.0,0.0,0.0,0.0,0.0,0.0,0.0,0.0,0.0,0.0,0.0,0.0,0.0,0.0,0.0,0.0,0.0,0.0,0.0,0.0,0.0,0.0,0.0,0.0,0.0,0.0,0.0,0.0,0.0,0.0,0.0,0.0,0.0,0.0,0.0,0.0,0.0,0.0,0.0,0.0,0.0,0.0,0.0,0.0,0.0,0.0,0.0,0.0,0.0,0.0,0.0,0.0,0.0,0.0,0.0,-1.6064,-1.646,-1.735,-1.8158,-1.8895,-1.9301,-1.9696,-2.0255,-2.0731,-2.1907,0.0,0.0,0.0,0.0,0.0,0.0,0.0,0.0,0.0,0.0,0.0,0.0,0.0,0.0,0.0,0.0,0.0,0.0,0.0,0.0,0.0,0.0,0.0,0.0,0.0,0.0,0.0,0.0,0.0,0.0,0.0,0.0,0.0,0.0,0.0,0.0,0.0,0.0,0.0,0.0,0.0,0.0,0.0,0.0,0.0,0.0,0.0,0.0,0.0,0.0,0.0,0.0,0.0,0.0,0.0,0.0,0.0,0.0,0.0,0.0,0.0,0.0,0.0,0.0,0.0,0.0,0.0,0.0,0.0,0.0,0.0,0.0,0.0,0.0,0.0,0.0,0.0,0.0,0.0,0.0,0.0,0.0,0.0,0.0,0.0,0.0,0.0,0.0,0.0,0.0,0.0,0.0,0.0,0.0,0.0,0.0,0.0,0.0,0.0,0.0,0.0,0.0,-1.718,-1.7666,-1.8318,-1.9204,-1.9775,-1.9775,-2.0333,-2.0886,-2.1195,-2.2574,0.0,0.0,0.0,0.0,0.0,0.0,0.0,0.0,0.0,0.0,0.0,0.0,0.0,0.0,0.0,0.0,0.0,0.0,0.0,0.0,0.0,0.0,0.0,0.0,0.0,0.0,0.0,0.0,0.0,0.0,0.0,0.0,0.0,0.0,0.0,0.0,0.0,0.0,0.0,0.0,0.0,0.0,0.0,0.0,0.0,0.0,0.0,0.0,0.0,0.0,0.0,0.0,0.0,0.0,0.0,0.0,0.0,0.0,0.0,0.0,0.0,0.0,0.0,0.0,0.0,0.0,0.0,0.0,0.0,0.0,0.0,0.0,0.0,0.0,0.0,0.0,0.0,0.0,0.0,0.0,0.0,0.0,0.0,0.0,0.0,0.0,0.0,0.0,0.0,0.0,0.0,0.0,0.0,0.0,0.0,0.0,0.0,0.0,0.0,0.0,0.0,0.0,-1.8461,-1.9668,-1.952,-2.0401,-2.1051,-2.1051,-2.1128,-2.1492,-2.2209,-2.3231,0.0,0.0,0.0,0.0,0.0,0.0,0.0,0.0,0.0,0.0,0.0,0.0,0.0,0.0,0.0,0.0,0.0,0.0,0.0,0.0,0.0,0.0,0.0,0.0,0.0,0.0,0.0,0.0,0.0,0.0,0.0,0.0,0.0,0.0,0.0,0.0,0.0,0.0,0.0,0.0,0.0,0.0,0.0,0.0,0.0,0.0,0.0,0.0,0.0,0.0,0.0,0.0,0.0,0.0,0.0,0.0,0.0,0.0,0.0,0.0,0.0,0.0,0.0,0.0,0.0,0.0,0.0,0.0,0.0,0.0,0.0,0.0,0.0,0.0,0.0,0.0,0.0,0.0,0.0,0.0,0.0,0.0,0.0,0.0,0.0,0.0,0.0,0.0,0.0,0.0,0.0,0.0,0.0,0.0,0.0,0.0,0.0,0.0,0.0,0.0,0.0,0.0,-1.9186,-1.9913,0.0,-2.0964,-2.1205,-2.1205,-2.1645,-2.2271,-2.308,0.0,0.0,0.0,0.0,0.0,0.0,0.0,0.0,0.0,0.0,0.0,0.0,0.0,0.0,0.0,0.0,0.0,0.0,0.0,0.0,0.0,0.0,0.0,0.0,0.0,0.0,0.0,0.0,0.0,0.0,0.0,0.0,0.0,0.0,0.0,0.0,0.0,0.0,0.0,0.0,0.0,0.0,0.0,0.0,0.0,0.0,0.0,0.0,0.0,0.0,0.0,0.0,0.0,0.0,0.0,0.0,0.0,0.0,0.0,0.0,0.0,0.0,0.0,0.0,0.0,0.0,0.0,0.0,0.0,0.0,0.0,0.0,0.0,0.0,0.0,0.0,0.0,0.0,0.0,0.0,0.0,0.0,0.0,0.0,0.0,0.0,0.0,0.0,0.0,0.0,0.0,0.0,0.0,0.0,0.0,0.0,0.0,0.0,0.0,0.0,0.0,0.0,-1.959,-2.007,-2.0605,0.0,-2.1572,-2.1778,-2.2211,-2.2741,-2.346,-2.4554,0.0,0.0,0.0,0.0,0.0,0.0,0.0,0.0,0.0,0.0,0.0,0.0,0.0,0.0,0.0,0.0,0.0,0.0,0.0,0.0,0.0,0.0,0.0,0.0,0.0,0.0,0.0,0.0,0.0,0.0,0.0,0.0,0.0,0.0,0.0,0.0,0.0,0.0,0.0,0.0,0.0,0.0,0.0,0.0,0.0,0.0,0.0,0.0,0.0,0.0,0.0,0.0,0.0,0.0,0.0,0.0,0.0,0.0,0.0,0.0,0.0,0.0,0.0,0.0,0.0,0.0,0.0,0.0,0.0,0.0,0.0,0.0,0.0,0.0,0.0,0.0,0.0,0.0,0.0,0.0,0.0,0.0,0.0,0.0,0.0,0.0,0.0,0.0,0.0,0.0,0.0,0.0,0.0,0.0,0.0,0.0,0.0,0.0,0.0,0.0,0.0,0.0,-1.9913,-2.1031,-2.1917,-2.2145,-2.2422,-2.3061,-2.4355,-2.4557,-2.5237,0.0,0.0,0.0,0.0,0.0,0.0,0.0,0.0,0.0,0.0,0.0,0.0,0.0,0.0,0.0,0.0,0.0,0.0,0.0,0.0,0.0,0.0,0.0,0.0,0.0,0.0,0.0,0.0,0.0,0.0,0.0,0.0,0.0,0.0,0.0,0.0,0.0,0.0,0.0,0.0,0.0,0.0,0.0,0.0,0.0,0.0,0.0,0.0,0.0,0.0,0.0,0.0,0.0,0.0,0.0,0.0,0.0,0.0,0.0,0.0,0.0,0.0,0.0,0.0,0.0,0.0,0.0,0.0,0.0,0.0,0.0,0.0,0.0,0.0,0.0,0.0,0.0,0.0,0.0,0.0,0.0,0.0,0.0,0.0,0.0,0.0,0.0,0.0,0.0,0.0,0.0,0.0,0.0,0.0,0.0,0.0,0.0,0.0,0.0,0.0,0.0,0.0,0.0,-2.192,-2.2371,-2.2672,-2.2897,-2.3515,-2.41,-2.4467,-2.5547,-2.6541,-2.7468,0.0,0.0,0.0,0.0,0.0,0.0,0.0,0.0,0.0,0.0,0.0,0.0,0.0,0.0,0.0,0.0,0.0,0.0,0.0,0.0,0.0,0.0,0.0,0.0,0.0,0.0,0.0,0.0,0.0,0.0,0.0,0.0,0.0,0.0,0.0,0.0,0.0,0.0,0.0,0.0,0.0,0.0,0.0,0.0,0.0,0.0,0.0,0.0,0.0,0.0,0.0,0.0,0.0,0.0,0.0,0.0,0.0,0.0,0.0,0.0,0.0,0.0,0.0,0.0,0.0,0.0,0.0,0.0,0.0,0.0,0.0,0.0,0.0,0.0,0.0,0.0,0.0,0.0,0.0,0.0,0.0,0.0,0.0,0.0,0.0,0.0,0.0,0.0,0.0,0.0,0.0,0.0,0.0,0.0,0.0,0.0,0.0,0.0,0.0,0.0,0.0,0.0,-2.3454,-2.3566,-2.379,-2.4454,-2.5013,-2.5475,-2.6063,-2.7014,-2.7863,-2.8525,0.0,0.0,0.0,0.0,0.0,0.0,0.0,0.0,0.0,0.0,0.0,0.0,0.0,0.0,0.0,0.0,0.0,0.0,0.0,0.0,0.0,0.0,0.0,0.0,0.0,0.0,0.0,0.0,0.0,0.0,0.0,0.0,0.0,0.0,0.0,0.0,0.0,0.0,0.0,0.0,0.0,0.0,0.0,0.0,0.0,0.0,0.0,0.0,0.0,0.0,0.0,0.0,0.0,0.0,0.0,0.0,0.0,0.0,0.0,0.0,0.0,0.0,0.0,0.0,0.0,0.0,0.0,0.0,0.0,0.0,0.0,0.0,0.0,0.0,0.0,0.0,0.0,0.0,0.0,0.0,0.0,0.0,0.0,0.0,0.0,0.0,0.0,0.0,0.0,0.0,0.0,0.0,0.0,0.0,0.0,0.0,0.0,0.0,0.0,0.0,0.0,0.0,-2.453,-2.4689,-2.5182,-2.6439,-2.6644,-2.7147,-2.8414,-2.8542,-2.8961,-2.9792,0.0,0.0,0.0,0.0,0.0,0.0,0.0,0.0,0.0,0.0,0.0,0.0,0.0,0.0,0.0,0.0,0.0,0.0,0.0,0.0,0.0,0.0,0.0,0.0,0.0,0.0,0.0,0.0,0.0,0.0,0.0,0.0,0.0,0.0,0.0,0.0,0.0,0.0,0.0,0.0,0.0,0.0,0.0,0.0,0.0,0.0,0.0,0.0,0.0,0.0,0.0,0.0,0.0,0.0,0.0,0.0,0.0,0.0,0.0,0.0,-1.4905,0.0,0.0,0.0,0.0,0.0,0.0,0.0,0.0,0.0,0.0,0.0,0.0,0.0,0.0,0.0,0.0,0.0,0.0,0.0,0.0,0.0,0.0,0.0,0.0,0.0,0.0,0.0,0.0,0.0,0.0,0.0,0.0,0.0,0.0,0.0,0.0,0.0,0.0,0.0,0.0,0.0,-2.5469,-2.6088,-2.6621,-2.6978,-2.7646,-2.8171,-2.845,-2.9118,-2.9624,-2.9792,-2.9792,0.0,0.0,0.0,0.0,0.0,0.0,0.0,0.0,0.0,0.0,0.0,0.0,0.0,0.0,0.0,0.0,0.0,0.0,0.0,0.0,0.0,0.0,0.0,0.0,0.0,0.0,0.0,0.0,0.0,0.0,0.0,0.0,0.0,0.0,0.0,0.0,0.0,0.0,0.0,0.0,0.0,0.0,0.0,0.0,0.0,0.0,0.0,0.0,0.0,0.0,0.0,0.0,0.0,0.0,0.0,0.0,0.0,0.0,0.0,0.0,-1.5486,0.0,0.0,0.0,0.0,0.0,0.0,0.0,0.0,0.0,0.0,0.0,0.0,0.0,0.0,0.0,0.0,0.0,0.0,0.0,0.0,0.0,0.0,0.0,0.0,0.0,0.0,0.0,0.0,0.0,0.0,0.0,0.0,0.0,0.0,0.0,0.0,0.0,0.0,0.0,0.0,-2.6367,-2.7221,-2.7971,-2.8383,-2.8803,-2.9131,-2.9131,-2.9546,-2.9792,-2.9792,-3.0139,0.0,0.0,0.0,0.0,0.0,0.0,0.0,0.0,0.0,0.0,0.0,0.0,0.0,0.0,0.0,0.0,0.0,0.0,0.0,0.0,0.0,0.0,0.0,0.0,0.0,0.0,0.0,0.0,0.0,0.0,0.0,0.0,0.0,0.0,0.0,0.0,0.0,0.0,0.0,0.0,0.0,0.0,0.0,0.0,0.0,0.0,0.0,0.0,0.0,0.0,0.0,0.0,0.0,-1.1716,-1.2409,-1.3516,-1.4631,-1.5016,-1.4894,-1.5543,-1.5832,-1.5832,0.0,0.0,0.0,0.0,0.0,0.0,0.0,0.0,0.0,0.0,0.0,0.0,0.0,0.0,0.0,0.0,0.0,0.0,0.0,0.0,0.0,0.0,0.0,0.0,0.0,-2.3493,-2.357,0.0,0.0,0.0,0.0,0.0,0.0,0.0,0.0,0.0,0.0,0.0,0.0,-2.7232,-2.8131,-2.904,-2.9702,-2.9792,-2.9792,-2.9792,-2.9792,-2.9792,-2.9792,-3.0343,-3.0758,0.0,0.0,0.0,0.0,0.0,0.0,0.0,0.0,0.0,0.0,0.0,0.0,0.0,0.0,0.0,0.0,0.0,0.0,0.0,0.0,0.0,0.0,0.0,0.0,0.0,0.0,0.0,0.0,0.0,0.0,0.0,0.0,-0.1487,-0.1522,0.0,0.0,0.0,0.0,0.0,0.0,0.0,0.0,0.0,0.0,0.0,0.0,0.0,-0.8825,-0.8825,-0.9153,-0.9751,-1.0918,-1.2026,-1.3121,-1.4201,-1.5268,-1.5728,-1.5695,-1.575,0.0,-1.5832,-1.5832,0.0,0.0,0.0,0.0,0.0,0.0,0.0,0.0,0.0,0.0,0.0,0.0,0.0,0.0,0.0,0.0,0.0,0.0,0.0,0.0,0.0,0.0,-2.3503,-2.3503,-2.3667,-2.3841,0.0,-2.4024,-2.412,-2.4206,-2.4378,0.0,0.0,0.0,0.0,0.0,0.0,0.0,-2.8211,-2.904,-2.9702,-2.9792,-2.9792,-2.9792,-2.9792,-2.9792,-2.9792,-2.9792,-2.9856,-3.0203,-3.0895,-3.0895,0.0,0.0,0.0,0.0,0.0,0.0,0.0,0.0,0.0,0.0,0.0,0.0,0.0,0.0,0.0,0.0,0.0,0.0,0.0,0.0,0.0,0.0,0.0,0.0,0.0,0.0,0.0,0.0,0.0,-0.1487,-0.1517,-0.1548,-0.1579,-0.1801,0.0,0.0,0.0,0.0,0.0,0.0,0.0,0.0,0.0,-0.9031,-0.9031,-0.913,-0.9225,-0.9327,-1.0207,-1.1853,-1.2436,-1.3601,-1.5159,-1.5635,-1.5832,-1.5832,-1.5832,-1.5832,-1.5832,-1.5832,-1.6197,-1.685,0.0,0.0,0.0,0.0,-2.0232,-2.0979,-2.1952,-2.2403,0.0,0.0,0.0,0.0,0.0,0.0,0.0,0.0,0.0,0.0,0.0,0.0,0.0,-2.3667,-2.3937,-2.4196,-2.4206,-2.4292,-2.4378,0.0,-2.4454,-2.454,-2.454,0.0,0.0,0.0,0.0,-2.8051,-2.8462,-2.9287,-2.9792,-2.9792,-2.9792,-2.9792,-2.9792,-2.9792,-2.9792,-2.9792,-3.0216,-3.0771,-3.1563,-3.1563,-3.1769,0.0,0.0,0.0,0.0,0.0,0.0,0.0,0.0,0.0,0.0,0.0,0.0,0.0,0.0,0.0,0.0,0.0,0.0,0.0,0.0,0.0,0.0,0.0,0.0,0.0,0.0,0.0,0.0,-0.1507,-0.1537,-0.1568,-0.1896,-0.2421,0.0,0.0,0.0,0.0,0.0,0.0,-0.8829,-0.8928,-0.9027,-0.9331,-0.9331,-0.943,-0.9628,-0.9628,-1.06,-1.2727,-1.2791,-1.3893,-1.5945,-1.5945,-1.5945,-1.5939,-1.5865,-1.5832,-1.5825,-1.6109,-1.6763,-1.7692,-1.7963,-1.9139,-2.0773,-2.1123,-2.1854,-2.2608,-2.296,-2.3135,-2.3135,-2.3135,0.0,-2.3135,-2.3135,0.0,0.0,0.0,0.0,-2.3232,-2.3493,-2.3667,-2.3841,-2.3937,-2.4196,-2.4454,-2.4615,-2.469,-2.4861,0.0,-2.4861,-2.4861,-2.5115,0.0,0.0,0.0,0.0,-2.8542,-2.8791,-2.9378,-2.9792,-2.9792,-2.9792,-2.9792,-2.9792,-2.9792,-2.9792,-2.9792,-3.0355,-3.1057,-3.2074,-3.2074,-3.2434,-3.3213,0.0,0.0,0.0,0.0,0.0,0.0,0.0,0.0,0.0,0.0,0.0,0.0,0.0,0.0,0.0,0.0,0.0,0.0,0.0,0.0,0.0,0.0,0.0,0.0,0.0,0.0,0.0,0.0,0.0,-0.1568,-0.2689,0.0,0.0,0.0,0.0,-0.683,-0.8024,-0.8829,-0.9133,-0.9137,-0.9331,-0.9529,-0.9628,-0.9628,-0.9628,-0.9628,-1.06,-1.2732,-1.3057,-1.426,-1.6253,-1.6253,-1.6253,-1.6239,-1.5952,-1.5832,-1.5825,-1.6864,-1.7419,-1.7785,-1.868,-1.9422,-2.0068,-2.0944,-2.1489,-2.1872,-2.2784,-2.3135,-2.3135,-2.3135,-2.3135,-2.3135,-2.3135,-2.3135,0.0,0.0,-2.3503,-2.3503,-2.3754,-2.3754,-2.3841,-2.411,-2.4206,-2.4529,-2.5495,-2.5746,-2.5746,0.0,-2.5746,-2.5997,-2.6823,0.0,-2.7313,-2.8211,-2.8462,-2.8791,-2.9624,-2.9792,-2.9792,-2.9792,-2.9792,-2.9792,-2.9792,-2.9792,-2.9792,-2.9792,-2.9869,-3.0508,-3.2015,-3.2074,-3.2434,-3.3213,-3.3143,0.0,0.0,0.0,0.0,0.0,0.0,0.0,0.0,0.0,0.0,0.0,0.0,0.0,0.0,0.0,0.0,0.0,0.0,0.0,0.0,0.0,0.0,0.0,0.0,0.0,0.0,0.0,0.0,-0.2587,-0.301,0.0,-0.5327,-0.6526,-0.7524,-0.8329,-0.8928,-0.9327,-0.943,-0.943,-0.9577,-0.9791,-0.9791,-0.9851,-0.9969,-1.0676,-1.1784,-1.319,-1.4087,-1.5238,-1.6553,-1.6553,-1.6553,-1.6547,-1.644,-1.6393,-1.6491,-1.7462,-1.7794,-1.7777,-1.8956,-1.9951,-2.0953,-2.2041,-2.2501,-2.2687,-2.296,-2.3135,-2.3135,-2.3135,-2.3135,-2.3135,-2.3135,-2.3135,-2.3135,-2.3232,-2.3416,-2.359,-2.3754,-2.3937,-2.4272,-2.5009,-2.5263,-2.5505,-2.64,-2.6648,-2.6812,-2.7383,-2.7058,-2.673,-2.7069,-2.7637,-2.8131,-2.8462,-2.8961,-2.9456,-2.9792,-2.9792,-2.9792,-2.9792,-2.9792,-2.9792,-2.9792,-2.9792,-2.9792,-2.9792,-3.0279,-3.0996,-3.2074,-3.2577,-3.3157,-3.3962,-3.3962,-3.3381,0.0,0.0,0.0,0.0,0.0,0.0,0.0,0.0,0.0,0.0,0.0,0.0,0.0,0.0,0.0,0.0,0.0,0.0,0.0,0.0,0.0,0.0,0.0,0.0,0.0,0.0,-0.1934,-0.311,-0.3725,-0.4726,-0.6628,-0.7524,-0.8326,-0.9133,-0.943,-0.9652,-0.9709,-0.9713,-0.9795,-0.9973,-0.9977,-1.0038,-1.016,-1.1291,-1.2417,-1.3448,-1.4765,-1.5833,-1.6854,-1.6854,-1.6854,-1.6847,-1.6747,-1.6707,-1.6707,-1.7399,-1.7833,-1.8187,-1.9551,-2.0879,-2.2031,-2.2775,-2.3135,-2.3135,-2.3135,-2.3135,-2.3135,-2.3135,-2.3135,-2.3135,-2.3135,-2.3135,-2.3135,-2.3232,-2.3319,-2.359,-2.3851,-2.4272,-2.485,-2.5579,-2.5986,-2.6483,-2.7395,-2.7557,-2.7799,-2.8791,-2.8211,-2.7649,-2.7971,-2.8554,-2.8961,-2.8961,-2.9456,-2.9792,-2.9792,-2.9792,-2.9792,-2.9792,-2.9792,-2.9792,-2.9792,-2.9792,-2.9792,-2.9792,-3.0482,-3.1267,-3.2074,-3.2577,-3.3227,-3.3977,-3.3977,-3.352,-3.2434,0.0,0.0,0.0,0.0,0.0,0.0,0.0,0.0,0.0,0.0,0.0,0.0,0.0,0.0,0.0,0.0,0.0,0.0,0.0,0.0,0.0,0.0,0.0,-0.1522,-0.1527,-0.1936,-0.311,-0.4624,-0.5924,-0.6828,-0.8528,-0.9533,-0.9244,-0.9438,-0.9709,-0.9884,-0.9892,-0.9977,-1.0164,-1.0172,-1.0172,-1.018,-1.1412,-1.2437,-1.347,-1.4947,-1.6219,-1.7161,-1.7161,-1.7161,-1.7148,-1.6854,-1.6734,-1.6734,-1.6727,-1.7605,-1.892,-2.0686,-2.208,-2.3086,-2.3096,-2.3164,-2.3154,-2.3144,-2.3135,-2.3135,-2.3135,-2.3135,-2.3135,-2.3135,-2.3135,-2.3135,-2.3406,-2.3503,-2.359,-2.411,-2.485,-2.5568,-2.5819,-2.6565,-2.7395,-2.8303,-2.8542,-2.8791,-2.9624,-2.9131,-2.8791,-2.9624,-2.9792,-2.9792,-2.9792,-2.9792,0.0,-2.9792,-2.9792,-2.9792,-2.9792,-2.9792,-2.9792,-2.9792,-2.9792,-2.9792,-2.9869,-3.0558,-3.1328,-3.2074,-3.2146,-3.2506,-3.3213,-3.3213,-3.3213,-3.3213,0.0,0.0,0.0,0.0,0.0,0.0,0.0,0.0,0.0,0.0,0.0,0.0,0.0,0.0,0.0,0.0,0.0,0.0,0.0,0.0,0.0,0.0,-0.1491,-0.1522,-0.1545,-0.2258,-0.4112,-0.4926,-0.6126,-0.8024,-0.8931,-0.9383,-0.9706,-0.9815,-0.9892,-1.0075,-1.0087,-1.0168,-1.0355,-1.0359,-1.042,-1.0546,-1.2457,-1.3625,-1.3943,-1.6039,-1.7252,-1.7462,-1.7462,-1.7462,-1.7462,-1.7375,-1.7341,-1.7445,-1.8348,-1.9411,-2.0434,-2.0666,-2.1611,-2.2843,-2.3688,-2.3877,-2.3564,-2.3252,-2.3135,-2.3135,-2.3135,-2.3135,-2.3135,-2.3135,-2.3135,-2.3135,-2.3232,-2.3493,-2.3917,-2.4648,-2.5316,-2.6069,-2.7464,-2.7971,-2.8383,-2.9287,-2.9456,-2.9534,-2.9792,-2.9624,-2.9534,-2.9792,-2.9792,-2.9792,-2.9792,-2.9792,0.0,-2.9792,-2.9792,-2.9792,-2.9792,-2.9792,-2.9792,-2.9792,-2.9792,-2.9998,-3.0545,-3.1355,-3.2146,-3.2861,-3.3465,-3.3825,-3.4045,-3.352,-3.3213,0.0,0.0,0.0,0.0,0.0,0.0,0.0,0.0,0.0,0.0,0.0,0.0,0.0,0.0,0.0,0.0,0.0,0.0,0.0,0.0,0.0,0.0,-0.1472,-0.1506,-0.1523,-0.1552,-0.2469,-0.4716,-0.5129,-0.6247,-0.8818,-0.9234,-0.9509,-0.9989,-1.0002,-1.0083,-1.0266,-1.0274,-1.0359,-1.0538,-1.0542,-1.059,-1.0692,-1.2955,-1.4132,-1.4132,-1.6499,-1.7582,-1.7582,-1.7582,-1.7582,0.0,-1.7582,-1.7582,-1.7681,-1.9013,-2.0319,0.0,0.0,0.0,0.0,0.0,-2.4258,-2.4014,-2.376,-2.3555,-2.3408,-2.3408,-2.3291,-2.3174,-2.3359,-2.3408,-2.3408,-2.3408,-2.3673,-2.4149,-2.4935,-2.5641,-2.6565,-2.8131,-2.8791,-2.9209,-2.9714,-2.9792,-2.9792,-2.9792,-2.9792,0.0,-2.9792,-2.9792,-2.9792,-2.9792,-2.9792,-2.9792,-2.9792,-2.9792,-2.9792,-2.9792,-2.9792,-2.9792,-2.9792,-2.9792,0.0,0.0,0.0,-3.2434,-3.3143,-3.3673,0.0,0.0,0.0,-3.3367,-3.3673,0.0,0.0,0.0,-3.2607,-3.2046,0.0,0.0,0.0,0.0,0.0,0.0,0.0,0.0,0.0,0.0,0.0,0.0,0.0,0.0,0.0,0.0,-0.1486,-0.1526,-0.1526,-0.1555,-0.2474,-0.4918,-0.5238,-0.6388,-0.9158,-0.9501,-0.9788,-1.018,-1.0193,-1.027,-1.0456,0.0,0.0,0.0,0.0,-1.0692,-1.0692,-1.2955,-1.4132,-1.4132,-1.6499,-1.7582,-1.7582,-1.7582,-1.7582,-1.7582,-1.7582,-1.7582,-1.7687,-1.922,-2.0743,-2.2223,-2.2993,-2.3823,-2.456,-2.4512,-2.4492,-2.4482,-2.4434,0.0,0.0,-2.3857,-2.3603,-2.335,-2.374,-2.3857,-2.3857,-2.3857,-2.4127,-2.4533,-2.5157,-2.6218,-2.7383,-2.8395,-2.9209,-2.9792,-2.9792,-2.9792,-2.9792,-2.9792,-2.9792,-2.9792,-2.9792,-2.9792,-2.9792,-2.9792,-2.9792,-2.9792,-2.9792,-2.9792,-2.9792,-2.9792,0.0,0.0,-2.9792,-2.9792,-3.0139,-3.097,-3.1856,-3.2648,-3.3297,-3.3367,-3.3367,-3.3367,-3.3367,-3.3673,-3.4414,-3.4414,-3.4549,-3.4698,-3.3269,-3.2335,0.0,0.0,0.0,0.0,0.0,0.0,0.0,0.0,0.0,0.0,0.0,0.0,0.0,0.0,0.0,-0.1436,-0.1486,-0.1526,-0.1526,-0.1573,-0.2411,-0.4622,-0.5392,-0.6675,-0.8969,-0.9713,-1.0184,-1.0367,-1.0383,-1.0461,-1.0631,-1.0643,-1.066,-1.0692,-1.0692,-1.0692,-1.0692,-1.2955,-1.4132,-1.4132,0.0,0.0,-1.7582,-1.7582,-1.7582,-1.7582,-1.7582,-1.7582,-1.7786,-2.0231,-2.2767,-2.4913,-2.513,-2.5257,-2.5439,-2.5078,-2.4941,-2.4893,-2.4541,-2.4365,-2.4297,-2.4297,-2.4238,-2.4189,-2.4268,-2.4297,0.0,-2.4297,-2.5169,-2.6197,-2.6582,-2.7736,-2.891,-2.9398,-2.9702,-2.9792,-2.9792,-2.9792,-2.9792,-2.9792,-2.9792,-2.9792,-2.9792,-2.9792,-2.9792,-2.9792,-2.9792,-2.9792,-2.9792,-2.9792,-2.9792,-2.9792,-2.9792,-2.9792,-2.9792,-2.9792,-3.0355,-3.1783,-3.3171,-3.4045,-3.4182,-3.4182,-3.4182,-3.4182,-3.4182,-3.4332,-3.4631,-3.4631,-3.4831,-3.5082,-3.4639,-3.3796,0.0,0.0,0.0,0.0,0.0,0.0,0.0,0.0,0.0,0.0,0.0,-0.1436,0.0,0.0,-0.144,-0.1455,-0.1496,-0.1531,-0.1547,-0.1601,-0.2557,-0.479,-0.544,-0.6543,-0.8678,-0.9606,-1.0044,-0.9892,-1.0345,-1.0603,-1.0688,-1.0692,-1.0692,-1.0692,-1.0607,-1.0603,-1.0692,-1.2851,-1.4024,-1.4132,-1.6499,-1.7582,-1.7582,-1.7582,-1.7582,-1.7582,-1.7582,-1.7582,-1.7786,-2.0531,-2.3276,-2.5742,-2.5742,-2.5742,-2.5713,-2.5488,-2.54,-2.5371,-2.5156,-2.4932,-2.4746,-2.4746,-2.459,-2.4453,-2.4678,-2.4746,-2.4746,-2.4746,-2.5819,-2.7044,-2.7422,-2.8417,-2.944,-3.0099,-2.9993,-2.9792,-2.9792,-2.9792,-2.9792,-2.9792,-2.9792,-2.9792,-2.9792,-2.9792,-2.9792,-2.9792,-2.9792,-2.9792,-2.9792,-2.9792,-2.9792,-2.9792,-2.9792,-2.9833,-2.9896,-3.0328,-3.0851,-3.1681,-3.2815,-3.347,-3.347,-3.3775,-3.3935,-3.3935,-3.4254,-3.4481,-3.4563,-3.4631,-3.4765,-3.4964,-3.5016,-3.4572,0.0,0.0,0.0,0.0,0.0,0.0,0.0,0.0,-0.1166,-0.1345,-0.1436,-0.1436,-0.1436,-0.1436,-0.1445,-0.1476,-0.1506,-0.1538,-0.1575,-0.1628,-0.2599,-0.4902,-0.5426,-0.6435,-0.8464,-0.9593,-0.9989,-0.9684,-1.0218,-1.0643,-1.0643,-1.0611,-1.0586,-1.0586,-1.0489,-1.0501,-1.0639,-1.2874,-1.3954,-1.4132,-1.6499,-1.7582,-1.7582,-1.7582,-1.7582,-1.7582,-1.7694,-1.7996,-1.8603,-2.0837,-2.3285,-2.5742,-2.5742,-2.5742,-2.5742,-2.5742,-2.5742,-2.5742,-2.5742,-2.5508,-2.5195,-2.5195,-2.4961,-2.4736,-2.5088,-2.5195,-2.5195,-2.5195,-2.6371,-2.7709,-2.7944,-2.8908,-2.9955,-3.0623,-3.0344,-2.9955,-2.9955,-2.9867,-2.9792,-2.9792,-2.9792,-2.9792,-2.9792,-2.9792,-2.9792,-2.9792,-2.9792,-2.9792,-2.9792,-2.9792,-2.9792,-2.9792,-2.9691,-2.9682,-2.9822,-3.0581,-3.1188,-3.1321,-3.2033,-3.2571,-3.2701,-3.3195,-3.3529,-3.3645,-3.4153,-3.4414,-3.4481,-3.4683,-3.4765,-3.4831,-3.5162,-3.492,0.1793,0.0628,-0.0179,0.0448,-0.0179,-0.1076,0.0,0.0,-0.1345,-0.1436,-0.1436,-0.1436,-0.1436,-0.1436,-0.1445,-0.1476,-0.1506,-0.1546,-0.1604,-0.1641,-0.2415,-0.4324,-0.5414,-0.6821,-0.8582,-0.9911,-1.0558,-1.0578,-1.0442,-1.0465,-1.0465,-1.031,-1.0221,-1.0221,-1.0359,-1.0444,-1.0465,-1.2837,-1.411,-1.4132,-1.6499,-1.7582,-1.7582,-1.7582,-1.7582,-1.7582,-1.7806,-1.9228,-2.1245,-2.187,-2.3502,-2.5742,-2.5742,-2.5742,-2.5742,-2.5742,-2.5742,-2.5742,-2.5742,-2.5703,-2.5664,-2.5664,-2.5635,-2.5596,-2.5644,-2.5664,-2.5664,-2.5664,-2.7138,-2.876,-2.8544,-3.006,-3.1593,-3.1342,-3.0896,-3.052,-3.052,-3.0143,-2.9792,-2.9792,-2.9792,-2.9792,-2.9792,-2.9792,-2.9792,-2.9792,-2.9792,-2.9792,-2.9792,-2.9792,-2.9792,-2.9792,-2.934,-2.9073,-2.9197,-2.9937,-3.065,-3.1254,-3.2033,-3.2774,-3.334,-3.3427,-3.3732,-3.4298,-3.4385,-3.4534,-3.4868,-3.4868,-3.5082,-3.5439,-3.5439,-3.5001,0.1701,0.1164,0.0895,0.0,-0.0717,-0.1256,-0.1256,-0.1345,-0.1436,-0.1436,-0.1436,-0.1436,-0.1436,-0.1436,-0.1451,0.0,-0.1517,-0.1553,-0.1633,-0.1668,-0.2225,-0.365,-0.4768,-0.5902,-0.7174,-0.8804,-0.9559,-0.9012,-0.9838,-1.0274,-1.0274,-1.0205,-1.0209,-1.0318,-1.0294,-1.0375,-1.0582,-1.2792,-1.4008,-1.4132,-1.6499,-1.7582,-1.7582,-1.7582,-1.7582,-1.7582,-1.7911,-1.9435,-2.1752,-2.1979,-2.3502,-2.5742,-2.5742,-2.5742,-2.5742,-2.5742,-2.5742,-2.5742,-2.5742,-2.5742,-2.5742,-2.5742,-2.5742,-2.5742,-2.5742,-2.5742,-2.5742,-2.5742,-2.7305,-2.9006,-2.9058,-3.0513,-3.1925,-3.1843,-3.1461,-3.0984,-3.0683,-3.0432,-3.0181,-2.9854,-2.9792,-2.9792,-2.9792,-2.9792,-2.9792,-2.9792,-2.9792,-2.9666,-2.934,-2.9289,-2.9164,-2.885,-2.8988,-2.9157,-2.9238,-2.9983,-3.0587,-3.084,-3.1527,-3.2063,-3.2324,-3.3064,-3.3652,-3.3966,-3.4359,-3.4683,-3.4935,-3.5001,-3.5148,-3.5359,-3.5439,-3.5294,0.2416,0.0,0.0,0.0,-0.0896,-0.1345,-0.1256,-0.1256,-0.1436,-0.1436,-0.1436,-0.1436,-0.1436,-0.1436,-0.1455,-0.1516,-0.1533,-0.157,-0.1661,-0.1797,-0.2346,-0.3322,-0.4098,-0.5005,-0.5841,-0.784,-0.8855,-0.8214,-0.9343,-1.0087,-1.0087,-1.0087,-1.0148,-1.0278,-1.0253,-1.0359,-1.0619,-1.2884,-1.397,-1.4132,-1.6499,-1.7582,-1.7582,-1.7582,-1.7687,-1.7694,-1.801,-1.9539,-2.1862,-2.208,-2.3601,-2.5742,-2.5742,-2.5742,-2.5742,-2.5742,-2.5742,-2.5742,-2.5742,-2.5742,-2.5742,-2.5742,-2.5742,-2.5742,-2.5742,-2.5742,-2.5742,-2.5742,-2.721,-2.8958,-2.9315,-3.0696,-3.2127,-3.2369,-3.2014,-3.1512,-3.1135,-3.0934,-3.067,-3.0118,-3.0018,-2.9967,-2.9817,-2.9792,-2.9792,-2.9792,-2.9654,-2.9402,-2.8988,-2.88,-2.8486,-2.7946,-2.8582,-2.9053,-2.9091,-2.9848,-3.0387,-3.0568,-3.1177,-3.1598,-3.1787,-3.2875,-3.3675,-3.3966,-3.4449,-3.4817,-3.5001,-3.5148,-3.5213,-3.5294,-3.5439,-3.5504,0.0,0.0,0.0716,0.0715,-0.0358,-0.1436,-0.1436,-0.1436,-0.1436,-0.1436,-0.1436,-0.1436,-0.1436,-0.1436,-0.1455,-0.1516,-0.1551,-0.1601,-0.169,-0.213,-0.268,-0.3378,-0.3875,-0.4477,0.0,-0.7434,-0.901,-0.9014,-0.9583,-0.9892,-0.9892,-0.9892,-0.9896,-0.99,-1.0241,-1.0432,-1.0444,-1.2846,-1.4126,-1.4132,-1.6499,-1.7582,-1.7582,-1.7582,-1.7694,-1.8016,-1.8318,-1.9849,-2.2089,-2.2391,-2.3809,-2.5742,-2.5742,-2.5742,-2.5742,-2.5742,-2.5742,-2.5742,-2.5742,-2.5742,-2.5742,-2.5742,-2.5742,-2.5742,-2.5742,-2.5742,-2.5742,-2.5742,-2.7115,-2.8866,-2.9315,-3.089,-3.2537,-3.2957,-3.2604,-3.2177,-3.2164,-3.1738,-3.121,-3.0696,-3.0595,-3.0419,-2.988,-2.9792,-2.9792,-2.9792,-2.9315,-2.895,-2.8925,-2.8461,-2.7921,-2.7369,-2.7945,-2.8369,-2.8509,-2.9233,-2.9931,-3.0568,-3.1177,-3.1801,-3.2454,-3.3122,-3.3893,-3.4654,-3.4683,-3.4831,-3.5213,-3.5213,-3.5294,-3.5504,-3.5504,-3.5504,0.3307,0.0,0.1251,-0.0269,-0.1076,-0.1436,-0.1436,-0.1436,-0.1436,-0.1436,-0.1436,-0.1436,-0.1436,-0.1452,-0.1485,-0.1547,-0.1581,-0.1727,-0.2119,-0.2345,-0.287,-0.3803,-0.451,0.0,0.0,0.0,0.0,-0.7911,-0.9,-0.9766,-0.988,-0.9884,-0.9998,-1.0241,-1.0371,-1.0489,-1.0603,-1.2916,-1.4132,-1.4132,-1.6499,-1.7582,-1.7582,-1.7582,-1.7799,-1.8016,-1.8325,-1.945,-2.1081,-2.2089,-2.3294,-2.4707,-2.543,-2.5742,-2.5742,-2.5742,-2.5742,-2.5742,-2.5742,-2.5742,-2.5742,-2.5742,-2.5742,-2.5742,-2.5742,-2.5742,-2.5742,-2.5742,-2.7115,-2.8762,-2.9315,-3.0902,-3.2475,-3.2995,-3.293,-3.2679,-3.2303,-3.2064,-3.1775,-3.1235,-3.0846,-3.0557,-3.0369,-3.003,-2.9666,-2.9277,-2.875,-2.8247,-2.7883,-2.7755,-2.7653,-2.7472,-2.849,-2.9187,-2.9233,-2.987,-3.056,-3.1177,-3.1816,-3.2533,-3.3287,-3.3959,-3.4545,-3.5016,-3.5016,-3.5162,-3.5424,-3.5424,-3.5439,-3.5504,-3.5504,-3.5504,0.3127,0.2234,0.143,-0.0448,-0.1166,-0.1436,-0.1436,-0.1436,-0.1436,-0.1436,-0.1436,-0.1439,-0.145,-0.1468,-0.1504,-0.1576,-0.1604,-0.1843,-0.2438,-0.2648,-0.3151,-0.3945,-0.4735,-0.5099,0.0,0.0,0.0,-0.736,-0.8836,-0.9766,-0.988,-1.001,-1.0188,-1.0428,-1.0493,-1.0582,-1.0688,-1.2955,-1.4561,-1.5316,-1.6829,-1.7582,-1.7582,-1.7582,-1.7799,-1.8115,-1.8325,-1.9242,-2.0783,-2.1988,-2.3085,-2.4196,-2.5323,-2.5742,-2.5742,-2.5742,-2.5742,-2.5713,-2.5557,-2.5498,-2.5498,-2.5498,-2.5498,-2.5527,-2.5684,-2.5742,-2.5742,-2.5742,-2.6935,-2.8391,-2.9223,-3.0621,-3.2101,-3.2896,-3.3081,-3.2968,-3.2604,-3.2516,-3.2353,-3.1788,-3.1248,-3.0834,-3.0645,-3.0156,-2.9591,-2.9013,-2.8624,-2.8134,-2.7381,-2.7554,-2.7706,-2.7497,-2.8776,-2.9623,-2.9623,-3.019,-3.0843,-3.1482,-3.2213,-3.2931,-3.3659,-3.4398,-3.4883,-3.5213,-3.5213,-3.5294,-3.5504,-3.5504,-3.5504,-3.5504,-3.5504,-3.5504,0.3757,0.2504,0.1164,0.0179,-0.0718,-0.1436,-0.1436,-0.1436,-0.1436,-0.1436,-0.1436,-0.1444,0.0,0.0,-0.1515,-0.1605,-0.1622,-0.1848,-0.2439,-0.3043,-0.3524,0.0,0.0,0.0,0.0,0.0,0.0,-0.7247,0.0,-0.9892,-0.9912,-1.0245,-1.044,-1.0448,-1.0607,-1.0692,-1.0692,-1.2955,-1.5316,-1.7582,-1.7582,-1.7582,-1.7582,-1.7582,-1.7898,-1.8422,-1.8422,-1.9346,-2.0987,-2.2089,-2.3085,-2.4196,-2.5323,-2.5742,-2.5742,-2.5742,-2.5723,-2.5635,-2.5185,-2.5049,-2.5059,-2.5039,-2.5029,-2.5117,-2.5566,-2.5703,-2.5713,-2.5732,-2.6466,-2.7558,-2.9039,-3.0147,-3.1359,-3.2797,-3.3081,-3.3081,-3.3081,-3.3081,-3.2918,-3.2365,-3.1788,-3.1223,-3.067,-3.0143,-2.9603,-2.9051,-2.8976,-2.8574,-2.7469,-2.7983,-2.815,-2.7642,-2.8894,-2.9651,-2.9623,-3.0251,-3.0858,-3.1526,-3.2368,-3.3074,-3.3718,-3.4464,-3.5001,-3.5213,-3.5213,-3.5294,-3.5504,-3.5504,-3.5504,-3.5504,-3.5504,-3.5504,0.2416,0.17,0.1164,0.0,-0.0897,-0.1436,-0.1436,-0.1436,-0.1436,-0.1436,-0.1436,-0.1444,0.0,0.0,0.0,-0.1639,-0.2004,0.0,-0.2982,-0.3606,0.0,-0.4581,0.0,-0.6437,-0.6042,-0.7928,0.0,0.0,-0.9349,-1.0006,-1.0282,-1.0383,-1.0493,-1.0623,-1.0668,-1.0692,-1.0692,-1.2955,-1.5316,-1.7582,-1.7582,-1.7582,-1.7582,-1.7582,-1.7898,-1.8422,-1.8422,-1.9346,-2.0987,-2.2089,-2.3085,-2.4196,-2.5323,-2.5742,-2.5742,-2.5742,-2.5527,-2.5176,-2.4736,-2.4795,-2.501,-2.4687,-2.458,-2.4668,-2.5107,-2.5244,-2.5312,-2.5644,-2.6924,-2.8484,-2.9223,-3.0711,-3.2201,-3.2909,-3.3081,-3.3081,-3.3081,-3.3081,-3.3031,-3.288,-3.2064,-3.1097,-3.0168,-2.988,-2.9741,-2.9591,-2.9578,-2.9164,-2.8047,-2.8987,-2.9578,-2.8893,-3.0157,-3.083,-3.0355,-3.0507,-3.1061,-3.2193,-3.2567,-3.3343,-3.4559,-3.4912,-3.5213,-3.5439,-3.5439,-3.5439,-3.5504,-3.5504,-3.5504,-3.5504,-3.5504,-3.5504,0.2058,0.1253,0.0537,0.0179,-0.0628,-0.1436,-0.1436,-0.1436,-0.1436,-0.1436,-0.1436,0.0,-0.1493,0.0,0.0,0.0,0.0,0.0,-0.3624,-0.4019,-0.4373,0.0,-0.5634,0.0,-0.6539,-0.7961,-0.8995,0.0,-0.9872,-1.0217,-1.0424,-1.0505,-1.059,-1.0688,-1.0692,-1.1232,-1.22,-1.403,-1.5749,-1.7582,-1.7582,-1.7582,-1.7582,-1.7582,-1.7898,-1.8422,0.0,-1.9346,-2.0987,-2.2089,-2.3085,-2.4177,-2.5112,-2.5439,-2.542,-2.5225,-2.5,-2.4717,-2.4287,-2.4307,-2.4473,-2.4219,-2.4141,-2.4219,-2.4648,-2.5278,-2.5852,-2.6019,-2.7327,-2.8958,-2.9784,-3.0902,-3.2001,-3.2896,-3.3081,-3.3081,-3.3081,-3.3081,-3.293,-3.2428,-3.1637,-3.0783,-2.993,-2.9792,-2.9934,-3.0203,-3.0266,-3.0188,-2.99,-3.0304,-3.0541,-3.0264,-3.1027,-3.1366,-3.1018,-3.0727,-3.1119,-3.244,-3.2752,-3.3515,-3.481,-3.5148,-3.5359,-3.5504,-3.5504,-3.5504,-3.5504,-3.5504,-3.5504,-3.5504,-3.5504,-3.5504,0.197,0.0896,-0.0269,0.0359,-0.0448,-0.1436,-0.1436,-0.1436,-0.1436,-0.1436,0.0,-0.1454,-0.1515,-0.1554,-0.1807,-0.2536,0.0,-0.3106,-0.405,-0.4308,-0.4439,-0.4746,-0.4935,-0.5536,-0.7039,-0.7474,-0.844,-1.0044,-1.0355,-1.0469,-1.0469,-1.0611,-1.0692,-1.0692,-1.0802,-1.1987,-1.403,-1.5322,-1.6505,-1.7582,-1.7582,-1.7582,-1.7582,-1.7687,-1.7898,-1.8422,0.0,0.0,-2.1111,-2.1963,-2.3035,-2.4198,-2.4737,-2.498,-2.4941,-2.456,-2.4385,-2.4277,-2.3916,-2.375,-2.3701,-2.3701,-2.3701,-2.3779,-2.4209,-2.5309,-2.6464,-2.6578,-2.7633,-2.9145,-3.0508,-3.0991,-3.1424,-3.271,-3.2968,-3.2943,-3.2867,-3.2855,-3.2541,-3.1486,-3.0922,-3.0444,-2.9892,-2.9792,-2.9998,-3.0683,-3.082,-3.118,-3.2001,-3.1697,-3.1446,-3.1612,-3.1725,-3.17,-3.154,-3.1018,-3.1221,-3.244,-3.2849,-3.3549,-3.4876,-3.5294,-3.5504,-3.5504,-3.5504,-3.5504,-3.5504,-3.5504,-3.5504,-3.5504,-3.5504,-3.5504,0.0269,-0.0179,-0.0359,-0.0269,-0.0807,-0.1436,-0.1436,-0.1436,0.0,0.0,-0.1436,-0.1454,-0.1515,-0.1571,-0.1833,-0.2541,0.0,0.0,0.0,0.0,-0.4918,0.0,0.0,0.0,0.0,0.0,0.0,0.0,0.0,-1.0647,-1.0647,-1.0676,-1.0692,-1.0692,-1.1664,-1.2738,-1.4132,-1.5322,-1.6505,-1.7582,-1.7582,-1.7582,-1.7582,-1.7799,-1.8115,-1.8408,-1.8377,0.0,-2.1717,-2.1599,-2.2718,-2.4339,-2.4468,-2.4531,-2.4521,-2.4443,-2.4199,-2.3887,-2.3809,-2.3555,-2.3252,-2.3252,-2.3252,-2.333,-2.3769,-2.4556,-2.5554,-2.6401,-2.7844,-2.9553,-3.0606,-3.1548,-3.2166,-3.2309,-3.2365,-3.224,-3.1788,-3.1687,-3.1499,-3.0871,-3.067,-3.0444,-2.9892,-2.9792,-2.9856,-2.9998,-3.0482,-3.118,-3.2001,-3.2566,-3.2681,-3.2216,-3.2772,-3.2687,-3.1613,-3.1409,-3.1762,-3.2674,-3.2926,-3.3627,-3.5088,-3.5359,-3.5504,-3.5504,-3.5504,-3.5504,-3.5504,-3.5504,-3.5504,-3.5504,-3.5504,-3.5504,-0.0359,-0.0628,-0.0807,-0.0448,-0.0897,-0.1436,-0.1436,0.0,0.0,0.0,-0.1436,-0.1454,-0.1515,-0.1772,0.0,-0.2543,0.0,0.0,0.0,0.0,0.0,0.0,0.0,0.0,0.0,0.0,0.0,0.0,0.0,-1.0599,-1.0688,-1.0692,-1.0692,-1.0692,-1.2417,-1.3599,-1.4132,-1.5855,-1.7041,-1.7582,-1.7533,-1.7563,-1.7563,-1.7716,-1.7851,-1.815,-1.811,0.0,-2.1627,-2.1448,-2.2604,-2.4394,-2.418,-2.4092,-2.4062,-2.3838,-2.3623,-2.3457,-2.3457,-2.332,-2.3135,-2.3135,-2.3135,-2.3184,-2.3389,-2.4547,-2.5945,-2.648,-2.8119,-2.9895,-3.0673,-3.1186,-3.1563,-3.1768,-3.1788,-3.1712,-3.1449,-3.1173,-3.0922,-3.067,-3.0382,-3.0237,-3.0318,-3.0343,-3.0633,-3.1442,-3.1856,-3.2349,-3.3171,-3.3604,-3.3696,-3.3397,-3.3446,-3.3079,-3.2121,-3.1791,-3.2003,-3.2752,-3.3004,-3.3769,-3.5169,-3.5359,-3.5504,-3.5504,-3.5504,-3.5504,-3.5504,-3.5504,-3.5504,-3.5504,-3.5504,-3.5504,-0.0718,-0.0987,-0.1256,-0.0718,-0.0987,-0.1436,-0.1436,-0.1436,0.0,0.0,-0.1436,-0.1456,-0.1713,-0.217,-0.2556,0.0,-0.3844,0.0,0.0,0.0,0.0,0.0,0.0,0.0,0.0,0.0,0.0,0.0,0.0,0.0,-1.068,-1.0692,-1.0692,-1.0692,-1.2911,-1.4056,-1.4056,-1.6249,-1.7395,-1.7395,-1.7373,-1.7367,-1.7462,-1.7517,-1.7803,-1.82,-1.8233,0.0,0.0,-2.1449,-2.2537,-2.4111,-2.3779,-2.3652,-2.3603,-2.3262,-2.3135,-2.3135,-2.3135,-2.3135,-2.3135,-2.3135,-2.3135,-2.3144,-2.3309,-2.4812,-2.6494,-2.6849,-2.8376,-3.0025,-3.067,-3.0778,-3.0836,-3.1179,-3.1135,-3.1047,-3.1047,-3.0733,-3.0444,-3.0444,-3.0093,-2.9998,-3.0545,-3.082,-3.1328,-3.2492,-3.3003,-3.3437,-3.4045,-3.4264,-3.4414,-3.4414,-3.3978,-3.3412,-3.2774,-3.2378,-3.243,-3.302,-3.3288,-3.401,-3.5234,-3.5439,-3.5504,-3.5504,-3.5504,-3.5504,-3.5504,-3.5504,-3.5504,-3.5504,-3.5504,-3.5504,-0.1345,-0.1345,-0.1346,-0.1345,-0.1345,-0.1436,-0.1436,0.0,0.0,-0.1436,-0.1436,-0.1645,-0.2323,-0.2487,-0.2874,0.0,0.0,-0.4648,0.0,0.0,0.0,0.0,0.0,0.0,0.0,0.0,0.0,0.0,0.0,0.0,-1.0672,-1.0692,-1.0692,-1.0692,-1.2656,-1.3714,-1.3714,-1.5775,-1.6787,-1.6787,-1.7068,-1.7161,-1.7161,-1.7633,-1.8299,-1.9146,-1.912,0.0,0.0,-2.178,-2.226,-2.3252,-2.3213,-2.3193,-2.3193,-2.3154,-2.3135,-2.3135,-2.3135,-2.3135,-2.3135,-2.3135,-2.3135,-2.3222,-2.4069,-2.5105,-2.6151,-2.7459,-2.8562,-2.9567,-3.0572,-3.0778,-3.0737,-3.0728,-3.0306,-2.9942,-2.9942,-2.9905,-2.9867,-2.9867,-2.9829,-2.9792,-2.9856,-3.0482,-3.097,-3.1106,-3.2277,-3.3227,-3.3297,-3.3962,-3.4414,-3.4414,-3.4356,-3.4066,-3.3441,-3.3391,-3.3506,-3.3888,-3.3952,-3.4406,-3.5409,-3.5504,-3.5504,-3.5504,-3.5504,-3.5504,-3.5504,-3.5504,-3.5504,-3.5504,-3.5504,-3.5504,-0.1436,-0.1436,-0.1436,-0.1436,-0.1436,-0.1436,-0.1436,0.0,-0.1436,-0.1436,-0.1615,-0.2003,-0.2293,-0.2965,-0.3582,0.0,0.0,0.0,0.0,0.0,0.0,0.0,0.0,0.0,0.0,0.0,0.0,0.0,0.0,0.0,-1.0367,-1.0375,-1.0375,-1.0375,-1.2382,-1.3479,-1.3479,-1.5638,-1.6707,-1.67,-1.6922,-1.7036,-1.7023,-1.7423,-1.8088,-1.9012,-1.8964,0.0,0.0,-2.1759,-2.2236,-2.3135,-2.3135,-2.3135,-2.3135,-2.3135,-2.3135,-2.3135,-2.3135,-2.3135,-2.3135,-2.3135,-2.3474,-2.3983,-2.4413,-2.5495,-2.6798,-2.7332,-2.8151,-2.8952,-2.9653,-2.9967,-3.0157,-3.009,-2.9955,-2.9792,-2.9792,-2.9792,-2.9792,-2.9792,-3.0139,-3.0633,-3.1071,-3.1783,-3.242,-3.2946,-3.352,-3.3894,-3.3894,-3.4196,-3.4414,-3.4414,-3.4414,-3.4167,-3.3514,-3.3587,-3.3703,-3.3977,-3.409,-3.4515,-3.5474,-3.5504,-3.5504,-3.5504,-3.5504,-3.5504,-3.5504,-3.5504,-3.5504,-3.5504,-3.5504,-3.5504,-0.1345,-0.1436,-0.1436,-0.1436,-0.1436,-0.1436,0.0,0.0,-0.1436,-0.1436,-0.1794,-0.2276,-0.2573,-0.3454,-0.4091,0.0,0.0,-0.4996,-0.4484,0.0,0.0,0.0,0.0,0.0,0.0,0.0,0.0,0.0,0.0,0.0,-1.0002,-1.0002,-1.0054,-1.0156,-1.2152,-1.3239,-1.3239,-1.5382,-1.6446,-1.6446,-1.6718,-1.6903,-1.6896,-1.7152,-1.7963,-1.9239,0.0,0.0,0.0,-2.2148,-2.2511,-2.3135,-2.3135,-2.3135,-2.3135,-2.3135,-2.3135,-2.3135,-2.3135,-2.3309,-2.3474,-2.3474,-2.4317,-2.5337,-2.5337,-2.6174,-2.7267,-2.751,-2.8087,-2.8749,-2.9052,-2.9456,-2.9792,-2.9792,-2.9792,-2.9792,-2.9792,-2.9792,-2.9792,-2.9792,-3.0419,-3.1119,-3.1636,-3.2563,-3.3367,-3.3962,-3.4264,-3.4414,-3.4414,-3.4414,-3.4414,-3.4414,-3.4414,-3.424,-3.379,-3.3689,-3.3856,-3.4242,-3.4194,-3.4579,-3.5474,-3.5504,-3.5504,-3.5504,-3.5504,-3.5504,-3.5504,-3.5504,-3.5504,-3.5504,-3.5683,-3.5846,-0.1256,-0.1436,-0.1436,-0.1436,-0.1436,-0.1436,0.0,0.0,-0.1436,-0.1436,-0.1794,-0.2378,-0.3203,-0.3685,-0.4312,-0.509,0.0,0.0,-0.512,0.0,0.0,0.0,0.0,0.0,0.0,0.0,0.0,0.0,0.0,0.0,-0.9632,-0.9632,-0.9795,-1.0152,-1.201,-1.2998,-1.2998,-1.4914,-1.5838,-1.5838,-1.6305,-1.6588,-1.6588,-1.7052,-1.8326,0.0,0.0,0.0,0.0,-2.3057,-2.3047,-2.3135,-2.3135,-2.3135,-2.3135,-2.3135,-2.3135,-2.3135,-2.3135,-2.3734,-2.4498,-2.4498,-2.5673,-2.7185,-2.7185,-2.7185,-2.7348,-2.8259,-2.8749,-2.9131,-2.9131,-2.9456,-2.9792,-2.9792,-2.9792,-2.9792,-2.9792,-2.9792,-2.9792,-2.9792,-3.0419,-3.0895,-3.0895,-3.2205,-3.3213,-3.3213,-3.3894,-3.4414,-3.4414,-3.4414,-3.4414,-3.4414,-3.4414,-3.4414,-3.4399,-3.3819,-3.393,-3.481,-3.433,-3.4466,-3.5474,-3.5504,-3.5504,-3.5504,-3.5504,-3.5504,-3.5504,-3.5504,-3.5504,-3.5504,-3.6085,-3.6723,-0.1345,-0.1436,-0.1436,-0.1436,-0.1705,-0.1884,-0.1525,0.0,-0.1982,-0.2011,-0.2382,-0.2973,-0.3696,-0.418,-0.4702,-0.5116,-0.5098,0.0,0.0,0.0,0.0,0.0,0.0,0.0,0.0,0.0,0.0,0.0,0.0,0.0,-0.9628,-1.0306,-1.0457,-0.9795,-1.1707,-1.2747,-1.2747,-1.4808,-1.5832,-1.5832,-1.6123,-1.6407,-1.6588,-1.6972,0.0,0.0,0.0,0.0,0.0,-2.2872,-2.3135,-2.3135,-2.3135,-2.3135,-2.3135,-2.3135,-2.3135,-2.3135,-2.3135,-2.3734,-2.4498,-2.4498,-2.5746,-2.7185,-2.7185,-2.7603,-2.8179,-2.8431,-2.8828,-2.9131,-2.9131,-2.9456,-2.9792,-2.9792,-2.9792,-2.9792,-2.9792,-2.9792,-2.9934,-3.0482,-3.1206,-3.1856,-3.242,-3.3297,-3.4045,-3.4045,-3.4264,-3.4414,-3.4414,-3.4414,-3.4414,-3.4414,-3.4414,-3.4414,-3.4414,-3.3833,-3.393,-3.4824,-3.433,-3.4466,-3.5474,-3.5504,-3.5504,-3.5504,-3.5504,-3.5504,-3.5504,-3.5504,-3.5733,-3.6148,-3.6784,-3.7413,0.0,-0.1436,-0.1436,-0.1615,-0.1974,0.0,0.0,0.0,-0.2556,-0.261,-0.2993,-0.3492,-0.3898,-0.4478,-0.4883,-0.5032,-0.5008,0.0,0.0,0.0,0.0,0.0,0.0,0.0,0.0,0.0,0.0,0.0,0.0,0.0,-0.9628,-1.0592,-1.0886,-1.0207,-1.2247,-1.3318,-1.3318,-1.4956,-1.5832,-1.5832,-1.6211,-1.64,-1.6588,-1.6965,0.0,0.0,0.0,0.0,0.0,-2.2687,-2.3135,-2.3135,-2.3135,-2.3135,-2.3135,-2.3135,-2.3135,-2.3135,-2.3135,-2.3897,-2.4999,-2.4999,-2.6246,-2.7684,-2.7684,-2.8099,-2.851,-2.8578,-2.8816,-2.9131,-2.9197,-2.9534,-2.9792,-2.9792,-2.9792,-2.9869,-3.0126,-3.0203,-3.0419,-3.1193,-3.2001,-3.2648,-3.3143,-3.3894,-3.4414,-3.4414,-3.4414,-3.4414,-3.4414,-3.4414,-3.4414,-3.4414,-3.4414,-3.4414,-3.4414,-3.3667,-3.3565,-3.4522,-3.4041,-3.4174,-3.5085,-3.537,-3.5504,-3.5504,-3.5504,-3.5504,-3.5504,-3.5733,-3.6133,-3.6784,-3.7413,-3.8067,0.0,-0.1437,0.0,0.0,0.0,0.0,0.0,0.0,0.0,-0.3139,-0.3531,-0.3934,-0.4011,-0.4482,-0.4865,-0.4957,-0.4967,0.0,0.0,0.0,0.0,0.0,0.0,0.0,0.0,0.0,0.0,0.0,0.0,0.0,-0.9727,-1.069,-1.1365,-1.1463,-1.3318,-1.4394,-1.4298,-1.535,-1.5832,-1.5832,-1.6393,-1.6676,-1.677,-1.7138,0.0,0.0,0.0,0.0,0.0,-2.2687,-2.3135,-2.3135,-2.3135,-2.3135,-2.3135,-2.3135,-2.3135,-2.3135,-2.3135,-2.4317,-2.583,-2.5986,-2.7162,-2.851,-2.851,-2.851,-2.851,-2.8724,-2.8961,-2.9131,-2.9341,-2.9611,-2.9792,-2.9792,-2.9792,-2.9998,-3.0758,-3.0895,-3.1119,-3.2001,-3.272,-3.3213,-3.3297,-3.3894,-3.4414,-3.4414,-3.4414,-3.4414,-3.4414,-3.4414,-3.4414,-3.4414,-3.4414,-3.4385,-3.4356,-3.3325,-3.3079,-3.3932,-3.3517,-3.3645,-3.4442,-3.51,-3.5459,-3.5504,-3.5569,-3.5554,-3.5619,-3.6258,-3.6845,-3.7488,-3.8108,-3.8701,-0.1921,0.0,-0.2072,-0.2198,-0.2848,-0.3324,0.0,0.0,0.0,0.0,0.0,-0.4112,-0.4489,-0.472,-0.4865,-0.4957,-0.4912,-0.5194,-0.6087,0.0,0.0,0.0,0.0,0.0,0.0,0.0,0.0,0.0,0.0,-0.9916,-1.0788,-1.1755,-1.2732,-1.3516,-1.4771,-1.5064,-1.4298,-1.5452,-1.6123,-1.6123,-1.64,-1.7044,-1.7971,-1.8064,0.0,0.0,0.0,0.0,-2.1784,-2.2687,-2.3135,-2.3135,-2.3135,-2.3135,-2.3135,-2.3135,-2.3135,-2.3135,-2.3135,-2.4317,-2.5997,-2.7418,-2.8167,-2.851,-2.851,-2.851,-2.851,-2.8578,-2.8816,-2.9131,-2.9131,-2.9456,-2.9792,-2.9792,-2.9792,-2.9998,-3.0758,-3.0895,-3.1328,-3.2648,-3.3073,-3.3367,-3.4045,-3.4264,-3.4414,-3.4414,-3.4414,-3.4414,-3.4414,-3.4414,-3.4414,-3.4414,-3.4414,-3.4211,-3.3732,-3.3077,-3.3079,-3.3932,-3.3102,-3.3106,-3.4427,-3.4637,-3.4966,-3.5489,-3.5973,-3.643,-3.6951,-3.7531,-3.7937,-3.8108,-3.8772,-3.9148,-0.2519,-0.2496,-0.2378,-0.2892,-0.3374,-0.3769,-0.3845,0.0,0.0,0.0,0.0,-0.448,-0.4726,-0.5135,-0.5256,-0.5001,-0.5471,0.0,0.0,0.0,0.0,0.0,0.0,0.0,0.0,0.0,0.0,0.0,0.0,-1.0109,-1.1175,-1.2145,-1.3221,-1.4298,-1.5255,-1.554,-1.4968,-1.5832,-1.6224,-1.6224,-1.6595,-1.7333,-1.8427,-1.8519,-1.9147,0.0,0.0,0.0,-2.1784,-2.2687,-2.3135,-2.3135,-2.3135,-2.3135,-2.3135,-2.3135,-2.3387,-2.3734,-2.3734,-2.4914,-2.667,-2.8087,-2.851,-2.851,-2.851,-2.8578,-2.8657,-2.8736,-2.8895,-2.9131,-2.9378,-2.9624,-2.9792,-2.9792,-2.9792,-3.0075,-3.1206,-3.1415,-3.1928,-3.3451,-3.3742,-3.3894,-3.4332,-3.4414,-3.4414,-3.4414,-3.4414,-3.4414,-3.4414,-3.4414,-3.4298,-3.4008,-3.3978,-3.3783,-3.3194,-3.2679,-3.2585,-3.3063,-3.2627,-3.2721,-3.3544,-3.3858,-3.4337,-3.5026,-3.5917,-3.66,-3.6951,-3.7879,-3.8278,-3.8351,-3.8969,-3.9272,-0.3063,-0.2945,-0.2823,-0.3716,-0.4016,-0.4133,-0.4608,0.0,0.0,0.0,0.0,0.0,0.0,-0.5438,0.0,0.0,0.0,0.0,0.0,0.0,0.0,0.0,0.0,0.0,0.0,0.0,0.0,0.0,0.0,-1.04,-1.1565,-1.2436,-1.3414,-1.449,-1.535,-1.5832,-1.5832,-1.6123,-1.6218,-1.6319,-1.6791,-1.7613,-1.8703,-1.888,-1.9604,0.0,0.0,0.0,-2.1971,-2.2775,-2.3135,-2.3135,-2.3135,-2.3135,-2.3135,-2.3135,-2.3734,-2.4584,-2.4829,-2.5924,-2.7348,-2.8179,-2.851,-2.851,-2.851,-2.8657,-2.8882,-2.9052,-2.9131,-2.9209,-2.9624,-2.9856,-3.0011,-3.0011,-3.0075,-3.0508,-3.1942,-3.229,-3.2662,-3.4113,-3.4414,-3.4414,-3.4414,-3.4414,-3.4414,-3.4414,-3.4327,-3.4269,-3.4269,-3.4182,-3.392,-3.3383,-3.3325,-3.3114,-3.2587,-3.2232,-3.2001,-3.1898,-3.2184,-3.2407,-3.2616,-3.3246,-3.3985,-3.4713,-3.5922,-3.6568,-3.6689,-3.7889,-3.8463,-3.8463,-3.9023,-3.9272,-0.3796,-0.3892,-0.3871,-0.3917,-0.4294,-0.461,-0.4796,0.0,0.0,0.0,0.0,0.0,0.0,-0.5338,-0.5135,0.0,0.0,0.0,0.0,0.0,0.0,0.0,0.0,0.0,0.0,0.0,0.0,0.0,0.0,-1.176,-1.3709,-1.4004,-1.4484,-1.554,-1.5737,-1.5832,-1.5832,-1.6305,-1.6494,-1.6494,-1.7052,-1.8149,-1.9968,-1.9968,-2.0962,0.0,0.0,-2.2872,-2.2872,-2.3047,-2.3135,-2.3135,-2.3135,-2.3135,-2.3135,-2.3135,-2.3734,-2.4744,-2.6257,-2.6928,-2.7348,-2.8179,-2.851,-2.851,-2.851,-2.8657,-2.8882,-2.9052,-2.9197,-2.9341,-2.9419,-3.0088,-3.0758,-3.0758,-3.1281,-3.2015,-3.2861,-3.3003,-3.3297,-3.4196,-3.4414,-3.4414,-3.4414,-3.4414,-3.4414,-3.4414,-3.3964,-3.3616,-3.3616,-3.3137,-3.2774,-3.2672,-3.2658,-3.246,-3.1991,-3.1968,-3.1795,-3.1412,-3.1558,-3.2146,-3.3211,-3.3854,-3.469,-3.5831,-3.6646,-3.7365,-3.792,-3.8743,-3.9148,-3.9148,-3.9272,-3.9272,-0.4453,-0.4673,-0.4652,-0.4568,-0.4612,-0.4787,-0.4826,0.0,0.0,0.0,0.0,0.0,0.0,0.0,-0.6534,-0.7733,0.0,0.0,0.0,0.0,0.0,0.0,0.0,0.0,0.0,0.0,0.0,0.0,0.0,0.0,-1.4202,-1.4298,-1.4873,-1.6028,-1.6028,-1.6116,-1.6204,-1.6588,-1.6777,-1.6581,-1.7598,-1.8872,-2.0232,-2.0782,-2.1774,-2.3135,0.0,-2.3135,-2.3135,-2.3135,-2.3135,-2.3135,-2.3135,-2.3396,-2.3983,-2.4988,-2.5589,-2.6174,-2.7429,-2.7926,-2.7926,-2.8351,-2.851,-2.851,-2.851,-2.8736,-2.8961,-2.9052,-2.9275,-2.9419,-2.9599,-2.9973,-3.0419,-3.082,-3.118,-3.1769,-3.2932,-3.3213,-3.3451,-3.4264,-3.4414,-3.4414,-3.4414,-3.4124,-3.3891,-3.3891,-3.3369,-3.2962,-3.2962,-3.2701,-3.2382,-3.2019,-3.2053,-3.2071,-3.1856,-3.1987,-3.1882,-3.1424,-3.1796,-3.2272,-3.2844,-3.3758,-3.4509,-3.5058,-3.6088,-3.6783,-3.7081,-3.7774,-3.8311,-3.8709,-3.8709,-3.8907,-0.502,-0.5139,-0.5114,-0.5,0.0,-0.4861,-0.4841,0.0,0.0,0.0,0.0,0.0,0.0,-0.6739,0.0,0.0,0.0,0.0,0.0,0.0,0.0,0.0,0.0,0.0,0.0,0.0,0.0,0.0,0.0,0.0,-1.4592,-1.4682,-1.5064,-1.6123,-1.613,-1.6312,-1.6494,-1.6784,-1.6972,-1.7052,-1.8241,-1.9422,-2.0593,-2.1329,-2.2236,-2.3135,-2.3135,-2.3135,-2.3135,-2.3135,-2.3135,-2.3135,-2.3135,-2.3647,-2.4744,-2.6517,-2.7185,-2.7348,-2.8179,-2.851,-2.851,-2.851,-2.851,-2.851,-2.8578,-2.8816,-2.9131,-2.9431,-2.9574,-2.9793,-2.9985,-3.0216,-3.0495,-3.1267,-3.1549,-3.206,-3.3227,-3.352,-3.3673,-3.4264,-3.4298,-3.4196,-3.4196,-3.3674,-3.3253,-3.3253,-3.2701,-3.228,-3.228,-3.215,-3.1874,-3.1413,-3.1492,-3.1693,-3.1936,-3.2226,-3.2256,-3.1894,-3.2327,-3.2656,-3.2765,-3.3698,-3.425,-3.434,-3.5469,-3.6104,-3.6104,-3.6783,-3.74,-3.7947,-3.7947,-3.8245,-0.5255,-0.5235,-0.5192,-0.5016,-0.4967,0.0,-0.4853,-0.5338,0.0,-0.5942,0.0,0.0,0.0,-0.7138,0.0,0.0,0.0,0.0,0.0,0.0,0.0,0.0,0.0,0.0,0.0,0.0,0.0,0.0,0.0,0.0,-1.5635,-1.5737,-1.573,-1.5832,-1.6028,-1.6224,-1.6224,-1.6697,-1.7434,-1.8249,-1.8611,-1.9786,-2.1606,-2.1695,-2.2236,-2.3135,-2.3135,-2.3135,-2.3135,-2.3135,-2.3135,-2.3135,-2.3135,-2.3647,-2.4744,-2.6517,-2.7185,-2.7348,-2.8179,-2.851,-2.851,-2.851,-2.851,-2.851,-2.8724,-2.8961,-2.9275,-3.0241,-3.0607,-3.082,-3.082,-3.1341,-3.2146,-3.2861,-3.3604,-3.4196,-3.4264,-3.4332,-3.4332,-3.4414,-3.3935,-3.3529,-3.3529,-3.3006,-3.2585,-3.2585,-3.2019,-3.1584,-3.1584,-3.1076,-3.0758,-3.0835,-3.0835,-3.1205,-3.2018,-3.2718,-3.3093,-3.3093,-3.3145,-3.3371,-3.3933,-3.4048,-3.4315,-3.4822,-3.5596,-3.6026,-3.6026,-3.6721,-3.7135,-3.7185,-3.7185,-3.7218,-0.5339,-0.5331,-0.53,-0.5173,-0.5098,0.0,0.0,-0.5438,-0.5842,0.0,0.0,0.0,0.0,0.0,0.0,0.0,0.0,0.0,0.0,0.0,0.0,0.0,0.0,0.0,0.0,0.0,0.0,0.0,0.0,0.0,0.0,-1.5832,-1.5927,-1.6028,-1.6123,-1.6319,-1.6697,-1.6885,-1.7893,-1.9513,-1.9604,-2.0421,-2.1695,-2.2325,-2.2775,-2.3135,-2.3135,-2.3135,-2.3135,-2.3135,-2.3135,-2.3222,-2.4317,-2.4988,-2.5495,-2.7336,-2.8007,-2.8099,-2.8431,-2.851,-2.851,-2.851,-2.851,-2.851,-2.8724,-2.9263,-2.9947,-3.0469,-3.1119,-3.1636,-3.1636,-3.1856,-3.229,-3.3003,-3.3437,-3.3811,-3.4264,-3.4109,-3.3819,-3.3819,-3.3311,-3.2875,-3.2875,-3.2324,-3.1903,-3.1903,-3.1351,-3.093,-3.093,-3.0788,-3.0866,-3.1306,-3.2155,-3.2848,-3.3335,-3.3901,-3.4251,-3.4251,-3.3951,-3.3866,-3.4101,-3.4399,-3.4691,-3.4899,-3.5164,-3.5313,-3.5313,-3.5595,-3.5976,-3.6423,-3.6423,-3.6671,-0.5382,-0.5382,-0.5359,-0.5267,0.0,0.0,-0.4914,-0.566,0.0,0.0,0.0,0.0,0.0,0.0,0.0,0.0,0.0,0.0,0.0,0.0,0.0,0.0,0.0,0.0,0.0,0.0,0.0,0.0,0.0,0.0,0.0,-1.5927,-1.5933,-1.6028,-1.6218,-1.6501,-1.6878,-1.7246,-1.8334,-2.0232,-2.0503,-2.123,-2.2148,-2.2784,-2.3135,-2.3135,-2.3135,-2.3135,-2.3135,-2.3135,-2.3309,-2.3734,-2.5579,-2.6246,-2.6412,-2.7926,-2.851,-2.851,-2.851,-2.851,-2.851,-2.851,-2.851,-2.8578,-2.904,-2.9716,-3.0469,-3.1132,-3.1721,-3.2217,-3.2457,-3.251,-3.2607,-3.3127,-3.3291,-3.34,-3.3715,-3.347,-3.3166,-3.3166,-3.2643,-3.2208,-3.2208,-3.1656,-3.1221,-3.1221,-3.0843,-3.0568,-3.0568,-3.0866,-3.1364,-3.2018,-3.3182,-3.3935,-3.4101,-3.4594,-3.4899,-3.4899,-3.4546,-3.4349,-3.4349,-3.4707,-3.4899,-3.4899,-3.4899,-3.4899,-3.4899,-3.4899,-3.5164,-3.5644,-3.5644,-3.5926,-0.5382,-0.5382,-0.5359,0.0,0.0,0.0,-0.4994,-0.6118,0.0,0.0,0.0,0.0,0.0,0.0,0.0,0.0,0.0,0.0,0.0,0.0,0.0,0.0,0.0,0.0,0.0,0.0,0.0,0.0,0.0,0.0,0.0,-1.6021,-1.6116,-1.5818,-1.6292,-1.6574,-1.6574,-1.7777,-1.8956,-2.0223,-2.1221,-2.2138,-2.3135,-2.3135,-2.3135,-2.3135,-2.3135,-2.3135,-2.3135,-2.3135,-2.3647,-2.4659,-2.6517,-2.7185,-2.7348,-2.8179,-2.851,-2.851,-2.851,-2.851,-2.851,-2.851,-2.851,-2.8657,-2.9729,-3.0177,-3.0683,-3.2461,-3.2653,-3.2518,-3.331,-3.3339,-3.3267,-3.3454,-3.3456,-3.3282,-3.2643,-3.2513,-3.2513,-3.2513,-3.1961,-3.1511,-3.1511,-3.0988,-3.0568,-3.0568,-3.0568,-3.0568,-3.0628,-3.1248,-3.2074,-3.2933,-3.3662,-3.4101,-3.4101,-3.4594,-3.4899,-3.4899,-3.4899,-3.4899,-3.4899,-3.4899,-3.4899,-3.4899,-3.4899,-3.4899,-3.4899,-3.4899,-3.4899,-3.4899,-3.4899,-3.4899,-0.5382,-0.5382,0.0,-0.5347,0.0,0.0,0.0,0.0,0.0,0.0,0.0,0.0,0.0,0.0,0.0,0.0,0.0,0.0,0.0,0.0,0.0,0.0,0.0,0.0,0.0,0.0,0.0,0.0,0.0,0.0,0.0,-1.5497,-1.5588,-1.5659,-1.584,-1.6285,-1.7093,-1.7451,-1.8498,-2.0327,-2.068,-2.1586,-2.3135,-2.3135,-2.3135,-2.3135,-2.3135,-2.3135,-2.3135,-2.382,-2.4573,-2.5495,-2.6764,-2.7185,-2.7348,-2.8179,-2.851,-2.851,-2.851,-2.851,-2.851,-2.851,-2.8882,-2.9406,-2.9883,-3.0634,-3.145,-3.2097,-3.2362,-3.2515,-3.2724,-3.2724,-3.2745,-3.2767,-3.2803,-3.2745,-3.2556,-3.215,-3.1816,-3.1816,-3.1293,-3.0858,-3.0858,-3.0698,-3.0568,-3.0568,-3.0568,-3.0792,-3.145,-3.217,-3.2879,-3.3713,-3.4284,-3.4643,-3.4643,-3.4804,-3.4899,-3.4899,-3.4899,-3.4899,-3.4899,-3.4899,-3.4899,-3.4899,-3.4899,-3.4899,-3.4899,-3.4899,-3.4899,-3.4899,-3.4899,-3.4899,-0.5382,-0.5491,0.0,-0.5603,-0.5531,-0.5642,-0.5929,0.0,0.0,0.0,0.0,0.0,0.0,0.0,0.0,0.0,0.0,0.0,0.0,0.0,0.0,0.0,0.0,0.0,0.0,0.0,0.0,0.0,0.0,0.0,0.0,-1.5411,-1.5486,-1.5562,-1.5658,-1.6279,-1.7327,-1.7668,-1.8698,-2.0409,-2.0755,-2.1541,-2.2646,-2.2646,-2.2646,-2.2646,-2.2646,-2.2808,-2.3128,-2.4044,-2.4945,-2.5842,-2.6736,-2.7076,-2.7144,-2.7639,-2.7885,-2.7885,-2.7885,-2.7885,-2.7885,-2.8171,-2.862,-2.9126,-2.9886,-3.0713,-3.146,-3.1895,-3.2068,-3.2121,-3.2121,-3.1932,-3.1816,-3.2063,-3.2121,-3.2063,-3.1801,-3.1424,-3.1134,-3.1134,-3.0843,-3.0568,-3.0568,-3.0568,-3.0568,-3.0568,-3.0851,-3.1392,-3.247,-3.3008,-3.3614,-3.4333,-3.4707,-3.4899,-3.4899,-3.4899,-3.4899,-3.4899,-3.4899,-3.4899,-3.4899,-3.4899,-3.4899,-3.4899,-3.4899,-3.4899,-3.4899,-3.4899,-3.4899,-3.4899,-3.5197,-3.5346,-0.5382,0.0,0.0,-0.5933,-0.6182,0.0,-0.6889,0.0,0.0,0.0,0.0,0.0,0.0,0.0,0.0,0.0,0.0,0.0,0.0,0.0,0.0,0.0,0.0,0.0,0.0,0.0,0.0,0.0,0.0,0.0,0.0,-1.5499,-1.5669,-1.5574,-1.5846,-1.6374,-1.7313,-1.8169,-1.9279,-2.0467,-2.1326,-2.1768,-2.1768,-2.1846,-2.1885,-2.1885,-2.1967,-2.2441,-2.3314,-2.4173,-2.4971,-2.5835,-2.6621,-2.6935,-2.6935,-2.6935,-2.6935,-2.6935,-2.6935,-2.6935,-2.7148,-2.7779,-2.8132,-2.8482,-2.9923,-3.0569,-3.0985,-3.1752,-3.168,-3.1438,-3.1438,-3.1003,-3.0727,-3.1293,-3.1438,-3.1279,-3.0698,-3.0568,-3.0568,-3.0568,-3.0568,-3.0568,-3.0568,-3.0568,-3.0642,-3.0687,-3.1306,-3.221,-3.3427,-3.3735,-3.4119,-3.4835,-3.4899,-3.4899,-3.4899,-3.4899,-3.4899,-3.4899,-3.4899,-3.4899,-3.4899,-3.4899,-3.4899,-3.4899,-3.4899,-3.4899,-3.4899,-3.4899,-3.4932,-3.5015,-3.5694,-3.6042,-0.5712,-0.5935,0.0,0.0,-0.7957,-0.8598,-0.9983,-1.0129,0.0,0.0,0.0,0.0,0.0,0.0,0.0,0.0,0.0,0.0,0.0,0.0,0.0,0.0,0.0,0.0,0.0,0.0,0.0,0.0,0.0,0.0,-1.512,-1.5205,-1.529,-1.5459,-1.5466,-1.6286,-1.7836,-1.8074,-1.8967,0.0,-2.0761,-2.085,-2.0879,-2.1572,-2.1885,-2.1967,-2.2605,-2.3314,-2.4173,-2.4971,-2.5835,-2.6621,-2.686,-2.6935,-2.6935,-2.6935,-2.6935,-2.6935,-2.6935,-2.7285,-2.7779,-2.7925,-2.8899,-3.0021,-3.0378,-3.0815,-3.124,-3.1381,-3.1094,-3.0771,-3.0771,-3.0684,-3.0611,-3.0742,-3.0771,-3.0742,-3.0611,-3.0568,-3.0568,-3.0568,-3.0568,-3.0568,-3.0568,-3.0568,-3.0747,-3.1263,-3.2018,-3.2826,-3.3479,-3.3834,-3.4284,-3.4851,-3.4899,-3.4899,-3.4899,-3.4899,-3.4899,-3.4899,-3.4899,-3.4899,-3.4899,-3.4899,-3.4899,-3.4899,-3.4899,-3.4899,-3.4899,-3.4899,-3.5197,-3.5777,-3.5926,-3.6307,-0.6707,0.0,0.0,-0.9023,0.0,-1.0344,-1.0962,0.0,0.0,0.0,0.0,0.0,0.0,0.0,0.0,0.0,0.0,0.0,0.0,0.0,0.0,0.0,0.0,0.0,0.0,0.0,0.0,0.0,0.0,-1.4824,-1.509,-1.509,-1.5173,-1.5431,-1.5824,-1.6624,-1.7997,-1.8407,-1.9283,-2.0566,-2.0566,-2.0566,-2.0586,-2.1045,-2.149,-2.1869,-2.2333,-2.3171,-2.431,-2.4698,-2.5394,-2.6154,-2.6154,-2.6154,-2.6154,-2.6154,-2.6154,-2.6154,-2.6517,-2.6924,-2.7339,-2.8014,-2.8905,-2.9734,-3.0062,-3.0496,-3.083,-3.083,-3.0707,-3.0568,-3.0568,-3.0568,-3.0568,-3.0568,-3.0568,-3.0568,-3.0568,-3.0568,-3.0568,-3.0568,-3.0568,-3.0687,-3.097,-3.1263,-3.1694,-3.2336,-3.2864,-3.3407,-3.4036,-3.4333,-3.4594,-3.4899,-3.4899,-3.4899,-3.4899,-3.4899,-3.4899,-3.4899,-3.4899,-3.4899,-3.4899,-3.4899,-3.4899,-3.4899,-3.4899,-3.5065,-3.5429,-3.5429,-3.581,-3.6539,-3.6903,-3.7268,-0.8033,0.0,-0.935,-1.0668,-1.1473,0.0,-1.1385,0.0,0.0,0.0,0.0,0.0,0.0,0.0,0.0,0.0,0.0,0.0,0.0,0.0,0.0,0.0,0.0,0.0,0.0,0.0,0.0,0.0,0.0,-1.4908,-1.5173,-1.5173,-1.5257,-1.5431,-1.6221,-1.7107,-1.7997,-1.8895,-1.9775,-2.0566,-2.0566,-2.0634,-2.0789,-2.0789,-2.1165,-2.1832,-2.2059,-2.2936,-2.4108,-2.4264,-2.4707,-2.5312,-2.5312,-2.5312,-2.5312,-2.5312,-2.537,-2.5581,-2.6208,-2.6552,-2.6934,-2.8168,-2.8776,-2.9121,-2.9685,-3.0129,-3.0326,-3.0326,-3.0447,-3.0568,-3.0568,-3.0568,-3.0568,-3.0568,-3.0568,-3.0568,-3.0568,-3.0568,-3.0628,-3.0747,-3.0866,-3.1087,-3.1537,-3.216,-3.2749,-3.3287,-3.3598,-3.3969,-3.4643,-3.4804,-3.4899,-3.4899,-3.4899,-3.4899,-3.4899,-3.4899,-3.4899,-3.4899,-3.4899,-3.4965,-3.5081,-3.5081,-3.5148,-3.528,-3.5243,-3.559,-3.6305,-3.6402,-3.6786,-3.7436,-3.8153,-3.8452,0.0,0.0,-1.1324,0.0,-1.2327,-1.2648,0.0,0.0,0.0,0.0,0.0,0.0,0.0,0.0,0.0,0.0,0.0,0.0,0.0,0.0,0.0,0.0,0.0,0.0,0.0,0.0,0.0,0.0,-1.4915,-1.534,-1.5347,-1.5347,-1.5347,-1.5431,-1.6221,-1.7107,-1.7997,-1.8895,-1.9775,-2.0566,-2.0566,-2.0944,-2.1614,-2.1614,-2.169,-2.1832,-2.3231,-2.3891,-2.4181,-2.4862,-2.5229,-2.5312,-2.5312,-2.5312,-2.5312,-2.5312,-2.5721,-2.6277,-2.6358,-2.7204,-2.8298,-2.8648,-2.9324,-2.9974,-3.0144,-3.0387,-3.0568,-3.0568,-3.0568,-3.0568,-3.0568,-3.0568,-3.0568,-3.0568,-3.0568,-3.0568,-3.0568,-3.0568,-3.0747,-3.1263,-3.1823,-3.2176,-3.2287,-3.2734,-3.3145,-3.3391,-3.3935,-3.4431,-3.4691,-3.4804,-3.4899,-3.4899,-3.4899,-3.4899,-3.4899,-3.4899,-3.4899,-3.4899,-3.4899,-3.5181,-3.5827,-3.586,-3.6158,-3.6804,-3.6642,-3.6878,-3.757,-3.8037,-3.8384,-3.8685,-3.9238,-3.9583,-1.0996,-1.2096,-1.3088,0.0,-1.3293,-1.3167,0.0,0.0,0.0,0.0,0.0,0.0,0.0,0.0,0.0,0.0,0.0,0.0,0.0,0.0,0.0,0.0,0.0,0.0,0.0,0.0,0.0,0.0,-1.5257,-1.5431,-1.5431,-1.5431,-1.5582,-1.6147,-1.6944,-1.7836,-1.8727,-1.9608,-2.0245,-2.0566,-2.0566,-2.1011,-2.1842,-2.2285,-2.2723,-2.3158,-2.3818,-2.4337,-2.4791,-2.5158,-2.5312,-2.5312,-2.5312,-2.5312,-2.5382,-2.5791,-2.6139,-2.6483,-2.7324,-2.8051,-2.8712,-2.9233,-2.9761,-3.0219,-3.0266,-3.0447,-3.0568,-3.0568,-3.0568,-3.0568,-3.0568,-3.0568,-3.0687,-3.1029,-3.1087,-3.1204,-3.1552,-3.1364,-3.1263,-3.1879,-3.2477,-3.2841,-3.2841,-3.3371,-3.385,-3.4002,-3.4382,-3.4643,-3.4787,-3.4835,-3.4899,-3.4899,-3.4899,-3.4899,-3.4899,-3.528,-3.5512,-3.5512,-3.5909,-3.629,-3.6605,-3.6622,-3.697,-3.7715,-3.748,-3.7699,-3.8427,-3.8946,-3.9497,-3.9953,-4.0208,-4.038,0.0,0.0,-1.3959,-1.4116,-1.3787,-1.3459,0.0,0.0,0.0,0.0,0.0,0.0,0.0,0.0,0.0,0.0,0.0,0.0,0.0,0.0,0.0,0.0,0.0,0.0,0.0,0.0,0.0,0.0,-1.5431,-1.5431,-1.5431,-1.559,-1.6064,-1.6698,-1.7755,-1.8647,-1.9301,-2.0167,-2.0566,-2.0566,-2.0566,-2.1165,-2.2134,-2.2734,-2.3537,-2.4409,-2.4409,-2.4719,-2.5312,-2.5312,-2.5312,-2.5312,-2.5312,-2.5312,-2.5382,-2.6139,-2.6539,-2.6934,-2.8182,-2.8839,-2.9247,-2.9747,-3.0129,-3.0312,-3.0387,-3.0507,-3.0568,-3.0568,-3.0568,-3.0568,-3.0568,-3.0687,-3.0911,-3.1364,-3.1595,-3.1823,-3.2272,-3.2145,-3.2089,-3.2532,-3.3055,-3.3459,-3.3459,-3.3951,-3.4399,-3.4546,-3.4659,-3.4756,-3.4899,-3.4899,-3.4965,-3.5164,-3.5181,-3.5263,-3.5446,-3.5959,-3.629,-3.629,-3.6804,-3.7185,-3.7384,-3.7384,-3.7731,-3.8477,-3.8535,-3.884,-3.9401,-4.0014,-4.0555,-4.099,-4.1128,-4.1128,0.0,-1.3753,0.0,-1.3789,0.0,0.0,0.0,0.0,0.0,0.0,0.0,0.0,0.0,0.0,0.0,0.0,0.0,0.0,0.0,0.0,0.0,0.0,0.0,0.0,0.0,0.0,0.0,0.0,-1.5431,-1.5431,-1.5431,-1.6139,-1.6617,-1.6698,-1.8327,-1.9222,-1.9301,-2.0167,-2.0566,-2.0566,-2.0566,-2.1385,-2.2957,-2.2957,-2.3841,-2.5229,-2.5229,-2.5241,-2.5312,-2.5312,-2.5312,-2.5312,-2.5312,-2.5312,-2.5382,-2.6139,-2.6921,-2.7762,-2.8519,-2.9324,-3.005,-3.0205,-3.0312,-3.0326,-3.0507,-3.0568,-3.0568,-3.0568,-3.0568,-3.0568,-3.0568,-3.1029,-3.148,-3.148,-3.1936,-3.2342,-3.2398,-3.2788,-3.313,-3.3145,-3.3748,-3.4234,-3.4234,-3.4399,-3.4546,-3.4643,-3.4707,-3.4756,-3.4899,-3.4899,-3.5164,-3.5876,-3.5943,-3.6224,-3.6936,-3.7036,-3.7052,-3.7052,-3.7085,-3.7417,-3.8129,-3.8146,-3.8493,-3.9206,-4.0184,-4.0651,-4.0685,-4.1674,-4.1906,-4.149,-4.2002,-4.1959,0.0,0.0,0.0,-1.4083,-1.4179,0.0,0.0,0.0,0.0,0.0,0.0,0.0,0.0,0.0,0.0,0.0,0.0,0.0,0.0,0.0,0.0,0.0,0.0,0.0,0.0,0.0,0.0,0.0,0.0,-1.5982,-1.5423,-1.6796,-1.7504,-1.7504,-1.8647,-1.9539,-2.0167,-2.0401,-2.0566,-2.0644,-2.1088,-2.1907,-2.3032,-2.3463,-2.4276,-2.5312,-2.5312,-2.5312,-2.5312,-2.5312,-2.5312,-2.5312,-2.5312,-2.5382,-2.5664,-2.6773,-2.7511,-2.8038,-2.9247,-2.9898,-3.0219,-3.0251,-3.0387,-3.0507,-3.0568,-3.0568,-3.0568,-3.0568,-3.0568,-3.0687,-3.1087,-3.1321,-3.1694,-3.2391,-3.3055,-3.3507,-3.3507,-3.3713,-3.3917,-3.3917,-3.4184,-3.4448,-3.4448,-3.4546,-3.4643,-3.4691,-3.4787,-3.5017,-3.5545,-3.5611,-3.5893,-3.6638,-3.6721,-3.682,-3.7085,-3.7549,-3.7814,-3.7814,-3.8245,-3.8609,-3.8891,-3.8907,-3.9149,-3.9731,-4.0466,-4.0802,-4.0802,-4.1813,-4.2187,-4.2002,-4.2187,-4.2246,-1.5256,0.0,0.0,0.0,0.0,0.0,0.0,0.0,0.0,0.0,0.0,0.0,0.0,0.0,0.0,0.0,0.0,0.0,0.0,0.0,0.0,0.0,0.0,0.0,0.0,0.0,0.0,0.0,0.0,0.0,-1.6312,-1.7683,-1.8567,-1.8877,-1.945,-2.001,-2.0566,-2.0566,-2.0566,-2.0644,-2.1395,-2.2209,-2.3032,-2.3745,-2.4564,-2.5312,-2.5312,-2.5312,-2.5312,-2.5312,-2.5312,-2.5312,-2.5312,-2.5581,-2.6057,-2.7232,-2.8025,-2.857,-2.9761,-3.028,-3.0387,-3.0387,-3.0507,-3.0568,-3.0568,-3.0568,-3.0568,-3.0568,-3.0568,-3.0747,-3.1364,-3.1807,-3.2281,-3.3251,-3.3815,-3.4101,-3.4151,-3.425,-3.43,-3.43,-3.4448,-3.4546,-3.4546,-3.4691,-3.4756,-3.4756,-3.505,-3.5446,-3.5943,-3.6224,-3.6655,-3.74,-3.7483,-3.7582,-3.7814,-3.8295,-3.8612,-3.8787,-3.9289,-3.9609,-3.9799,-3.9799,-3.9935,-4.0252,-4.0784,-4.1019,-4.1036,-4.1874,-4.2328,-4.2346,-4.2346,-4.2427,0.0,0.0,0.0,0.0,0.0,0.0,0.0,0.0,0.0,0.0,0.0,0.0,0.0,0.0,0.0,0.0,0.0,0.0,0.0,0.0,0.0,0.0,0.0,0.0,0.0,0.0,0.0,0.0,-1.678,-1.7107,-1.7997,-1.8816,-1.9696,-2.0566,-2.0566,-2.0566,-2.0566,-2.0566,-2.0644,-2.0644,-2.1461,-2.2285,-2.3032,-2.3829,-2.4564,-2.5312,-2.5312,-2.5312,-2.5312,-2.5312,-2.5312,-2.5312,-2.53,-2.5836,-2.6693,-2.7485,-2.8427,-2.9435,-3.0068,-3.0447,-3.0568,-3.0568,-3.0568,-3.0568,-3.0568,-3.0568,-3.0568,-3.0568,-3.0628,-3.0747,-3.1364,-3.2391,-3.3355,-3.3984,-3.4101,-3.4151,-3.425,-3.43,-3.43,-3.43,-3.4546,-3.4707,-3.4707,-3.4787,-3.4899,-3.4899,-3.5528,-3.6009,-3.6025,-3.6688,-3.7417,-3.8162,-3.8245,-3.8526,-3.9222,-3.9325,-3.9504,-3.9952,-4.0003,-4.0252,-4.0802,-4.0802,-4.0802,-4.0802,-4.1248,-4.1516,-4.1516,-4.2044,-4.2387,-4.2503,-4.2503,-4.2606,-1.6836,0.0,0.0,0.0,0.0,0.0,0.0,0.0,0.0,0.0,0.0,0.0,0.0,0.0,0.0,0.0,0.0,0.0,0.0,0.0,0.0,0.0,0.0,0.0,0.0,0.0,0.0,0.0,-1.7836,-1.8407,-1.7997,-1.8816,-1.9696,-2.0566,-2.0566,-2.0566,-2.0566,-2.0566,-2.0867,-2.1461,-2.2285,-2.3095,-2.3818,-2.4636,-2.5087,-2.5312,-2.5312,-2.5312,-2.5312,-2.5312,-2.5312,-2.537,-2.5963,-2.6514,-2.6976,-2.8363,-2.9156,-2.9623,-3.0251,-3.0568,-3.0568,-3.0568,-3.0568,-3.0568,-3.0568,-3.0568,-3.0568,-3.0568,-3.0911,-3.148,-3.2501,-3.3319,-3.3866,-3.405,-3.4151,-3.425,-3.43,-3.4448,-3.4594,-3.4594,-3.4756,-3.4835,-3.4835,-3.4899,-3.4899,-3.4899,-3.5528,-3.6191,-3.6738,-3.745,-3.8179,-3.8907,-3.899,-3.9056,-3.9255,-3.9592,-3.9868,-4.0003,-4.0351,-4.0659,-4.0802,-4.0802,-4.0943,-4.1293,-4.1516,-4.1813,-4.2205,-4.2364,-4.2445,-4.2503,-4.2645,-4.2763,0.0,0.0,0.0,0.0,0.0,0.0,-1.6986,-1.6551,0.0,0.0,0.0,0.0,0.0,0.0,0.0,0.0,0.0,0.0,0.0,0.0,0.0,0.0,0.0,0.0,0.0,-1.7098,-1.7504,-1.7908,-1.8807,-1.9213,-1.9125,-1.9529,-2.0089,-2.0566,-2.0566,-2.0566,-2.0566,-2.0944,-2.1318,-2.1832,-2.2947,-2.3672,-2.412,-2.4933,-2.5312,-2.5312,-2.5312,-2.5312,-2.53,-2.5709,-2.5836,-2.5906,-2.6433,-2.7098,-2.7986,-2.8967,-2.9623,-3.0068,-3.0447,-3.0568,-3.0568,-3.0568,-3.0568,-3.0568,-3.0568,-3.0568,-3.0628,-3.0911,-3.158,-3.2336,-3.3024,-3.3697,-3.4201,-3.4201,-3.43,-3.4399,-3.4448,-3.4594,-3.4691,-3.4691,-3.4804,-3.4899,-3.4899,-3.4899,-3.4899,-3.4899,-3.5528,-3.6274,-3.7019,-3.7748,-3.8477,-3.9206,-3.9272,-3.9362,-3.9609,-3.9817,-4.0203,-4.0625,-4.0926,-4.122,-4.1401,-4.1401,-4.1596,-4.1917,-4.2002,-4.2246,-4.2624,-4.2566,-4.2566,-4.2606,-4.2783,-4.2842,0.0,0.0,0.0,0.0,0.0,0.0,-1.819,-1.7547,-1.6854,0.0,0.0,0.0,0.0,0.0,0.0,0.0,0.0,0.0,0.0,0.0,0.0,0.0,0.0,0.0,-1.8603,-1.8532,-1.878,-1.9599,-1.9529,-1.9775,-2.0566,-2.0566,-2.0566,-2.0566,-2.0566,-2.0566,-2.0566,-2.1385,-2.1832,-2.1983,-2.3379,-2.412,-2.4264,-2.4933,-2.5312,-2.5312,-2.5312,-2.537,-2.5499,-2.6296,-2.6625,-2.6625,-2.6828,-2.7894,-2.931,-2.9435,-2.9931,-3.0568,-3.0568,-3.0568,-3.0568,-3.0568,-3.0568,-3.0568,-3.0568,-3.0628,-3.0866,-3.148,-3.2391,-3.3251,-3.3303,-3.3799,-3.43,-3.43,-3.4448,-3.4546,-3.4691,-3.4691,-3.4691,-3.4691,-3.4804,-3.4899,-3.4899,-3.4899,-3.4899,-3.4899,-3.5528,-3.6241,-3.6903,-3.7698,-3.846,-3.909,-3.9222,-3.9504,-3.9952,-4.0053,-4.048,-4.1428,-4.1578,-4.1813,-4.2287,-4.2328,-4.2387,-4.2503,-4.2503,-4.2606,-4.2822,-4.2688,-4.2688,-4.2822,-4.2862,-4.2882,0.0,0.0,0.0,0.0,0.0,0.0,-1.9331,-1.8473,-1.7755,0.0,0.0,0.0,0.0,0.0,0.0,0.0,0.0,0.0,0.0,0.0,0.0,0.0,0.0,0.0,-1.8674,-1.9167,-1.9659,-1.9825,-2.0333,-2.0576,-2.0566,-2.0566,-2.0566,-2.0566,-2.0566,-2.0566,-2.0566,-2.1385,-2.2134,-2.2809,-2.3683,-2.4409,-2.5087,-2.5241,-2.5312,-2.5312,-2.5312,-2.5709,-2.6364,-2.6557,-2.6625,-2.6761,-2.8233,-2.8967,-2.9373,-3.0068,-3.0447,-3.0568,-3.0568,-3.0568,-3.0568,-3.0568,-3.0568,-3.0568,-3.0568,-3.0925,-3.1537,-3.261,-3.3024,-3.3355,-3.3917,-3.4184,-3.4349,-3.4448,-3.4546,-3.4643,-3.4691,-3.4787,-3.4851,-3.4851,-3.4899,-3.4899,-3.4899,-3.4899,-3.4899,-3.4899,-3.5528,-3.6059,-3.6208,-3.7384,-3.8278,-3.8411,-3.8941,-3.9504,-3.9952,-4.04,-4.0879,-4.1472,-4.1917,-4.2187,-4.2287,-4.2387,-4.2463,-4.2503,-4.2645,-4.2783,-4.2862,-4.2804,-4.2804,-4.2862,-4.2882,-4.2882,0.0,0.0,0.0,-2.0712,0.0,0.0,0.0,-1.9265,-1.8647,-1.8647,0.0,0.0,0.0,0.0,0.0,0.0,0.0,0.0,0.0,0.0,0.0,0.0,0.0,0.0,-2.0197,-2.0527,-2.0624,-2.0557,-2.0886,-2.0974,-2.0886,-2.0809,-2.0741,-2.0741,-2.0644,-2.0789,-2.1165,-2.1983,-2.2798,-2.3537,-2.4348,-2.4933,-2.5312,-2.5312,-2.5312,-2.5312,-2.5382,-2.5918,-2.6625,-2.7165,-2.763,-2.8025,-2.8967,-2.956,-3.0007,-3.0447,-3.0568,-3.0568,-3.0568,-3.0568,-3.0568,-3.0568,-3.0568,-3.0568,-3.0568,-3.1263,-3.2089,-3.2986,-3.3423,-3.3748,-3.4184,-3.4349,-3.4448,-3.4546,-3.4691,-3.4804,-3.4804,-3.4851,-3.4899,-3.4899,-3.4899,-3.4899,-3.4899,-3.4899,-3.4899,-3.4899,-3.5214,-3.5578,-3.5959,-3.6655,-3.7384,-3.8129,-3.8737,-3.9463,-4.0317,-4.0879,-4.1356,-4.1856,-4.2145,-4.2346,-4.2405,-4.2445,-4.2544,-4.2645,-4.2783,-4.2862,-4.2882,-4.2862,-4.2862,-4.2882,-4.2882,-4.2882,0.0,0.0,0.0,0.0,0.0,-1.98,0.0,0.0,0.0,-1.9539,0.0,0.0,0.0,0.0,0.0,0.0,0.0,0.0,0.0,0.0,0.0,0.0,0.0,0.0,0.0,-2.1655,-2.1512,-2.1282,-2.1282,-2.1205,-2.1205,-2.0984,-2.0906,-2.0906,-2.0731,-2.1011,-2.1766,-2.2585,-2.339,-2.4108,-2.4933,-2.5312,-2.5312,-2.5312,-2.5312,-2.5382,-2.5535,-2.5988,-2.6773,-2.7776,-2.8634,-2.9373,-2.9498,-3.0007,-3.0568,-3.0568,-3.0568,-3.0568,-3.0568,-3.0568,-3.0568,-3.0568,-3.0687,-3.0807,-3.0911,-3.1709,-3.2641,-3.3251,-3.3748,-3.4201,-3.4349,-3.4448,-3.4546,-3.4707,-3.4804,-3.4899,-3.4899,-3.4899,-3.4899,-3.4899,-3.4899,-3.4899,-3.4899,-3.4899,-3.4899,-3.4899,-3.4899,-3.5114,-3.5711,-3.5909,-3.6506,-3.7751,-3.8387,-3.9214,-4.0619,-4.1084,-4.1611,-4.2287,-4.2346,-4.2387,-4.2486,-4.2526,-4.2645,-4.2822,-4.2862,-4.2882,-4.2882,-4.2882,-4.2882,-4.2882,-4.2882,-4.2882,0.0,0.0,0.0,0.0,-2.2149,0.0,0.0,0.0,-2.0489,-2.0489,0.0,0.0,0.0,0.0,0.0,0.0,0.0,0.0,0.0,0.0,0.0,0.0,0.0,0.0,0.0,-2.1807,-2.1655,-2.1502,-2.1512,-2.1359,-2.1205,-2.0984,-2.0906,-2.0906,-2.0731,-2.1011,-2.1766,-2.2585,-2.339,-2.4108,-2.4933,-2.5312,-2.5312,-2.5312,-2.5382,-2.5535,-2.5606,-2.6208,-2.7217,-2.792,-2.8762,-2.9623,-3.019,-3.0507,-3.0568,-3.0568,-3.0568,-3.0568,-3.0568,-3.0568,-3.0568,-3.0568,-3.097,-3.148,-3.2048,-3.2625,-3.3251,-3.3968,-3.4234,-3.4349,-3.4594,-3.4643,-3.4691,-3.4851,-3.4899,-3.4899,-3.4899,-3.4899,-3.4899,-3.4899,-3.4899,-3.4899,-3.4899,-3.4899,-3.4899,-3.4899,-3.4899,-3.4932,-3.5015,-3.5595,-3.6237,-3.6818,-3.7503,-3.8606,-4.0272,-4.0473,-4.1089,-4.2409,-4.2463,-4.2526,-4.2588,-4.2706,-4.2804,-4.29,-4.29,-4.2882,-4.2882,-4.2882,-4.2882,-4.2882,-4.2882,-4.2882,0.0,0.0,0.0,0.0,0.0,0.0,-2.204,0.0,-2.0741,0.0,0.0,0.0,0.0,0.0,0.0,0.0,-2.2478,0.0,0.0,0.0,0.0,0.0,0.0,0.0,0.0,0.0,0.0,0.0,-2.1655,-2.1655,-2.1578,-2.1359,-2.1205,-2.1061,-2.1339,-2.1776,-2.251,-2.3243,-2.4047,-2.4791,-2.5158,-2.5312,-2.5312,-2.5382,-2.5535,-2.5606,-2.584,-2.6633,-2.7802,-2.8247,-2.9079,-3.019,-3.0507,-3.0568,-3.0568,-3.0568,-3.0568,-3.0568,-3.0568,-3.0568,-3.0568,-3.0568,-3.1029,-3.1595,-3.2216,-3.2788,-3.3355,-3.4068,-3.43,-3.4349,-3.4643,-3.4691,-3.4739,-3.4851,-3.4899,-3.4899,-3.4899,-3.4899,-3.4899,-3.4899,-3.4899,-3.4899,-3.4899,-3.4899,-3.4899,-3.4899,-3.4899,-3.4977,-3.5287,-3.5602,-3.6076,-3.6939,-3.7575,-3.8443,-3.9613,-4.04,-4.1073,-4.1769,-4.2354,-4.2685,-4.2688,-4.2371,-4.2175,-4.2212,-4.1759,-4.1741,-4.2212,-4.2212,-4.2448,-4.2882,-4.2882,-4.2882,-2.3637,0.0,0.0,0.0,0.0,0.0,0.0,0.0,0.0,0.0,0.0,0.0,0.0,0.0,0.0,0.0,0.0,0.0,0.0,0.0,0.0,0.0,0.0,0.0,0.0,0.0,0.0,-2.2381,-2.2241,-2.2252,-2.2456,-2.2231,-2.208,-2.1939,-2.2306,-2.282,-2.3475,-2.3975,-2.4564,-2.5382,-2.5382,-2.5382,-2.5382,-2.5606,-2.5816,-2.6082,-2.6383,-2.7162,-2.8298,-2.8634,-2.9407,-3.0326,-3.0507,-3.0568,-3.0568,-3.0568,-3.0568,-3.0568,-3.0568,-3.0568,-3.0568,-3.0568,-3.1146,-3.1823,-3.2256,-3.2949,-3.363,-3.4234,-3.4399,-3.4448,-3.4691,-3.4739,-3.4804,-3.4899,-3.4899,-3.4899,-3.4899,-3.4899,-3.4899,-3.4899,-3.4899,-3.4899,-3.4899,-3.4899,-3.493,-3.5071,-3.5102,-3.5224,-3.5705,-3.5776,-3.6112,-3.7076,-3.7539,-3.8116,-3.9047,-3.9953,-4.0763,-4.1328,-4.2096,-4.2497,-4.2497,-4.1777,-4.1379,-4.1379,-4.0818,-4.08,-4.1379,-4.1578,-4.2013,-4.2574,-4.2792,-4.2882,0.0,0.0,0.0,-2.3744,0.0,0.0,0.0,0.0,-2.1954,0.0,0.0,0.0,0.0,0.0,0.0,0.0,0.0,0.0,0.0,0.0,0.0,0.0,0.0,0.0,0.0,0.0,0.0,-2.3975,-2.335,-2.3276,-2.3975,-2.3818,-2.3745,-2.3745,-2.3526,-2.3818,-2.4636,-2.4492,-2.4791,-2.5606,-2.5606,-2.5606,-2.5606,-2.5828,-2.6371,-2.7162,-2.7162,-2.767,-2.8556,-2.9282,-2.9623,-2.9685,-3.0326,-3.0568,-3.0568,-3.0568,-3.0568,-3.0568,-3.0568,-3.0568,-3.0568,-3.0568,-3.1422,-3.2382,-3.2501,-3.3303,-3.4349,-3.4594,-3.4691,-3.4691,-3.4851,-3.4899,-3.4899,-3.4899,-3.4899,-3.4899,-3.4899,-3.4899,-3.4899,-3.4899,-3.4899,-3.4899,-3.4899,-3.4899,-3.5071,-3.5498,-3.5571,-3.5732,-3.6147,-3.6172,-3.6357,-3.6856,-3.6935,-3.7443,-3.8696,-3.8901,-3.9713,-4.1484,-4.1667,-4.1722,-4.1722,-4.0981,-4.0546,-4.0546,-4.0528,-4.0528,-4.0546,-4.1343,-4.1723,-4.1778,-4.2538,-4.2882,0.0,0.0,-2.6778,-2.5735,0.0,0.0,0.0,0.0,0.0,0.0,0.0,0.0,0.0,0.0,0.0,0.0,0.0,0.0,0.0,0.0,0.0,0.0,0.0,0.0,0.0,0.0,0.0,-2.4047,-2.3829,-2.3841,-2.412,-2.4036,-2.3963,-2.3818,-2.4264,-2.4564,-2.4707,-2.5158,-2.5535,-2.5828,-2.5828,-2.5828,-2.5828,-2.5992,-2.6258,-2.6589,-2.7162,-2.7802,-2.8556,-2.9296,-2.987,-3.0251,-3.0507,-3.0568,-3.0568,-3.0568,-3.0568,-3.0568,-3.0568,-3.0851,-3.1204,-3.1204,-3.1962,-3.2933,-3.3077,-3.3681,-3.4349,-3.4643,-3.4691,-3.4739,-3.4851,-3.4899,-3.4899,-3.4899,-3.4899,-3.4899,-3.4899,-3.4899,-3.4899,-3.4899,-3.4899,-3.4899,-3.4899,-3.4899,-3.5071,-3.5543,-3.5616,-3.5864,-3.6563,-3.6643,-3.686,-3.7319,-3.7374,-3.7555,-3.8025,-3.8708,-3.959,-4.0744,-4.0854,-4.0926,-4.0926,-4.0184,-3.9767,-3.9767,-3.9242,-3.9242,-3.9767,-4.0057,-4.0709,-4.1723,-4.1995,-4.2393,-2.7209,-2.7602,0.0,-2.6883,-2.6967,0.0,-2.554,0.0,0.0,0.0,0.0,0.0,0.0,0.0,0.0,0.0,0.0,0.0,0.0,-2.6714,0.0,0.0,0.0,0.0,0.0,0.0,-2.4696,-2.4921,-2.4767,-2.4696,0.0,0.0,-2.4921,-2.4767,-2.5288,-2.5441,-2.537,-2.5758,-2.5992,-2.5992,-2.5992,-2.5992,-2.598,-2.6452,-2.6782,-2.704,-2.7868,-2.8634,-2.9268,-2.9732,-3.019,-3.0568,-3.0568,-3.0568,-3.0568,-3.0568,-3.0568,-3.0568,-3.0568,-3.097,-3.148,-3.148,-3.2281,-3.3287,-3.3443,-3.3935,-3.4497,-3.4707,-3.4787,-3.4787,-3.4899,-3.4899,-3.4899,-3.4899,-3.4899,-3.4899,-3.4899,-3.4899,-3.4899,-3.4899,-3.4899,-3.4899,-3.4899,-3.5024,-3.5316,-3.5732,-3.582,-3.6165,-3.7034,-3.715,-3.7281,-3.7613,-3.7649,-3.7667,-3.781,-3.8653,-3.9463,-4.0005,-4.0094,-4.0111,-4.0111,-3.9369,-3.9097,-3.9387,-3.8608,-3.859,-3.9387,-3.9387,-4.0057,-4.1307,-4.1578,-4.214]}]]